<?xml version="1.0" encoding="UTF-8" standalone="no" ?>
<gpx xmlns="http://www.topografix.com/GPX/1/1" xmlns:xsi="http://www.w3.org/2001/XMLSchema-instance" xsi:schemaLocation="http://www.topografix.com/GPX/1/1 http://www.topografix.com/GPX/1/1/gpx.xsd" version="1.1" creator="VisuGPX - https://www.visugpx.com">
  <metadata>
    <name>VTT - Montagne de la Serre</name>
    <desc><![CDATA[Départ de Beaulieu pour une belle rando vtt sur les crêtes de la Montagne de la Serre. Un bon poussage après Saint André de Cruzières et puis des coups de cul sur la crêtes mais tout cela donne une belle virée avec un paysage génial. Et que dire du temps, vive le Sud au mois de décembre ;)]]></desc>
  </metadata>
  <trk>
    <name><![CDATA[08-DEC-13 14:05:35]]></name>
    <trkseg>
      <trkpt lat="44.36146" lon="4.23296">
        <ele>71.76</ele>
        <time>2013-12-08T09:06:44Z</time>
      </trkpt>
      <trkpt lat="44.36146" lon="4.23296">
        <ele>75.12</ele>
        <time>2013-12-08T09:06:45Z</time>
      </trkpt>
      <trkpt lat="44.36146" lon="4.23297">
        <ele>78.48</ele>
        <time>2013-12-08T09:06:47Z</time>
      </trkpt>
      <trkpt lat="44.36146" lon="4.23297">
        <ele>82.81</ele>
        <time>2013-12-08T09:06:49Z</time>
      </trkpt>
      <trkpt lat="44.36146" lon="4.23297">
        <ele>87.14</ele>
        <time>2013-12-08T09:06:51Z</time>
      </trkpt>
      <trkpt lat="44.36146" lon="4.23298">
        <ele>90.98</ele>
        <time>2013-12-08T09:06:53Z</time>
      </trkpt>
      <trkpt lat="44.36145" lon="4.23297">
        <ele>94.35</ele>
        <time>2013-12-08T09:06:55Z</time>
      </trkpt>
      <trkpt lat="44.36146" lon="4.23297">
        <ele>98.19</ele>
        <time>2013-12-08T09:06:57Z</time>
      </trkpt>
      <trkpt lat="44.36145" lon="4.23298">
        <ele>101.56</ele>
        <time>2013-12-08T09:07:00Z</time>
      </trkpt>
      <trkpt lat="44.36145" lon="4.23297">
        <ele>105.88</ele>
        <time>2013-12-08T09:07:03Z</time>
      </trkpt>
      <trkpt lat="44.36144" lon="4.23297">
        <ele>110.21</ele>
        <time>2013-12-08T09:07:06Z</time>
      </trkpt>
      <trkpt lat="44.36144" lon="4.23297">
        <ele>113.09</ele>
        <time>2013-12-08T09:07:09Z</time>
      </trkpt>
      <trkpt lat="44.36144" lon="4.23297">
        <ele>116.46</ele>
        <time>2013-12-08T09:07:12Z</time>
      </trkpt>
      <trkpt lat="44.36143" lon="4.23298">
        <ele>119.82</ele>
        <time>2013-12-08T09:07:16Z</time>
      </trkpt>
      <trkpt lat="44.36144" lon="4.23297">
        <ele>123.19</ele>
        <time>2013-12-08T09:07:20Z</time>
      </trkpt>
      <trkpt lat="44.36144" lon="4.23297">
        <ele>126.07</ele>
        <time>2013-12-08T09:07:24Z</time>
      </trkpt>
      <trkpt lat="44.36145" lon="4.23296">
        <ele>129.43</ele>
        <time>2013-12-08T09:07:29Z</time>
      </trkpt>
      <trkpt lat="44.36146" lon="4.23296">
        <ele>132.32</ele>
        <time>2013-12-08T09:07:35Z</time>
      </trkpt>
      <trkpt lat="44.36145" lon="4.23297">
        <ele>135.68</ele>
        <time>2013-12-08T09:07:43Z</time>
      </trkpt>
      <trkpt lat="44.36143" lon="4.23296">
        <ele>139.05</ele>
        <time>2013-12-08T09:07:55Z</time>
      </trkpt>
      <trkpt lat="44.36142" lon="4.23293">
        <ele>139.53</ele>
        <time>2013-12-08T09:07:58Z</time>
      </trkpt>
      <trkpt lat="44.36157" lon="4.23278">
        <ele>140.01</ele>
        <time>2013-12-08T09:08:05Z</time>
      </trkpt>
      <trkpt lat="44.36206" lon="4.23231">
        <ele>136.64</ele>
        <time>2013-12-08T09:08:16Z</time>
      </trkpt>
      <trkpt lat="44.36211" lon="4.23193">
        <ele>135.68</ele>
        <time>2013-12-08T09:08:23Z</time>
      </trkpt>
      <trkpt lat="44.36206" lon="4.23189">
        <ele>135.68</ele>
        <time>2013-12-08T09:08:25Z</time>
      </trkpt>
      <trkpt lat="44.36153" lon="4.23179">
        <ele>137.13</ele>
        <time>2013-12-08T09:08:40Z</time>
      </trkpt>
      <trkpt lat="44.36126" lon="4.2317">
        <ele>136.64</ele>
        <time>2013-12-08T09:08:47Z</time>
      </trkpt>
      <trkpt lat="44.3611" lon="4.23163">
        <ele>136.64</ele>
        <time>2013-12-08T09:08:51Z</time>
      </trkpt>
      <trkpt lat="44.36045" lon="4.23135">
        <ele>135.68</ele>
        <time>2013-12-08T09:09:07Z</time>
      </trkpt>
      <trkpt lat="44.3601" lon="4.2312">
        <ele>135.68</ele>
        <time>2013-12-08T09:09:18Z</time>
      </trkpt>
      <trkpt lat="44.36004" lon="4.23135">
        <ele>136.16</ele>
        <time>2013-12-08T09:09:27Z</time>
      </trkpt>
      <trkpt lat="44.36009" lon="4.23144">
        <ele>136.16</ele>
        <time>2013-12-08T09:09:37Z</time>
      </trkpt>
      <trkpt lat="44.36009" lon="4.23144">
        <ele>137.13</ele>
        <time>2013-12-08T09:09:57Z</time>
      </trkpt>
      <trkpt lat="44.36017" lon="4.23141">
        <ele>136.64</ele>
        <time>2013-12-08T09:10:55Z</time>
      </trkpt>
      <trkpt lat="44.36018" lon="4.23144">
        <ele>136.64</ele>
        <time>2013-12-08T09:10:56Z</time>
      </trkpt>
      <trkpt lat="44.36011" lon="4.23146">
        <ele>136.16</ele>
        <time>2013-12-08T09:11:18Z</time>
      </trkpt>
      <trkpt lat="44.3601" lon="4.23147">
        <ele>136.16</ele>
        <time>2013-12-08T09:11:42Z</time>
      </trkpt>
      <trkpt lat="44.3601" lon="4.23147">
        <ele>136.16</ele>
        <time>2013-12-08T09:11:45Z</time>
      </trkpt>
      <trkpt lat="44.36015" lon="4.23137">
        <ele>136.64</ele>
        <time>2013-12-08T09:12:53Z</time>
      </trkpt>
      <trkpt lat="44.36015" lon="4.23137">
        <ele>136.64</ele>
        <time>2013-12-08T09:12:54Z</time>
      </trkpt>
      <trkpt lat="44.36012" lon="4.23141">
        <ele>136.64</ele>
        <time>2013-12-08T09:13:12Z</time>
      </trkpt>
      <trkpt lat="44.36011" lon="4.23143">
        <ele>136.64</ele>
        <time>2013-12-08T09:13:34Z</time>
      </trkpt>
      <trkpt lat="44.36011" lon="4.23143">
        <ele>136.16</ele>
        <time>2013-12-08T09:13:36Z</time>
      </trkpt>
      <trkpt lat="44.36013" lon="4.23152">
        <ele>136.16</ele>
        <time>2013-12-08T09:13:41Z</time>
      </trkpt>
      <trkpt lat="44.3603" lon="4.23196">
        <ele>138.57</ele>
        <time>2013-12-08T09:13:53Z</time>
      </trkpt>
      <trkpt lat="44.36037" lon="4.23217">
        <ele>141.93</ele>
        <time>2013-12-08T09:14:00Z</time>
      </trkpt>
      <trkpt lat="44.36053" lon="4.23252">
        <ele>143.37</ele>
        <time>2013-12-08T09:14:11Z</time>
      </trkpt>
      <trkpt lat="44.36054" lon="4.2326">
        <ele>143.37</ele>
        <time>2013-12-08T09:14:13Z</time>
      </trkpt>
      <trkpt lat="44.36048" lon="4.23283">
        <ele>145.78</ele>
        <time>2013-12-08T09:14:21Z</time>
      </trkpt>
      <trkpt lat="44.36028" lon="4.23307">
        <ele>149.14</ele>
        <time>2013-12-08T09:14:33Z</time>
      </trkpt>
      <trkpt lat="44.36015" lon="4.23319">
        <ele>150.1</ele>
        <time>2013-12-08T09:14:39Z</time>
      </trkpt>
      <trkpt lat="44.36024" lon="4.23353">
        <ele>153.95</ele>
        <time>2013-12-08T09:14:50Z</time>
      </trkpt>
      <trkpt lat="44.36025" lon="4.23376">
        <ele>154.91</ele>
        <time>2013-12-08T09:14:58Z</time>
      </trkpt>
      <trkpt lat="44.35999" lon="4.23381">
        <ele>155.87</ele>
        <time>2013-12-08T09:15:10Z</time>
      </trkpt>
      <trkpt lat="44.35969" lon="4.23407">
        <ele>155.39</ele>
        <time>2013-12-08T09:15:24Z</time>
      </trkpt>
      <trkpt lat="44.35961" lon="4.2342">
        <ele>154.91</ele>
        <time>2013-12-08T09:15:27Z</time>
      </trkpt>
      <trkpt lat="44.35948" lon="4.23454">
        <ele>154.43</ele>
        <time>2013-12-08T09:15:34Z</time>
      </trkpt>
      <trkpt lat="44.35948" lon="4.23458">
        <ele>154.43</ele>
        <time>2013-12-08T09:15:35Z</time>
      </trkpt>
      <trkpt lat="44.35949" lon="4.2346">
        <ele>154.43</ele>
        <time>2013-12-08T09:15:36Z</time>
      </trkpt>
      <trkpt lat="44.35951" lon="4.23465">
        <ele>154.43</ele>
        <time>2013-12-08T09:15:47Z</time>
      </trkpt>
      <trkpt lat="44.35949" lon="4.23496">
        <ele>154.43</ele>
        <time>2013-12-08T09:15:56Z</time>
      </trkpt>
      <trkpt lat="44.35938" lon="4.23549">
        <ele>155.39</ele>
        <time>2013-12-08T09:16:09Z</time>
      </trkpt>
      <trkpt lat="44.35935" lon="4.2362">
        <ele>156.83</ele>
        <time>2013-12-08T09:16:25Z</time>
      </trkpt>
      <trkpt lat="44.35912" lon="4.23706">
        <ele>156.35</ele>
        <time>2013-12-08T09:16:41Z</time>
      </trkpt>
      <trkpt lat="44.35909" lon="4.23717">
        <ele>156.35</ele>
        <time>2013-12-08T09:16:43Z</time>
      </trkpt>
      <trkpt lat="44.35905" lon="4.23747">
        <ele>155.87</ele>
        <time>2013-12-08T09:16:48Z</time>
      </trkpt>
      <trkpt lat="44.35906" lon="4.23764">
        <ele>156.35</ele>
        <time>2013-12-08T09:16:51Z</time>
      </trkpt>
      <trkpt lat="44.35908" lon="4.23797">
        <ele>155.87</ele>
        <time>2013-12-08T09:16:57Z</time>
      </trkpt>
      <trkpt lat="44.35908" lon="4.23802">
        <ele>155.87</ele>
        <time>2013-12-08T09:16:58Z</time>
      </trkpt>
      <trkpt lat="44.35904" lon="4.23882">
        <ele>153.47</ele>
        <time>2013-12-08T09:17:11Z</time>
      </trkpt>
      <trkpt lat="44.35899" lon="4.23962">
        <ele>152.99</ele>
        <time>2013-12-08T09:17:26Z</time>
      </trkpt>
      <trkpt lat="44.35893" lon="4.24032">
        <ele>152.99</ele>
        <time>2013-12-08T09:17:39Z</time>
      </trkpt>
      <trkpt lat="44.35893" lon="4.24055">
        <ele>152.51</ele>
        <time>2013-12-08T09:17:43Z</time>
      </trkpt>
      <trkpt lat="44.35893" lon="4.24166">
        <ele>152.51</ele>
        <time>2013-12-08T09:18:01Z</time>
      </trkpt>
      <trkpt lat="44.35893" lon="4.24177">
        <ele>152.99</ele>
        <time>2013-12-08T09:18:03Z</time>
      </trkpt>
      <trkpt lat="44.35893" lon="4.24183">
        <ele>152.99</ele>
        <time>2013-12-08T09:18:04Z</time>
      </trkpt>
      <trkpt lat="44.35895" lon="4.24233">
        <ele>152.99</ele>
        <time>2013-12-08T09:18:13Z</time>
      </trkpt>
      <trkpt lat="44.35895" lon="4.24239">
        <ele>152.99</ele>
        <time>2013-12-08T09:18:14Z</time>
      </trkpt>
      <trkpt lat="44.35895" lon="4.24295">
        <ele>152.03</ele>
        <time>2013-12-08T09:18:23Z</time>
      </trkpt>
      <trkpt lat="44.35895" lon="4.24301">
        <ele>152.03</ele>
        <time>2013-12-08T09:18:24Z</time>
      </trkpt>
      <trkpt lat="44.35896" lon="4.24307">
        <ele>152.03</ele>
        <time>2013-12-08T09:18:25Z</time>
      </trkpt>
      <trkpt lat="44.35898" lon="4.24313">
        <ele>152.03</ele>
        <time>2013-12-08T09:18:26Z</time>
      </trkpt>
      <trkpt lat="44.359" lon="4.24319">
        <ele>152.03</ele>
        <time>2013-12-08T09:18:27Z</time>
      </trkpt>
      <trkpt lat="44.35904" lon="4.24332">
        <ele>151.54</ele>
        <time>2013-12-08T09:18:34Z</time>
      </trkpt>
      <trkpt lat="44.35903" lon="4.24332">
        <ele>152.03</ele>
        <time>2013-12-08T09:18:42Z</time>
      </trkpt>
      <trkpt lat="44.35902" lon="4.2433">
        <ele>152.03</ele>
        <time>2013-12-08T09:18:43Z</time>
      </trkpt>
      <trkpt lat="44.35895" lon="4.24281">
        <ele>152.03</ele>
        <time>2013-12-08T09:18:56Z</time>
      </trkpt>
      <trkpt lat="44.35894" lon="4.24196">
        <ele>152.99</ele>
        <time>2013-12-08T09:19:13Z</time>
      </trkpt>
      <trkpt lat="44.35893" lon="4.24098">
        <ele>152.03</ele>
        <time>2013-12-08T09:19:30Z</time>
      </trkpt>
      <trkpt lat="44.35894" lon="4.24081">
        <ele>152.03</ele>
        <time>2013-12-08T09:19:33Z</time>
      </trkpt>
      <trkpt lat="44.35894" lon="4.24007">
        <ele>152.99</ele>
        <time>2013-12-08T09:19:49Z</time>
      </trkpt>
      <trkpt lat="44.35898" lon="4.23956">
        <ele>152.51</ele>
        <time>2013-12-08T09:20:02Z</time>
      </trkpt>
      <trkpt lat="44.35896" lon="4.23953">
        <ele>152.51</ele>
        <time>2013-12-08T09:20:03Z</time>
      </trkpt>
      <trkpt lat="44.35893" lon="4.23952">
        <ele>152.51</ele>
        <time>2013-12-08T09:20:04Z</time>
      </trkpt>
      <trkpt lat="44.3589" lon="4.23953">
        <ele>152.51</ele>
        <time>2013-12-08T09:20:05Z</time>
      </trkpt>
      <trkpt lat="44.35889" lon="4.23956">
        <ele>152.51</ele>
        <time>2013-12-08T09:20:06Z</time>
      </trkpt>
      <trkpt lat="44.35888" lon="4.2396">
        <ele>152.03</ele>
        <time>2013-12-08T09:20:07Z</time>
      </trkpt>
      <trkpt lat="44.35887" lon="4.23965">
        <ele>152.03</ele>
        <time>2013-12-08T09:20:08Z</time>
      </trkpt>
      <trkpt lat="44.35886" lon="4.23969">
        <ele>152.03</ele>
        <time>2013-12-08T09:20:09Z</time>
      </trkpt>
      <trkpt lat="44.35885" lon="4.23974">
        <ele>152.03</ele>
        <time>2013-12-08T09:20:10Z</time>
      </trkpt>
      <trkpt lat="44.35884" lon="4.23979">
        <ele>151.54</ele>
        <time>2013-12-08T09:20:11Z</time>
      </trkpt>
      <trkpt lat="44.35883" lon="4.23984">
        <ele>151.54</ele>
        <time>2013-12-08T09:20:12Z</time>
      </trkpt>
      <trkpt lat="44.35863" lon="4.24044">
        <ele>149.62</ele>
        <time>2013-12-08T09:20:23Z</time>
      </trkpt>
      <trkpt lat="44.3586" lon="4.24049">
        <ele>149.62</ele>
        <time>2013-12-08T09:20:24Z</time>
      </trkpt>
      <trkpt lat="44.35855" lon="4.24054">
        <ele>149.14</ele>
        <time>2013-12-08T09:20:25Z</time>
      </trkpt>
      <trkpt lat="44.35852" lon="4.24059">
        <ele>148.66</ele>
        <time>2013-12-08T09:20:26Z</time>
      </trkpt>
      <trkpt lat="44.35848" lon="4.24064">
        <ele>148.18</ele>
        <time>2013-12-08T09:20:27Z</time>
      </trkpt>
      <trkpt lat="44.35841" lon="4.24073">
        <ele>148.18</ele>
        <time>2013-12-08T09:20:29Z</time>
      </trkpt>
      <trkpt lat="44.35837" lon="4.24079">
        <ele>148.18</ele>
        <time>2013-12-08T09:20:30Z</time>
      </trkpt>
      <trkpt lat="44.35835" lon="4.24085">
        <ele>148.18</ele>
        <time>2013-12-08T09:20:31Z</time>
      </trkpt>
      <trkpt lat="44.35832" lon="4.24091">
        <ele>147.7</ele>
        <time>2013-12-08T09:20:32Z</time>
      </trkpt>
      <trkpt lat="44.3583" lon="4.24097">
        <ele>147.7</ele>
        <time>2013-12-08T09:20:33Z</time>
      </trkpt>
      <trkpt lat="44.35806" lon="4.24159">
        <ele>149.14</ele>
        <time>2013-12-08T09:20:45Z</time>
      </trkpt>
      <trkpt lat="44.35784" lon="4.24208">
        <ele>151.06</ele>
        <time>2013-12-08T09:20:57Z</time>
      </trkpt>
      <trkpt lat="44.35766" lon="4.24264">
        <ele>153.47</ele>
        <time>2013-12-08T09:21:11Z</time>
      </trkpt>
      <trkpt lat="44.35764" lon="4.24266">
        <ele>153.47</ele>
        <time>2013-12-08T09:21:12Z</time>
      </trkpt>
      <trkpt lat="44.35732" lon="4.24279">
        <ele>153.47</ele>
        <time>2013-12-08T09:21:23Z</time>
      </trkpt>
      <trkpt lat="44.35706" lon="4.24317">
        <ele>154.43</ele>
        <time>2013-12-08T09:21:36Z</time>
      </trkpt>
      <trkpt lat="44.35702" lon="4.24331">
        <ele>155.87</ele>
        <time>2013-12-08T09:21:39Z</time>
      </trkpt>
      <trkpt lat="44.35696" lon="4.2434">
        <ele>156.35</ele>
        <time>2013-12-08T09:21:41Z</time>
      </trkpt>
      <trkpt lat="44.35693" lon="4.24344">
        <ele>156.83</ele>
        <time>2013-12-08T09:21:42Z</time>
      </trkpt>
      <trkpt lat="44.35691" lon="4.24348">
        <ele>157.31</ele>
        <time>2013-12-08T09:21:43Z</time>
      </trkpt>
      <trkpt lat="44.35691" lon="4.24353">
        <ele>157.31</ele>
        <time>2013-12-08T09:21:44Z</time>
      </trkpt>
      <trkpt lat="44.35692" lon="4.24358">
        <ele>157.31</ele>
        <time>2013-12-08T09:21:45Z</time>
      </trkpt>
      <trkpt lat="44.35694" lon="4.24362">
        <ele>157.79</ele>
        <time>2013-12-08T09:21:46Z</time>
      </trkpt>
      <trkpt lat="44.35696" lon="4.24364">
        <ele>157.79</ele>
        <time>2013-12-08T09:21:47Z</time>
      </trkpt>
      <trkpt lat="44.35697" lon="4.24367">
        <ele>157.79</ele>
        <time>2013-12-08T09:21:48Z</time>
      </trkpt>
      <trkpt lat="44.35697" lon="4.24369">
        <ele>158.27</ele>
        <time>2013-12-08T09:21:49Z</time>
      </trkpt>
      <trkpt lat="44.35698" lon="4.24372">
        <ele>158.27</ele>
        <time>2013-12-08T09:21:50Z</time>
      </trkpt>
      <trkpt lat="44.35698" lon="4.24375">
        <ele>158.27</ele>
        <time>2013-12-08T09:21:51Z</time>
      </trkpt>
      <trkpt lat="44.357" lon="4.24378">
        <ele>157.79</ele>
        <time>2013-12-08T09:21:52Z</time>
      </trkpt>
      <trkpt lat="44.35701" lon="4.24401">
        <ele>158.27</ele>
        <time>2013-12-08T09:21:59Z</time>
      </trkpt>
      <trkpt lat="44.35689" lon="4.24418">
        <ele>160.2</ele>
        <time>2013-12-08T09:22:08Z</time>
      </trkpt>
      <trkpt lat="44.35675" lon="4.24439">
        <ele>162.12</ele>
        <time>2013-12-08T09:22:18Z</time>
      </trkpt>
      <trkpt lat="44.35673" lon="4.2444">
        <ele>162.6</ele>
        <time>2013-12-08T09:22:19Z</time>
      </trkpt>
      <trkpt lat="44.35649" lon="4.24478">
        <ele>163.56</ele>
        <time>2013-12-08T09:22:34Z</time>
      </trkpt>
      <trkpt lat="44.35644" lon="4.24483">
        <ele>164.52</ele>
        <time>2013-12-08T09:22:42Z</time>
      </trkpt>
      <trkpt lat="44.35642" lon="4.24489">
        <ele>164.52</ele>
        <time>2013-12-08T09:22:46Z</time>
      </trkpt>
      <trkpt lat="44.35611" lon="4.24499">
        <ele>165</ele>
        <time>2013-12-08T09:22:58Z</time>
      </trkpt>
      <trkpt lat="44.35574" lon="4.24507">
        <ele>165</ele>
        <time>2013-12-08T09:23:13Z</time>
      </trkpt>
      <trkpt lat="44.35551" lon="4.24554">
        <ele>166.45</ele>
        <time>2013-12-08T09:23:27Z</time>
      </trkpt>
      <trkpt lat="44.35531" lon="4.24592">
        <ele>168.37</ele>
        <time>2013-12-08T09:23:39Z</time>
      </trkpt>
      <trkpt lat="44.35521" lon="4.24624">
        <ele>169.81</ele>
        <time>2013-12-08T09:23:52Z</time>
      </trkpt>
      <trkpt lat="44.35521" lon="4.24624">
        <ele>169.81</ele>
        <time>2013-12-08T09:23:59Z</time>
      </trkpt>
      <trkpt lat="44.35512" lon="4.24652">
        <ele>169.81</ele>
        <time>2013-12-08T09:24:10Z</time>
      </trkpt>
      <trkpt lat="44.35509" lon="4.24665">
        <ele>170.29</ele>
        <time>2013-12-08T09:24:14Z</time>
      </trkpt>
      <trkpt lat="44.35496" lon="4.24716">
        <ele>171.73</ele>
        <time>2013-12-08T09:24:28Z</time>
      </trkpt>
      <trkpt lat="44.35481" lon="4.24758">
        <ele>173.17</ele>
        <time>2013-12-08T09:24:41Z</time>
      </trkpt>
      <trkpt lat="44.35471" lon="4.24774">
        <ele>175.1</ele>
        <time>2013-12-08T09:24:53Z</time>
      </trkpt>
      <trkpt lat="44.3547" lon="4.24776">
        <ele>175.1</ele>
        <time>2013-12-08T09:24:56Z</time>
      </trkpt>
      <trkpt lat="44.35456" lon="4.24813">
        <ele>175.1</ele>
        <time>2013-12-08T09:25:08Z</time>
      </trkpt>
      <trkpt lat="44.35427" lon="4.24848">
        <ele>176.06</ele>
        <time>2013-12-08T09:25:22Z</time>
      </trkpt>
      <trkpt lat="44.3542" lon="4.2486">
        <ele>176.06</ele>
        <time>2013-12-08T09:25:26Z</time>
      </trkpt>
      <trkpt lat="44.35395" lon="4.24891">
        <ele>174.62</ele>
        <time>2013-12-08T09:25:35Z</time>
      </trkpt>
      <trkpt lat="44.3539" lon="4.24895">
        <ele>174.14</ele>
        <time>2013-12-08T09:25:36Z</time>
      </trkpt>
      <trkpt lat="44.35386" lon="4.24901">
        <ele>174.14</ele>
        <time>2013-12-08T09:25:37Z</time>
      </trkpt>
      <trkpt lat="44.35378" lon="4.24912">
        <ele>173.66</ele>
        <time>2013-12-08T09:25:39Z</time>
      </trkpt>
      <trkpt lat="44.35375" lon="4.24919">
        <ele>173.17</ele>
        <time>2013-12-08T09:25:40Z</time>
      </trkpt>
      <trkpt lat="44.35347" lon="4.24961">
        <ele>174.62</ele>
        <time>2013-12-08T09:25:51Z</time>
      </trkpt>
      <trkpt lat="44.35327" lon="4.2499">
        <ele>176.54</ele>
        <time>2013-12-08T09:26:00Z</time>
      </trkpt>
      <trkpt lat="44.35302" lon="4.25019">
        <ele>179.9</ele>
        <time>2013-12-08T09:26:13Z</time>
      </trkpt>
      <trkpt lat="44.35268" lon="4.25033">
        <ele>181.83</ele>
        <time>2013-12-08T09:26:28Z</time>
      </trkpt>
      <trkpt lat="44.35263" lon="4.25034">
        <ele>182.31</ele>
        <time>2013-12-08T09:26:30Z</time>
      </trkpt>
      <trkpt lat="44.35253" lon="4.2504">
        <ele>183.75</ele>
        <time>2013-12-08T09:26:35Z</time>
      </trkpt>
      <trkpt lat="44.35219" lon="4.25063">
        <ele>186.15</ele>
        <time>2013-12-08T09:26:52Z</time>
      </trkpt>
      <trkpt lat="44.35206" lon="4.25089">
        <ele>189.04</ele>
        <time>2013-12-08T09:27:03Z</time>
      </trkpt>
      <trkpt lat="44.35202" lon="4.25097">
        <ele>190</ele>
        <time>2013-12-08T09:27:07Z</time>
      </trkpt>
      <trkpt lat="44.35177" lon="4.25108">
        <ele>192.88</ele>
        <time>2013-12-08T09:27:20Z</time>
      </trkpt>
      <trkpt lat="44.35162" lon="4.25101">
        <ele>194.8</ele>
        <time>2013-12-08T09:27:30Z</time>
      </trkpt>
      <trkpt lat="44.35146" lon="4.25102">
        <ele>197.69</ele>
        <time>2013-12-08T09:27:40Z</time>
      </trkpt>
      <trkpt lat="44.35141" lon="4.25108">
        <ele>198.17</ele>
        <time>2013-12-08T09:27:54Z</time>
      </trkpt>
      <trkpt lat="44.35141" lon="4.25108">
        <ele>198.17</ele>
        <time>2013-12-08T09:28:16Z</time>
      </trkpt>
      <trkpt lat="44.35141" lon="4.25108">
        <ele>198.17</ele>
        <time>2013-12-08T09:28:35Z</time>
      </trkpt>
      <trkpt lat="44.35141" lon="4.25108">
        <ele>198.17</ele>
        <time>2013-12-08T09:28:54Z</time>
      </trkpt>
      <trkpt lat="44.35142" lon="4.25108">
        <ele>198.17</ele>
        <time>2013-12-08T09:29:20Z</time>
      </trkpt>
      <trkpt lat="44.35142" lon="4.25108">
        <ele>198.17</ele>
        <time>2013-12-08T09:29:39Z</time>
      </trkpt>
      <trkpt lat="44.35142" lon="4.2511">
        <ele>197.69</ele>
        <time>2013-12-08T09:29:51Z</time>
      </trkpt>
      <trkpt lat="44.35138" lon="4.2512">
        <ele>198.17</ele>
        <time>2013-12-08T09:29:56Z</time>
      </trkpt>
      <trkpt lat="44.35136" lon="4.25155">
        <ele>201.05</ele>
        <time>2013-12-08T09:30:10Z</time>
      </trkpt>
      <trkpt lat="44.35132" lon="4.25175">
        <ele>204.42</ele>
        <time>2013-12-08T09:30:20Z</time>
      </trkpt>
      <trkpt lat="44.35131" lon="4.25177">
        <ele>204.9</ele>
        <time>2013-12-08T09:30:21Z</time>
      </trkpt>
      <trkpt lat="44.3512" lon="4.25197">
        <ele>208.26</ele>
        <time>2013-12-08T09:30:33Z</time>
      </trkpt>
      <trkpt lat="44.3511" lon="4.25224">
        <ele>211.15</ele>
        <time>2013-12-08T09:30:45Z</time>
      </trkpt>
      <trkpt lat="44.35104" lon="4.25229">
        <ele>212.11</ele>
        <time>2013-12-08T09:30:50Z</time>
      </trkpt>
      <trkpt lat="44.35094" lon="4.2523">
        <ele>214.51</ele>
        <time>2013-12-08T09:31:02Z</time>
      </trkpt>
      <trkpt lat="44.35089" lon="4.25232">
        <ele>215.95</ele>
        <time>2013-12-08T09:31:12Z</time>
      </trkpt>
      <trkpt lat="44.35076" lon="4.25234">
        <ele>218.36</ele>
        <time>2013-12-08T09:31:25Z</time>
      </trkpt>
      <trkpt lat="44.35065" lon="4.25234">
        <ele>220.76</ele>
        <time>2013-12-08T09:31:38Z</time>
      </trkpt>
      <trkpt lat="44.35064" lon="4.25234">
        <ele>220.76</ele>
        <time>2013-12-08T09:31:39Z</time>
      </trkpt>
      <trkpt lat="44.35054" lon="4.25231">
        <ele>222.2</ele>
        <time>2013-12-08T09:31:47Z</time>
      </trkpt>
      <trkpt lat="44.35037" lon="4.2523">
        <ele>224.61</ele>
        <time>2013-12-08T09:31:59Z</time>
      </trkpt>
      <trkpt lat="44.35016" lon="4.25226">
        <ele>227.97</ele>
        <time>2013-12-08T09:32:15Z</time>
      </trkpt>
      <trkpt lat="44.35007" lon="4.25225">
        <ele>229.41</ele>
        <time>2013-12-08T09:32:28Z</time>
      </trkpt>
      <trkpt lat="44.35005" lon="4.25226">
        <ele>229.89</ele>
        <time>2013-12-08T09:32:41Z</time>
      </trkpt>
      <trkpt lat="44.34982" lon="4.25221">
        <ele>232.3</ele>
        <time>2013-12-08T09:32:56Z</time>
      </trkpt>
      <trkpt lat="44.34979" lon="4.25222">
        <ele>232.78</ele>
        <time>2013-12-08T09:32:58Z</time>
      </trkpt>
      <trkpt lat="44.34974" lon="4.25225">
        <ele>233.26</ele>
        <time>2013-12-08T09:33:02Z</time>
      </trkpt>
      <trkpt lat="44.34969" lon="4.25227">
        <ele>233.74</ele>
        <time>2013-12-08T09:33:06Z</time>
      </trkpt>
      <trkpt lat="44.34952" lon="4.25231">
        <ele>235.18</ele>
        <time>2013-12-08T09:33:17Z</time>
      </trkpt>
      <trkpt lat="44.34934" lon="4.25244">
        <ele>237.58</ele>
        <time>2013-12-08T09:33:31Z</time>
      </trkpt>
      <trkpt lat="44.34916" lon="4.25258">
        <ele>239.99</ele>
        <time>2013-12-08T09:33:45Z</time>
      </trkpt>
      <trkpt lat="44.34909" lon="4.25271">
        <ele>241.43</ele>
        <time>2013-12-08T09:33:53Z</time>
      </trkpt>
      <trkpt lat="44.34889" lon="4.25288">
        <ele>243.83</ele>
        <time>2013-12-08T09:34:09Z</time>
      </trkpt>
      <trkpt lat="44.34881" lon="4.25294">
        <ele>245.27</ele>
        <time>2013-12-08T09:34:15Z</time>
      </trkpt>
      <trkpt lat="44.34879" lon="4.25297">
        <ele>245.75</ele>
        <time>2013-12-08T09:34:17Z</time>
      </trkpt>
      <trkpt lat="44.34874" lon="4.253">
        <ele>246.23</ele>
        <time>2013-12-08T09:34:21Z</time>
      </trkpt>
      <trkpt lat="44.34863" lon="4.25312">
        <ele>247.68</ele>
        <time>2013-12-08T09:34:31Z</time>
      </trkpt>
      <trkpt lat="44.34855" lon="4.2532">
        <ele>248.16</ele>
        <time>2013-12-08T09:34:37Z</time>
      </trkpt>
      <trkpt lat="44.3485" lon="4.25325">
        <ele>249.12</ele>
        <time>2013-12-08T09:34:41Z</time>
      </trkpt>
      <trkpt lat="44.34848" lon="4.25327">
        <ele>249.12</ele>
        <time>2013-12-08T09:34:43Z</time>
      </trkpt>
      <trkpt lat="44.34845" lon="4.25329">
        <ele>249.6</ele>
        <time>2013-12-08T09:34:45Z</time>
      </trkpt>
      <trkpt lat="44.34829" lon="4.25332">
        <ele>252</ele>
        <time>2013-12-08T09:34:56Z</time>
      </trkpt>
      <trkpt lat="44.34825" lon="4.25335">
        <ele>252.48</ele>
        <time>2013-12-08T09:34:59Z</time>
      </trkpt>
      <trkpt lat="44.34816" lon="4.25339">
        <ele>253.44</ele>
        <time>2013-12-08T09:35:06Z</time>
      </trkpt>
      <trkpt lat="44.34798" lon="4.25351">
        <ele>256.33</ele>
        <time>2013-12-08T09:35:21Z</time>
      </trkpt>
      <trkpt lat="44.34785" lon="4.25348">
        <ele>258.73</ele>
        <time>2013-12-08T09:35:30Z</time>
      </trkpt>
      <trkpt lat="44.34778" lon="4.25351">
        <ele>259.69</ele>
        <time>2013-12-08T09:35:44Z</time>
      </trkpt>
      <trkpt lat="44.3477" lon="4.25354">
        <ele>260.65</ele>
        <time>2013-12-08T09:36:02Z</time>
      </trkpt>
      <trkpt lat="44.3476" lon="4.2536">
        <ele>262.58</ele>
        <time>2013-12-08T09:36:10Z</time>
      </trkpt>
      <trkpt lat="44.34757" lon="4.25361">
        <ele>263.06</ele>
        <time>2013-12-08T09:36:13Z</time>
      </trkpt>
      <trkpt lat="44.34743" lon="4.25371">
        <ele>266.42</ele>
        <time>2013-12-08T09:36:25Z</time>
      </trkpt>
      <trkpt lat="44.34736" lon="4.25369">
        <ele>267.86</ele>
        <time>2013-12-08T09:36:31Z</time>
      </trkpt>
      <trkpt lat="44.34732" lon="4.2537">
        <ele>268.83</ele>
        <time>2013-12-08T09:36:35Z</time>
      </trkpt>
      <trkpt lat="44.34729" lon="4.25373">
        <ele>269.31</ele>
        <time>2013-12-08T09:36:38Z</time>
      </trkpt>
      <trkpt lat="44.34726" lon="4.25381">
        <ele>270.75</ele>
        <time>2013-12-08T09:36:44Z</time>
      </trkpt>
      <trkpt lat="44.34725" lon="4.25385">
        <ele>271.71</ele>
        <time>2013-12-08T09:36:51Z</time>
      </trkpt>
      <trkpt lat="44.34725" lon="4.25385">
        <ele>271.71</ele>
        <time>2013-12-08T09:37:04Z</time>
      </trkpt>
      <trkpt lat="44.34723" lon="4.25388">
        <ele>272.67</ele>
        <time>2013-12-08T09:37:16Z</time>
      </trkpt>
      <trkpt lat="44.34723" lon="4.25388">
        <ele>272.67</ele>
        <time>2013-12-08T09:37:31Z</time>
      </trkpt>
      <trkpt lat="44.34723" lon="4.25388">
        <ele>272.67</ele>
        <time>2013-12-08T09:37:45Z</time>
      </trkpt>
      <trkpt lat="44.34716" lon="4.25388">
        <ele>274.11</ele>
        <time>2013-12-08T09:37:55Z</time>
      </trkpt>
      <trkpt lat="44.34715" lon="4.25388">
        <ele>275.07</ele>
        <time>2013-12-08T09:38:05Z</time>
      </trkpt>
      <trkpt lat="44.34707" lon="4.25387">
        <ele>276.52</ele>
        <time>2013-12-08T09:38:12Z</time>
      </trkpt>
      <trkpt lat="44.34701" lon="4.2539">
        <ele>277.48</ele>
        <time>2013-12-08T09:38:16Z</time>
      </trkpt>
      <trkpt lat="44.34693" lon="4.25391">
        <ele>278.92</ele>
        <time>2013-12-08T09:38:29Z</time>
      </trkpt>
      <trkpt lat="44.34684" lon="4.25391">
        <ele>279.4</ele>
        <time>2013-12-08T09:38:47Z</time>
      </trkpt>
      <trkpt lat="44.34669" lon="4.25388">
        <ele>280.84</ele>
        <time>2013-12-08T09:38:56Z</time>
      </trkpt>
      <trkpt lat="44.34651" lon="4.25394">
        <ele>282.77</ele>
        <time>2013-12-08T09:39:09Z</time>
      </trkpt>
      <trkpt lat="44.3465" lon="4.25395">
        <ele>282.77</ele>
        <time>2013-12-08T09:39:10Z</time>
      </trkpt>
      <trkpt lat="44.34645" lon="4.25398">
        <ele>283.73</ele>
        <time>2013-12-08T09:39:14Z</time>
      </trkpt>
      <trkpt lat="44.3464" lon="4.254">
        <ele>284.69</ele>
        <time>2013-12-08T09:39:18Z</time>
      </trkpt>
      <trkpt lat="44.34618" lon="4.25401">
        <ele>287.09</ele>
        <time>2013-12-08T09:39:34Z</time>
      </trkpt>
      <trkpt lat="44.34597" lon="4.25396">
        <ele>289.97</ele>
        <time>2013-12-08T09:39:50Z</time>
      </trkpt>
      <trkpt lat="44.34595" lon="4.25395">
        <ele>290.46</ele>
        <time>2013-12-08T09:39:52Z</time>
      </trkpt>
      <trkpt lat="44.34589" lon="4.25395">
        <ele>291.42</ele>
        <time>2013-12-08T09:39:57Z</time>
      </trkpt>
      <trkpt lat="44.34577" lon="4.25396">
        <ele>293.82</ele>
        <time>2013-12-08T09:40:08Z</time>
      </trkpt>
      <trkpt lat="44.34575" lon="4.25397">
        <ele>294.3</ele>
        <time>2013-12-08T09:40:10Z</time>
      </trkpt>
      <trkpt lat="44.34568" lon="4.25397">
        <ele>296.22</ele>
        <time>2013-12-08T09:40:22Z</time>
      </trkpt>
      <trkpt lat="44.34557" lon="4.25399">
        <ele>298.63</ele>
        <time>2013-12-08T09:40:37Z</time>
      </trkpt>
      <trkpt lat="44.3455" lon="4.25399">
        <ele>299.59</ele>
        <time>2013-12-08T09:40:49Z</time>
      </trkpt>
      <trkpt lat="44.34537" lon="4.25401">
        <ele>302.47</ele>
        <time>2013-12-08T09:41:03Z</time>
      </trkpt>
      <trkpt lat="44.34532" lon="4.25402">
        <ele>303.43</ele>
        <time>2013-12-08T09:41:08Z</time>
      </trkpt>
      <trkpt lat="44.34524" lon="4.25405">
        <ele>304.88</ele>
        <time>2013-12-08T09:41:15Z</time>
      </trkpt>
      <trkpt lat="44.34518" lon="4.25409">
        <ele>306.32</ele>
        <time>2013-12-08T09:41:22Z</time>
      </trkpt>
      <trkpt lat="44.34515" lon="4.25412">
        <ele>307.28</ele>
        <time>2013-12-08T09:41:35Z</time>
      </trkpt>
      <trkpt lat="44.34515" lon="4.25412">
        <ele>306.8</ele>
        <time>2013-12-08T09:41:36Z</time>
      </trkpt>
      <trkpt lat="44.34503" lon="4.25425">
        <ele>309.2</ele>
        <time>2013-12-08T09:41:47Z</time>
      </trkpt>
      <trkpt lat="44.34493" lon="4.25434">
        <ele>310.16</ele>
        <time>2013-12-08T09:41:56Z</time>
      </trkpt>
      <trkpt lat="44.3449" lon="4.25439">
        <ele>310.64</ele>
        <time>2013-12-08T09:42:05Z</time>
      </trkpt>
      <trkpt lat="44.34489" lon="4.25439">
        <ele>310.64</ele>
        <time>2013-12-08T09:47:15Z</time>
      </trkpt>
      <trkpt lat="44.3449" lon="4.25439">
        <ele>310.64</ele>
        <time>2013-12-08T09:47:16Z</time>
      </trkpt>
      <trkpt lat="44.34491" lon="4.25438">
        <ele>310.16</ele>
        <time>2013-12-08T09:47:20Z</time>
      </trkpt>
      <trkpt lat="44.34475" lon="4.25463">
        <ele>309.68</ele>
        <time>2013-12-08T09:47:35Z</time>
      </trkpt>
      <trkpt lat="44.34455" lon="4.25496">
        <ele>309.68</ele>
        <time>2013-12-08T09:47:50Z</time>
      </trkpt>
      <trkpt lat="44.3444" lon="4.25518">
        <ele>309.68</ele>
        <time>2013-12-08T09:48:02Z</time>
      </trkpt>
      <trkpt lat="44.34422" lon="4.25537">
        <ele>310.16</ele>
        <time>2013-12-08T09:48:12Z</time>
      </trkpt>
      <trkpt lat="44.34399" lon="4.25534">
        <ele>311.6</ele>
        <time>2013-12-08T09:48:24Z</time>
      </trkpt>
      <trkpt lat="44.3438" lon="4.25531">
        <ele>314.49</ele>
        <time>2013-12-08T09:48:36Z</time>
      </trkpt>
      <trkpt lat="44.3436" lon="4.25527">
        <ele>316.89</ele>
        <time>2013-12-08T09:48:48Z</time>
      </trkpt>
      <trkpt lat="44.34341" lon="4.25524">
        <ele>317.37</ele>
        <time>2013-12-08T09:49:00Z</time>
      </trkpt>
      <trkpt lat="44.34341" lon="4.25524">
        <ele>317.85</ele>
        <time>2013-12-08T09:49:11Z</time>
      </trkpt>
      <trkpt lat="44.34341" lon="4.2552">
        <ele>316.41</ele>
        <time>2013-12-08T09:49:15Z</time>
      </trkpt>
      <trkpt lat="44.34349" lon="4.25518">
        <ele>314.49</ele>
        <time>2013-12-08T09:49:19Z</time>
      </trkpt>
      <trkpt lat="44.34373" lon="4.25509">
        <ele>310.64</ele>
        <time>2013-12-08T09:49:25Z</time>
      </trkpt>
      <trkpt lat="44.34393" lon="4.25503">
        <ele>307.28</ele>
        <time>2013-12-08T09:49:29Z</time>
      </trkpt>
      <trkpt lat="44.344" lon="4.25499">
        <ele>305.84</ele>
        <time>2013-12-08T09:49:31Z</time>
      </trkpt>
      <trkpt lat="44.34402" lon="4.25494">
        <ele>305.36</ele>
        <time>2013-12-08T09:49:32Z</time>
      </trkpt>
      <trkpt lat="44.34402" lon="4.25488">
        <ele>304.39</ele>
        <time>2013-12-08T09:49:33Z</time>
      </trkpt>
      <trkpt lat="44.34402" lon="4.25482">
        <ele>303.43</ele>
        <time>2013-12-08T09:49:34Z</time>
      </trkpt>
      <trkpt lat="44.34403" lon="4.25475">
        <ele>302.47</ele>
        <time>2013-12-08T09:49:35Z</time>
      </trkpt>
      <trkpt lat="44.34404" lon="4.25469">
        <ele>301.99</ele>
        <time>2013-12-08T09:49:36Z</time>
      </trkpt>
      <trkpt lat="44.34405" lon="4.25463">
        <ele>301.03</ele>
        <time>2013-12-08T09:49:37Z</time>
      </trkpt>
      <trkpt lat="44.34405" lon="4.25457">
        <ele>300.07</ele>
        <time>2013-12-08T09:49:38Z</time>
      </trkpt>
      <trkpt lat="44.34404" lon="4.25446">
        <ele>298.15</ele>
        <time>2013-12-08T09:49:40Z</time>
      </trkpt>
      <trkpt lat="44.34404" lon="4.2544">
        <ele>297.18</ele>
        <time>2013-12-08T09:49:41Z</time>
      </trkpt>
      <trkpt lat="44.34405" lon="4.25434">
        <ele>296.7</ele>
        <time>2013-12-08T09:49:42Z</time>
      </trkpt>
      <trkpt lat="44.34408" lon="4.25415">
        <ele>294.3</ele>
        <time>2013-12-08T09:49:45Z</time>
      </trkpt>
      <trkpt lat="44.34406" lon="4.2541">
        <ele>293.34</ele>
        <time>2013-12-08T09:49:46Z</time>
      </trkpt>
      <trkpt lat="44.34403" lon="4.25409">
        <ele>293.34</ele>
        <time>2013-12-08T09:49:47Z</time>
      </trkpt>
      <trkpt lat="44.34394" lon="4.2541">
        <ele>291.9</ele>
        <time>2013-12-08T09:49:51Z</time>
      </trkpt>
      <trkpt lat="44.34392" lon="4.25408">
        <ele>291.42</ele>
        <time>2013-12-08T09:49:52Z</time>
      </trkpt>
      <trkpt lat="44.34392" lon="4.25406">
        <ele>290.94</ele>
        <time>2013-12-08T09:49:53Z</time>
      </trkpt>
      <trkpt lat="44.34393" lon="4.25403">
        <ele>290.46</ele>
        <time>2013-12-08T09:49:54Z</time>
      </trkpt>
      <trkpt lat="44.34393" lon="4.25401">
        <ele>289.97</ele>
        <time>2013-12-08T09:49:55Z</time>
      </trkpt>
      <trkpt lat="44.34394" lon="4.254">
        <ele>289.49</ele>
        <time>2013-12-08T09:50:09Z</time>
      </trkpt>
      <trkpt lat="44.34394" lon="4.25398">
        <ele>289.49</ele>
        <time>2013-12-08T09:50:10Z</time>
      </trkpt>
      <trkpt lat="44.34394" lon="4.25395">
        <ele>289.49</ele>
        <time>2013-12-08T09:50:11Z</time>
      </trkpt>
      <trkpt lat="44.34394" lon="4.25392">
        <ele>289.01</ele>
        <time>2013-12-08T09:50:12Z</time>
      </trkpt>
      <trkpt lat="44.34395" lon="4.25388">
        <ele>288.53</ele>
        <time>2013-12-08T09:50:13Z</time>
      </trkpt>
      <trkpt lat="44.34397" lon="4.25385">
        <ele>288.05</ele>
        <time>2013-12-08T09:50:14Z</time>
      </trkpt>
      <trkpt lat="44.34401" lon="4.25377">
        <ele>286.61</ele>
        <time>2013-12-08T09:50:23Z</time>
      </trkpt>
      <trkpt lat="44.34401" lon="4.25377">
        <ele>286.61</ele>
        <time>2013-12-08T09:50:43Z</time>
      </trkpt>
      <trkpt lat="44.34404" lon="4.25368">
        <ele>286.61</ele>
        <time>2013-12-08T09:50:47Z</time>
      </trkpt>
      <trkpt lat="44.34407" lon="4.25366">
        <ele>286.13</ele>
        <time>2013-12-08T09:50:48Z</time>
      </trkpt>
      <trkpt lat="44.3441" lon="4.25363">
        <ele>285.65</ele>
        <time>2013-12-08T09:50:49Z</time>
      </trkpt>
      <trkpt lat="44.34417" lon="4.25359">
        <ele>283.73</ele>
        <time>2013-12-08T09:50:51Z</time>
      </trkpt>
      <trkpt lat="44.3442" lon="4.25356">
        <ele>282.77</ele>
        <time>2013-12-08T09:50:52Z</time>
      </trkpt>
      <trkpt lat="44.34423" lon="4.25353">
        <ele>282.77</ele>
        <time>2013-12-08T09:50:53Z</time>
      </trkpt>
      <trkpt lat="44.34423" lon="4.2535">
        <ele>282.28</ele>
        <time>2013-12-08T09:50:54Z</time>
      </trkpt>
      <trkpt lat="44.34423" lon="4.25348">
        <ele>281.8</ele>
        <time>2013-12-08T09:50:55Z</time>
      </trkpt>
      <trkpt lat="44.34422" lon="4.25343">
        <ele>281.32</ele>
        <time>2013-12-08T09:50:57Z</time>
      </trkpt>
      <trkpt lat="44.34421" lon="4.2534">
        <ele>280.36</ele>
        <time>2013-12-08T09:50:58Z</time>
      </trkpt>
      <trkpt lat="44.34412" lon="4.25322">
        <ele>278.44</ele>
        <time>2013-12-08T09:51:03Z</time>
      </trkpt>
      <trkpt lat="44.34391" lon="4.25277">
        <ele>275.56</ele>
        <time>2013-12-08T09:51:14Z</time>
      </trkpt>
      <trkpt lat="44.34383" lon="4.25262">
        <ele>274.59</ele>
        <time>2013-12-08T09:51:17Z</time>
      </trkpt>
      <trkpt lat="44.34381" lon="4.25257">
        <ele>274.11</ele>
        <time>2013-12-08T09:51:18Z</time>
      </trkpt>
      <trkpt lat="44.34379" lon="4.25252">
        <ele>273.63</ele>
        <time>2013-12-08T09:51:19Z</time>
      </trkpt>
      <trkpt lat="44.34376" lon="4.25246">
        <ele>273.63</ele>
        <time>2013-12-08T09:51:20Z</time>
      </trkpt>
      <trkpt lat="44.34375" lon="4.25241">
        <ele>273.15</ele>
        <time>2013-12-08T09:51:21Z</time>
      </trkpt>
      <trkpt lat="44.34373" lon="4.25236">
        <ele>272.67</ele>
        <time>2013-12-08T09:51:22Z</time>
      </trkpt>
      <trkpt lat="44.3437" lon="4.2523">
        <ele>272.19</ele>
        <time>2013-12-08T09:51:23Z</time>
      </trkpt>
      <trkpt lat="44.34367" lon="4.25225">
        <ele>271.71</ele>
        <time>2013-12-08T09:51:24Z</time>
      </trkpt>
      <trkpt lat="44.34351" lon="4.25191">
        <ele>268.83</ele>
        <time>2013-12-08T09:51:32Z</time>
      </trkpt>
      <trkpt lat="44.34337" lon="4.25168">
        <ele>266.42</ele>
        <time>2013-12-08T09:51:38Z</time>
      </trkpt>
      <trkpt lat="44.34332" lon="4.25153">
        <ele>264.98</ele>
        <time>2013-12-08T09:51:41Z</time>
      </trkpt>
      <trkpt lat="44.34321" lon="4.25128">
        <ele>261.62</ele>
        <time>2013-12-08T09:51:47Z</time>
      </trkpt>
      <trkpt lat="44.34309" lon="4.25105">
        <ele>258.25</ele>
        <time>2013-12-08T09:51:53Z</time>
      </trkpt>
      <trkpt lat="44.34305" lon="4.25089">
        <ele>256.81</ele>
        <time>2013-12-08T09:51:56Z</time>
      </trkpt>
      <trkpt lat="44.34298" lon="4.25053">
        <ele>253.44</ele>
        <time>2013-12-08T09:52:03Z</time>
      </trkpt>
      <trkpt lat="44.34297" lon="4.25048">
        <ele>253.44</ele>
        <time>2013-12-08T09:52:04Z</time>
      </trkpt>
      <trkpt lat="44.34289" lon="4.25013">
        <ele>250.08</ele>
        <time>2013-12-08T09:52:11Z</time>
      </trkpt>
      <trkpt lat="44.34285" lon="4.24965">
        <ele>247.68</ele>
        <time>2013-12-08T09:52:22Z</time>
      </trkpt>
      <trkpt lat="44.34282" lon="4.24935">
        <ele>245.75</ele>
        <time>2013-12-08T09:52:29Z</time>
      </trkpt>
      <trkpt lat="44.34282" lon="4.24929">
        <ele>245.75</ele>
        <time>2013-12-08T09:52:30Z</time>
      </trkpt>
      <trkpt lat="44.34285" lon="4.24907">
        <ele>245.27</ele>
        <time>2013-12-08T09:52:34Z</time>
      </trkpt>
      <trkpt lat="44.34285" lon="4.249">
        <ele>245.27</ele>
        <time>2013-12-08T09:52:35Z</time>
      </trkpt>
      <trkpt lat="44.34286" lon="4.24888">
        <ele>244.79</ele>
        <time>2013-12-08T09:52:37Z</time>
      </trkpt>
      <trkpt lat="44.34286" lon="4.24882">
        <ele>244.31</ele>
        <time>2013-12-08T09:52:38Z</time>
      </trkpt>
      <trkpt lat="44.34288" lon="4.24856">
        <ele>243.83</ele>
        <time>2013-12-08T09:52:42Z</time>
      </trkpt>
      <trkpt lat="44.34289" lon="4.2485">
        <ele>243.83</ele>
        <time>2013-12-08T09:52:43Z</time>
      </trkpt>
      <trkpt lat="44.34292" lon="4.2482">
        <ele>243.35</ele>
        <time>2013-12-08T09:52:48Z</time>
      </trkpt>
      <trkpt lat="44.34291" lon="4.24794">
        <ele>242.39</ele>
        <time>2013-12-08T09:52:52Z</time>
      </trkpt>
      <trkpt lat="44.34291" lon="4.24789">
        <ele>242.39</ele>
        <time>2013-12-08T09:52:53Z</time>
      </trkpt>
      <trkpt lat="44.34291" lon="4.24783">
        <ele>241.91</ele>
        <time>2013-12-08T09:52:54Z</time>
      </trkpt>
      <trkpt lat="44.34295" lon="4.24764">
        <ele>240.95</ele>
        <time>2013-12-08T09:52:57Z</time>
      </trkpt>
      <trkpt lat="44.34297" lon="4.24757">
        <ele>240.95</ele>
        <time>2013-12-08T09:52:58Z</time>
      </trkpt>
      <trkpt lat="44.34305" lon="4.24731">
        <ele>240.95</ele>
        <time>2013-12-08T09:53:03Z</time>
      </trkpt>
      <trkpt lat="44.34318" lon="4.24697">
        <ele>241.43</ele>
        <time>2013-12-08T09:53:12Z</time>
      </trkpt>
      <trkpt lat="44.34319" lon="4.24694">
        <ele>241.43</ele>
        <time>2013-12-08T09:53:13Z</time>
      </trkpt>
      <trkpt lat="44.34324" lon="4.24659">
        <ele>241.91</ele>
        <time>2013-12-08T09:53:24Z</time>
      </trkpt>
      <trkpt lat="44.34324" lon="4.24655">
        <ele>241.43</ele>
        <time>2013-12-08T09:53:25Z</time>
      </trkpt>
      <trkpt lat="44.34326" lon="4.24621">
        <ele>239.99</ele>
        <time>2013-12-08T09:53:32Z</time>
      </trkpt>
      <trkpt lat="44.34327" lon="4.24616">
        <ele>239.99</ele>
        <time>2013-12-08T09:53:33Z</time>
      </trkpt>
      <trkpt lat="44.3433" lon="4.24573">
        <ele>238.06</ele>
        <time>2013-12-08T09:53:43Z</time>
      </trkpt>
      <trkpt lat="44.34329" lon="4.24568">
        <ele>237.58</ele>
        <time>2013-12-08T09:53:45Z</time>
      </trkpt>
      <trkpt lat="44.34329" lon="4.24566">
        <ele>237.58</ele>
        <time>2013-12-08T09:53:46Z</time>
      </trkpt>
      <trkpt lat="44.34328" lon="4.24563">
        <ele>237.1</ele>
        <time>2013-12-08T09:53:47Z</time>
      </trkpt>
      <trkpt lat="44.34326" lon="4.24559">
        <ele>236.62</ele>
        <time>2013-12-08T09:53:48Z</time>
      </trkpt>
      <trkpt lat="44.34323" lon="4.24556">
        <ele>235.66</ele>
        <time>2013-12-08T09:53:49Z</time>
      </trkpt>
      <trkpt lat="44.34318" lon="4.24554">
        <ele>234.7</ele>
        <time>2013-12-08T09:53:50Z</time>
      </trkpt>
      <trkpt lat="44.34314" lon="4.24552">
        <ele>234.22</ele>
        <time>2013-12-08T09:53:51Z</time>
      </trkpt>
      <trkpt lat="44.3431" lon="4.2455">
        <ele>233.26</ele>
        <time>2013-12-08T09:53:52Z</time>
      </trkpt>
      <trkpt lat="44.34308" lon="4.24549">
        <ele>232.78</ele>
        <time>2013-12-08T09:53:53Z</time>
      </trkpt>
      <trkpt lat="44.34307" lon="4.24546">
        <ele>232.3</ele>
        <time>2013-12-08T09:53:54Z</time>
      </trkpt>
      <trkpt lat="44.34306" lon="4.24544">
        <ele>231.81</ele>
        <time>2013-12-08T09:53:55Z</time>
      </trkpt>
      <trkpt lat="44.34306" lon="4.24542">
        <ele>231.81</ele>
        <time>2013-12-08T09:53:56Z</time>
      </trkpt>
      <trkpt lat="44.34306" lon="4.2454">
        <ele>231.81</ele>
        <time>2013-12-08T09:53:57Z</time>
      </trkpt>
      <trkpt lat="44.34307" lon="4.24538">
        <ele>231.81</ele>
        <time>2013-12-08T09:53:58Z</time>
      </trkpt>
      <trkpt lat="44.34308" lon="4.24532">
        <ele>232.3</ele>
        <time>2013-12-08T09:54:07Z</time>
      </trkpt>
      <trkpt lat="44.34309" lon="4.24529">
        <ele>232.3</ele>
        <time>2013-12-08T09:54:08Z</time>
      </trkpt>
      <trkpt lat="44.34309" lon="4.24528">
        <ele>232.78</ele>
        <time>2013-12-08T09:54:09Z</time>
      </trkpt>
      <trkpt lat="44.3431" lon="4.24525">
        <ele>232.78</ele>
        <time>2013-12-08T09:54:10Z</time>
      </trkpt>
      <trkpt lat="44.3431" lon="4.24522">
        <ele>232.78</ele>
        <time>2013-12-08T09:54:11Z</time>
      </trkpt>
      <trkpt lat="44.3431" lon="4.24519">
        <ele>232.78</ele>
        <time>2013-12-08T09:54:12Z</time>
      </trkpt>
      <trkpt lat="44.34311" lon="4.24516">
        <ele>232.78</ele>
        <time>2013-12-08T09:54:13Z</time>
      </trkpt>
      <trkpt lat="44.34311" lon="4.24512">
        <ele>232.78</ele>
        <time>2013-12-08T09:54:14Z</time>
      </trkpt>
      <trkpt lat="44.34312" lon="4.24482">
        <ele>232.3</ele>
        <time>2013-12-08T09:54:21Z</time>
      </trkpt>
      <trkpt lat="44.34313" lon="4.24477">
        <ele>231.81</ele>
        <time>2013-12-08T09:54:22Z</time>
      </trkpt>
      <trkpt lat="44.34314" lon="4.24472">
        <ele>231.81</ele>
        <time>2013-12-08T09:54:23Z</time>
      </trkpt>
      <trkpt lat="44.34314" lon="4.24466">
        <ele>231.81</ele>
        <time>2013-12-08T09:54:24Z</time>
      </trkpt>
      <trkpt lat="44.34314" lon="4.24461">
        <ele>231.33</ele>
        <time>2013-12-08T09:54:25Z</time>
      </trkpt>
      <trkpt lat="44.34312" lon="4.24434">
        <ele>230.37</ele>
        <time>2013-12-08T09:54:30Z</time>
      </trkpt>
      <trkpt lat="44.3431" lon="4.2443">
        <ele>229.89</ele>
        <time>2013-12-08T09:54:31Z</time>
      </trkpt>
      <trkpt lat="44.34308" lon="4.24424">
        <ele>229.41</ele>
        <time>2013-12-08T09:54:32Z</time>
      </trkpt>
      <trkpt lat="44.34308" lon="4.24411">
        <ele>228.45</ele>
        <time>2013-12-08T09:54:34Z</time>
      </trkpt>
      <trkpt lat="44.34308" lon="4.24404">
        <ele>227.49</ele>
        <time>2013-12-08T09:54:36Z</time>
      </trkpt>
      <trkpt lat="44.34308" lon="4.24404">
        <ele>227.49</ele>
        <time>2013-12-08T09:54:39Z</time>
      </trkpt>
      <trkpt lat="44.34307" lon="4.24403">
        <ele>227.97</ele>
        <time>2013-12-08T09:54:40Z</time>
      </trkpt>
      <trkpt lat="44.34297" lon="4.24398">
        <ele>225.09</ele>
        <time>2013-12-08T09:54:45Z</time>
      </trkpt>
      <trkpt lat="44.34288" lon="4.24392">
        <ele>223.16</ele>
        <time>2013-12-08T09:54:48Z</time>
      </trkpt>
      <trkpt lat="44.34277" lon="4.24388">
        <ele>220.76</ele>
        <time>2013-12-08T09:54:50Z</time>
      </trkpt>
      <trkpt lat="44.34271" lon="4.24388">
        <ele>219.8</ele>
        <time>2013-12-08T09:54:51Z</time>
      </trkpt>
      <trkpt lat="44.34265" lon="4.24391">
        <ele>218.84</ele>
        <time>2013-12-08T09:54:52Z</time>
      </trkpt>
      <trkpt lat="44.34259" lon="4.24396">
        <ele>217.88</ele>
        <time>2013-12-08T09:54:53Z</time>
      </trkpt>
      <trkpt lat="44.34253" lon="4.24401">
        <ele>217.4</ele>
        <time>2013-12-08T09:54:54Z</time>
      </trkpt>
      <trkpt lat="44.34246" lon="4.24404">
        <ele>216.91</ele>
        <time>2013-12-08T09:54:55Z</time>
      </trkpt>
      <trkpt lat="44.34239" lon="4.24405">
        <ele>216.43</ele>
        <time>2013-12-08T09:54:56Z</time>
      </trkpt>
      <trkpt lat="44.34233" lon="4.24404">
        <ele>216.43</ele>
        <time>2013-12-08T09:54:57Z</time>
      </trkpt>
      <trkpt lat="44.34226" lon="4.24402">
        <ele>215.95</ele>
        <time>2013-12-08T09:54:58Z</time>
      </trkpt>
      <trkpt lat="44.34204" lon="4.24396">
        <ele>215.95</ele>
        <time>2013-12-08T09:55:02Z</time>
      </trkpt>
      <trkpt lat="44.34175" lon="4.24387">
        <ele>215.47</ele>
        <time>2013-12-08T09:55:08Z</time>
      </trkpt>
      <trkpt lat="44.34167" lon="4.24384">
        <ele>215.47</ele>
        <time>2013-12-08T09:55:10Z</time>
      </trkpt>
      <trkpt lat="44.34159" lon="4.24382">
        <ele>215.47</ele>
        <time>2013-12-08T09:55:12Z</time>
      </trkpt>
      <trkpt lat="44.34155" lon="4.2438">
        <ele>215.47</ele>
        <time>2013-12-08T09:55:13Z</time>
      </trkpt>
      <trkpt lat="44.34148" lon="4.24375">
        <ele>214.99</ele>
        <time>2013-12-08T09:55:15Z</time>
      </trkpt>
      <trkpt lat="44.34144" lon="4.24371">
        <ele>214.99</ele>
        <time>2013-12-08T09:55:16Z</time>
      </trkpt>
      <trkpt lat="44.34098" lon="4.24315">
        <ele>214.99</ele>
        <time>2013-12-08T09:55:31Z</time>
      </trkpt>
      <trkpt lat="44.34082" lon="4.24313">
        <ele>217.88</ele>
        <time>2013-12-08T09:55:36Z</time>
      </trkpt>
      <trkpt lat="44.34077" lon="4.24316">
        <ele>218.36</ele>
        <time>2013-12-08T09:55:38Z</time>
      </trkpt>
      <trkpt lat="44.34044" lon="4.24351">
        <ele>220.28</ele>
        <time>2013-12-08T09:55:52Z</time>
      </trkpt>
      <trkpt lat="44.34032" lon="4.24364">
        <ele>221.72</ele>
        <time>2013-12-08T09:56:03Z</time>
      </trkpt>
      <trkpt lat="44.34033" lon="4.24363">
        <ele>221.24</ele>
        <time>2013-12-08T09:56:10Z</time>
      </trkpt>
      <trkpt lat="44.34051" lon="4.24341">
        <ele>220.28</ele>
        <time>2013-12-08T09:56:19Z</time>
      </trkpt>
      <trkpt lat="44.34061" lon="4.24334">
        <ele>219.8</ele>
        <time>2013-12-08T09:56:22Z</time>
      </trkpt>
      <trkpt lat="44.34065" lon="4.2433">
        <ele>219.32</ele>
        <time>2013-12-08T09:56:23Z</time>
      </trkpt>
      <trkpt lat="44.34075" lon="4.24315">
        <ele>218.84</ele>
        <time>2013-12-08T09:56:31Z</time>
      </trkpt>
      <trkpt lat="44.34077" lon="4.24313">
        <ele>218.84</ele>
        <time>2013-12-08T09:56:35Z</time>
      </trkpt>
      <trkpt lat="44.34078" lon="4.24313">
        <ele>218.36</ele>
        <time>2013-12-08T09:56:36Z</time>
      </trkpt>
      <trkpt lat="44.3408" lon="4.24312">
        <ele>218.36</ele>
        <time>2013-12-08T09:56:37Z</time>
      </trkpt>
      <trkpt lat="44.34099" lon="4.24316">
        <ele>215.47</ele>
        <time>2013-12-08T09:56:43Z</time>
      </trkpt>
      <trkpt lat="44.34101" lon="4.24314">
        <ele>215.47</ele>
        <time>2013-12-08T09:56:44Z</time>
      </trkpt>
      <trkpt lat="44.34102" lon="4.24311">
        <ele>215.47</ele>
        <time>2013-12-08T09:56:45Z</time>
      </trkpt>
      <trkpt lat="44.34101" lon="4.24307">
        <ele>214.99</ele>
        <time>2013-12-08T09:56:46Z</time>
      </trkpt>
      <trkpt lat="44.341" lon="4.24303">
        <ele>215.47</ele>
        <time>2013-12-08T09:56:47Z</time>
      </trkpt>
      <trkpt lat="44.34099" lon="4.243">
        <ele>215.47</ele>
        <time>2013-12-08T09:56:48Z</time>
      </trkpt>
      <trkpt lat="44.34098" lon="4.24297">
        <ele>215.47</ele>
        <time>2013-12-08T09:56:49Z</time>
      </trkpt>
      <trkpt lat="44.34097" lon="4.24294">
        <ele>215.47</ele>
        <time>2013-12-08T09:56:50Z</time>
      </trkpt>
      <trkpt lat="44.34095" lon="4.24291">
        <ele>215.95</ele>
        <time>2013-12-08T09:56:51Z</time>
      </trkpt>
      <trkpt lat="44.34094" lon="4.24287">
        <ele>215.47</ele>
        <time>2013-12-08T09:56:52Z</time>
      </trkpt>
      <trkpt lat="44.34069" lon="4.2425">
        <ele>214.99</ele>
        <time>2013-12-08T09:57:04Z</time>
      </trkpt>
      <trkpt lat="44.34038" lon="4.24217">
        <ele>216.43</ele>
        <time>2013-12-08T09:57:17Z</time>
      </trkpt>
      <trkpt lat="44.34022" lon="4.24199">
        <ele>218.36</ele>
        <time>2013-12-08T09:57:27Z</time>
      </trkpt>
      <trkpt lat="44.34011" lon="4.24187">
        <ele>219.8</ele>
        <time>2013-12-08T09:57:34Z</time>
      </trkpt>
      <trkpt lat="44.34009" lon="4.24185">
        <ele>220.28</ele>
        <time>2013-12-08T09:57:35Z</time>
      </trkpt>
      <trkpt lat="44.34008" lon="4.24184">
        <ele>220.28</ele>
        <time>2013-12-08T09:57:36Z</time>
      </trkpt>
      <trkpt lat="44.34006" lon="4.24182">
        <ele>220.28</ele>
        <time>2013-12-08T09:57:37Z</time>
      </trkpt>
      <trkpt lat="44.34005" lon="4.2418">
        <ele>220.28</ele>
        <time>2013-12-08T09:57:38Z</time>
      </trkpt>
      <trkpt lat="44.34003" lon="4.24178">
        <ele>220.76</ele>
        <time>2013-12-08T09:57:39Z</time>
      </trkpt>
      <trkpt lat="44.34002" lon="4.24177">
        <ele>220.76</ele>
        <time>2013-12-08T09:57:40Z</time>
      </trkpt>
      <trkpt lat="44.33984" lon="4.24154">
        <ele>223.16</ele>
        <time>2013-12-08T09:57:53Z</time>
      </trkpt>
      <trkpt lat="44.33972" lon="4.24141">
        <ele>225.09</ele>
        <time>2013-12-08T09:58:02Z</time>
      </trkpt>
      <trkpt lat="44.33971" lon="4.2414">
        <ele>225.09</ele>
        <time>2013-12-08T09:58:03Z</time>
      </trkpt>
      <trkpt lat="44.3397" lon="4.24138">
        <ele>225.57</ele>
        <time>2013-12-08T09:58:04Z</time>
      </trkpt>
      <trkpt lat="44.33969" lon="4.24136">
        <ele>225.57</ele>
        <time>2013-12-08T09:58:05Z</time>
      </trkpt>
      <trkpt lat="44.33968" lon="4.24134">
        <ele>225.57</ele>
        <time>2013-12-08T09:58:06Z</time>
      </trkpt>
      <trkpt lat="44.33958" lon="4.2412">
        <ele>227.49</ele>
        <time>2013-12-08T09:58:15Z</time>
      </trkpt>
      <trkpt lat="44.33957" lon="4.24119">
        <ele>227.49</ele>
        <time>2013-12-08T09:58:16Z</time>
      </trkpt>
      <trkpt lat="44.33951" lon="4.24111">
        <ele>228.93</ele>
        <time>2013-12-08T09:58:21Z</time>
      </trkpt>
      <trkpt lat="44.3395" lon="4.2411">
        <ele>228.93</ele>
        <time>2013-12-08T09:58:22Z</time>
      </trkpt>
      <trkpt lat="44.33939" lon="4.24095">
        <ele>230.37</ele>
        <time>2013-12-08T09:58:33Z</time>
      </trkpt>
      <trkpt lat="44.33926" lon="4.24079">
        <ele>232.3</ele>
        <time>2013-12-08T09:58:43Z</time>
      </trkpt>
      <trkpt lat="44.33922" lon="4.24073">
        <ele>233.26</ele>
        <time>2013-12-08T09:58:48Z</time>
      </trkpt>
      <trkpt lat="44.3392" lon="4.24071">
        <ele>233.74</ele>
        <time>2013-12-08T09:58:49Z</time>
      </trkpt>
      <trkpt lat="44.33919" lon="4.24069">
        <ele>233.74</ele>
        <time>2013-12-08T09:58:50Z</time>
      </trkpt>
      <trkpt lat="44.33917" lon="4.24068">
        <ele>233.74</ele>
        <time>2013-12-08T09:58:51Z</time>
      </trkpt>
      <trkpt lat="44.33916" lon="4.24066">
        <ele>234.22</ele>
        <time>2013-12-08T09:58:52Z</time>
      </trkpt>
      <trkpt lat="44.33915" lon="4.24065">
        <ele>234.22</ele>
        <time>2013-12-08T09:58:53Z</time>
      </trkpt>
      <trkpt lat="44.33914" lon="4.24062">
        <ele>234.7</ele>
        <time>2013-12-08T09:58:54Z</time>
      </trkpt>
      <trkpt lat="44.33913" lon="4.2406">
        <ele>234.7</ele>
        <time>2013-12-08T09:58:55Z</time>
      </trkpt>
      <trkpt lat="44.33911" lon="4.24058">
        <ele>235.18</ele>
        <time>2013-12-08T09:58:56Z</time>
      </trkpt>
      <trkpt lat="44.3391" lon="4.24056">
        <ele>235.18</ele>
        <time>2013-12-08T09:58:57Z</time>
      </trkpt>
      <trkpt lat="44.33908" lon="4.24054">
        <ele>235.18</ele>
        <time>2013-12-08T09:58:58Z</time>
      </trkpt>
      <trkpt lat="44.33907" lon="4.24053">
        <ele>235.66</ele>
        <time>2013-12-08T09:58:59Z</time>
      </trkpt>
      <trkpt lat="44.33906" lon="4.24051">
        <ele>235.66</ele>
        <time>2013-12-08T09:59:00Z</time>
      </trkpt>
      <trkpt lat="44.33905" lon="4.24049">
        <ele>235.66</ele>
        <time>2013-12-08T09:59:01Z</time>
      </trkpt>
      <trkpt lat="44.33903" lon="4.24048">
        <ele>235.66</ele>
        <time>2013-12-08T09:59:02Z</time>
      </trkpt>
      <trkpt lat="44.33902" lon="4.24046">
        <ele>235.66</ele>
        <time>2013-12-08T09:59:03Z</time>
      </trkpt>
      <trkpt lat="44.3389" lon="4.24015">
        <ele>237.1</ele>
        <time>2013-12-08T09:59:16Z</time>
      </trkpt>
      <trkpt lat="44.33887" lon="4.24003">
        <ele>237.58</ele>
        <time>2013-12-08T09:59:21Z</time>
      </trkpt>
      <trkpt lat="44.33886" lon="4.24">
        <ele>237.58</ele>
        <time>2013-12-08T09:59:22Z</time>
      </trkpt>
      <trkpt lat="44.33885" lon="4.23998">
        <ele>237.58</ele>
        <time>2013-12-08T09:59:23Z</time>
      </trkpt>
      <trkpt lat="44.33885" lon="4.23996">
        <ele>237.58</ele>
        <time>2013-12-08T09:59:24Z</time>
      </trkpt>
      <trkpt lat="44.33884" lon="4.23994">
        <ele>237.58</ele>
        <time>2013-12-08T09:59:25Z</time>
      </trkpt>
      <trkpt lat="44.33883" lon="4.23992">
        <ele>237.58</ele>
        <time>2013-12-08T09:59:26Z</time>
      </trkpt>
      <trkpt lat="44.33882" lon="4.2399">
        <ele>237.58</ele>
        <time>2013-12-08T09:59:27Z</time>
      </trkpt>
      <trkpt lat="44.33882" lon="4.23988">
        <ele>238.06</ele>
        <time>2013-12-08T09:59:28Z</time>
      </trkpt>
      <trkpt lat="44.33881" lon="4.23986">
        <ele>238.06</ele>
        <time>2013-12-08T09:59:29Z</time>
      </trkpt>
      <trkpt lat="44.3388" lon="4.23985">
        <ele>238.06</ele>
        <time>2013-12-08T09:59:30Z</time>
      </trkpt>
      <trkpt lat="44.33879" lon="4.23983">
        <ele>238.06</ele>
        <time>2013-12-08T09:59:31Z</time>
      </trkpt>
      <trkpt lat="44.33879" lon="4.23981">
        <ele>238.06</ele>
        <time>2013-12-08T09:59:32Z</time>
      </trkpt>
      <trkpt lat="44.33878" lon="4.23979">
        <ele>238.06</ele>
        <time>2013-12-08T09:59:33Z</time>
      </trkpt>
      <trkpt lat="44.33877" lon="4.23977">
        <ele>238.06</ele>
        <time>2013-12-08T09:59:34Z</time>
      </trkpt>
      <trkpt lat="44.33867" lon="4.23944">
        <ele>237.58</ele>
        <time>2013-12-08T09:59:48Z</time>
      </trkpt>
      <trkpt lat="44.33867" lon="4.23941">
        <ele>238.06</ele>
        <time>2013-12-08T09:59:50Z</time>
      </trkpt>
      <trkpt lat="44.33872" lon="4.23928">
        <ele>238.06</ele>
        <time>2013-12-08T09:59:57Z</time>
      </trkpt>
      <trkpt lat="44.33872" lon="4.23926">
        <ele>238.06</ele>
        <time>2013-12-08T09:59:58Z</time>
      </trkpt>
      <trkpt lat="44.33872" lon="4.23924">
        <ele>238.54</ele>
        <time>2013-12-08T09:59:59Z</time>
      </trkpt>
      <trkpt lat="44.33873" lon="4.23922">
        <ele>238.54</ele>
        <time>2013-12-08T10:00:00Z</time>
      </trkpt>
      <trkpt lat="44.33873" lon="4.2392">
        <ele>238.54</ele>
        <time>2013-12-08T10:00:01Z</time>
      </trkpt>
      <trkpt lat="44.33873" lon="4.23918">
        <ele>238.54</ele>
        <time>2013-12-08T10:00:02Z</time>
      </trkpt>
      <trkpt lat="44.33873" lon="4.23916">
        <ele>238.54</ele>
        <time>2013-12-08T10:00:03Z</time>
      </trkpt>
      <trkpt lat="44.33873" lon="4.23914">
        <ele>238.54</ele>
        <time>2013-12-08T10:00:04Z</time>
      </trkpt>
      <trkpt lat="44.33873" lon="4.23912">
        <ele>239.02</ele>
        <time>2013-12-08T10:00:05Z</time>
      </trkpt>
      <trkpt lat="44.33872" lon="4.2391">
        <ele>239.02</ele>
        <time>2013-12-08T10:00:06Z</time>
      </trkpt>
      <trkpt lat="44.33873" lon="4.23908">
        <ele>239.02</ele>
        <time>2013-12-08T10:00:07Z</time>
      </trkpt>
      <trkpt lat="44.33873" lon="4.23906">
        <ele>239.51</ele>
        <time>2013-12-08T10:00:08Z</time>
      </trkpt>
      <trkpt lat="44.33874" lon="4.23904">
        <ele>239.51</ele>
        <time>2013-12-08T10:00:09Z</time>
      </trkpt>
      <trkpt lat="44.33875" lon="4.23901">
        <ele>239.51</ele>
        <time>2013-12-08T10:00:10Z</time>
      </trkpt>
      <trkpt lat="44.33875" lon="4.23899">
        <ele>239.99</ele>
        <time>2013-12-08T10:00:11Z</time>
      </trkpt>
      <trkpt lat="44.33875" lon="4.23897">
        <ele>239.51</ele>
        <time>2013-12-08T10:00:12Z</time>
      </trkpt>
      <trkpt lat="44.33875" lon="4.2389">
        <ele>239.99</ele>
        <time>2013-12-08T10:00:15Z</time>
      </trkpt>
      <trkpt lat="44.33874" lon="4.23888">
        <ele>239.99</ele>
        <time>2013-12-08T10:00:16Z</time>
      </trkpt>
      <trkpt lat="44.33855" lon="4.23869">
        <ele>241.43</ele>
        <time>2013-12-08T10:00:29Z</time>
      </trkpt>
      <trkpt lat="44.33851" lon="4.23871">
        <ele>241.43</ele>
        <time>2013-12-08T10:00:31Z</time>
      </trkpt>
      <trkpt lat="44.3385" lon="4.23872">
        <ele>241.91</ele>
        <time>2013-12-08T10:00:32Z</time>
      </trkpt>
      <trkpt lat="44.33848" lon="4.23873">
        <ele>241.91</ele>
        <time>2013-12-08T10:00:33Z</time>
      </trkpt>
      <trkpt lat="44.33847" lon="4.23873">
        <ele>242.39</ele>
        <time>2013-12-08T10:00:34Z</time>
      </trkpt>
      <trkpt lat="44.33845" lon="4.23873">
        <ele>242.39</ele>
        <time>2013-12-08T10:00:35Z</time>
      </trkpt>
      <trkpt lat="44.33843" lon="4.23872">
        <ele>242.39</ele>
        <time>2013-12-08T10:00:36Z</time>
      </trkpt>
      <trkpt lat="44.33841" lon="4.23872">
        <ele>242.87</ele>
        <time>2013-12-08T10:00:37Z</time>
      </trkpt>
      <trkpt lat="44.3384" lon="4.23871">
        <ele>242.39</ele>
        <time>2013-12-08T10:00:38Z</time>
      </trkpt>
      <trkpt lat="44.33838" lon="4.2387">
        <ele>242.87</ele>
        <time>2013-12-08T10:00:39Z</time>
      </trkpt>
      <trkpt lat="44.33837" lon="4.23869">
        <ele>242.87</ele>
        <time>2013-12-08T10:00:40Z</time>
      </trkpt>
      <trkpt lat="44.33836" lon="4.23867">
        <ele>243.35</ele>
        <time>2013-12-08T10:00:41Z</time>
      </trkpt>
      <trkpt lat="44.33826" lon="4.23855">
        <ele>244.79</ele>
        <time>2013-12-08T10:00:50Z</time>
      </trkpt>
      <trkpt lat="44.33825" lon="4.23854">
        <ele>245.27</ele>
        <time>2013-12-08T10:00:51Z</time>
      </trkpt>
      <trkpt lat="44.33824" lon="4.23853">
        <ele>245.27</ele>
        <time>2013-12-08T10:00:52Z</time>
      </trkpt>
      <trkpt lat="44.33817" lon="4.23845">
        <ele>246.72</ele>
        <time>2013-12-08T10:00:59Z</time>
      </trkpt>
      <trkpt lat="44.33807" lon="4.23836">
        <ele>248.16</ele>
        <time>2013-12-08T10:01:09Z</time>
      </trkpt>
      <trkpt lat="44.33806" lon="4.23835">
        <ele>248.16</ele>
        <time>2013-12-08T10:01:10Z</time>
      </trkpt>
      <trkpt lat="44.33801" lon="4.23832">
        <ele>249.12</ele>
        <time>2013-12-08T10:01:21Z</time>
      </trkpt>
      <trkpt lat="44.33801" lon="4.23832">
        <ele>249.12</ele>
        <time>2013-12-08T10:01:22Z</time>
      </trkpt>
      <trkpt lat="44.33788" lon="4.23812">
        <ele>251.52</ele>
        <time>2013-12-08T10:01:35Z</time>
      </trkpt>
      <trkpt lat="44.33787" lon="4.23811">
        <ele>252</ele>
        <time>2013-12-08T10:01:36Z</time>
      </trkpt>
      <trkpt lat="44.33785" lon="4.23809">
        <ele>252.48</ele>
        <time>2013-12-08T10:01:38Z</time>
      </trkpt>
      <trkpt lat="44.33784" lon="4.23808">
        <ele>252.48</ele>
        <time>2013-12-08T10:01:39Z</time>
      </trkpt>
      <trkpt lat="44.33781" lon="4.23803">
        <ele>252.96</ele>
        <time>2013-12-08T10:01:42Z</time>
      </trkpt>
      <trkpt lat="44.33781" lon="4.23801">
        <ele>252.96</ele>
        <time>2013-12-08T10:01:43Z</time>
      </trkpt>
      <trkpt lat="44.33781" lon="4.23798">
        <ele>252.96</ele>
        <time>2013-12-08T10:01:44Z</time>
      </trkpt>
      <trkpt lat="44.33779" lon="4.23795">
        <ele>253.44</ele>
        <time>2013-12-08T10:01:46Z</time>
      </trkpt>
      <trkpt lat="44.33778" lon="4.23794">
        <ele>253.93</ele>
        <time>2013-12-08T10:01:47Z</time>
      </trkpt>
      <trkpt lat="44.33765" lon="4.2378">
        <ele>254.89</ele>
        <time>2013-12-08T10:01:59Z</time>
      </trkpt>
      <trkpt lat="44.33764" lon="4.23779">
        <ele>254.89</ele>
        <time>2013-12-08T10:02:00Z</time>
      </trkpt>
      <trkpt lat="44.33763" lon="4.23778">
        <ele>255.37</ele>
        <time>2013-12-08T10:02:01Z</time>
      </trkpt>
      <trkpt lat="44.33758" lon="4.23775">
        <ele>255.85</ele>
        <time>2013-12-08T10:02:13Z</time>
      </trkpt>
      <trkpt lat="44.33752" lon="4.23765">
        <ele>256.81</ele>
        <time>2013-12-08T10:02:21Z</time>
      </trkpt>
      <trkpt lat="44.33751" lon="4.23763">
        <ele>256.81</ele>
        <time>2013-12-08T10:02:22Z</time>
      </trkpt>
      <trkpt lat="44.33751" lon="4.23761">
        <ele>257.29</ele>
        <time>2013-12-08T10:02:23Z</time>
      </trkpt>
      <trkpt lat="44.33751" lon="4.23759">
        <ele>257.29</ele>
        <time>2013-12-08T10:02:24Z</time>
      </trkpt>
      <trkpt lat="44.33751" lon="4.23757">
        <ele>257.29</ele>
        <time>2013-12-08T10:02:25Z</time>
      </trkpt>
      <trkpt lat="44.33751" lon="4.23755">
        <ele>257.29</ele>
        <time>2013-12-08T10:02:26Z</time>
      </trkpt>
      <trkpt lat="44.3375" lon="4.23753">
        <ele>257.77</ele>
        <time>2013-12-08T10:02:27Z</time>
      </trkpt>
      <trkpt lat="44.33748" lon="4.23741">
        <ele>258.25</ele>
        <time>2013-12-08T10:02:33Z</time>
      </trkpt>
      <trkpt lat="44.33747" lon="4.2374">
        <ele>258.73</ele>
        <time>2013-12-08T10:02:34Z</time>
      </trkpt>
      <trkpt lat="44.33744" lon="4.23734">
        <ele>259.21</ele>
        <time>2013-12-08T10:02:39Z</time>
      </trkpt>
      <trkpt lat="44.33741" lon="4.2373">
        <ele>260.17</ele>
        <time>2013-12-08T10:02:42Z</time>
      </trkpt>
      <trkpt lat="44.33735" lon="4.23722">
        <ele>261.14</ele>
        <time>2013-12-08T10:02:51Z</time>
      </trkpt>
      <trkpt lat="44.33727" lon="4.23711">
        <ele>262.1</ele>
        <time>2013-12-08T10:03:03Z</time>
      </trkpt>
      <trkpt lat="44.33725" lon="4.23709">
        <ele>262.58</ele>
        <time>2013-12-08T10:03:05Z</time>
      </trkpt>
      <trkpt lat="44.33714" lon="4.23701">
        <ele>264.02</ele>
        <time>2013-12-08T10:03:14Z</time>
      </trkpt>
      <trkpt lat="44.33697" lon="4.23692">
        <ele>265.94</ele>
        <time>2013-12-08T10:03:28Z</time>
      </trkpt>
      <trkpt lat="44.33696" lon="4.23692">
        <ele>265.94</ele>
        <time>2013-12-08T10:03:29Z</time>
      </trkpt>
      <trkpt lat="44.33693" lon="4.23691">
        <ele>266.9</ele>
        <time>2013-12-08T10:03:37Z</time>
      </trkpt>
      <trkpt lat="44.33689" lon="4.23689">
        <ele>267.38</ele>
        <time>2013-12-08T10:03:45Z</time>
      </trkpt>
      <trkpt lat="44.33686" lon="4.23687">
        <ele>267.86</ele>
        <time>2013-12-08T10:03:55Z</time>
      </trkpt>
      <trkpt lat="44.3368" lon="4.23685">
        <ele>268.83</ele>
        <time>2013-12-08T10:04:08Z</time>
      </trkpt>
      <trkpt lat="44.33672" lon="4.23682">
        <ele>269.79</ele>
        <time>2013-12-08T10:04:19Z</time>
      </trkpt>
      <trkpt lat="44.33668" lon="4.23679">
        <ele>270.27</ele>
        <time>2013-12-08T10:04:22Z</time>
      </trkpt>
      <trkpt lat="44.33649" lon="4.23672">
        <ele>271.23</ele>
        <time>2013-12-08T10:04:34Z</time>
      </trkpt>
      <trkpt lat="44.3364" lon="4.23665">
        <ele>272.19</ele>
        <time>2013-12-08T10:04:41Z</time>
      </trkpt>
      <trkpt lat="44.33631" lon="4.23662">
        <ele>272.67</ele>
        <time>2013-12-08T10:04:46Z</time>
      </trkpt>
      <trkpt lat="44.33616" lon="4.23658">
        <ele>273.63</ele>
        <time>2013-12-08T10:04:56Z</time>
      </trkpt>
      <trkpt lat="44.33604" lon="4.23654">
        <ele>271.23</ele>
        <time>2013-12-08T10:05:09Z</time>
      </trkpt>
      <trkpt lat="44.33604" lon="4.23654">
        <ele>273.63</ele>
        <time>2013-12-08T10:05:10Z</time>
      </trkpt>
      <trkpt lat="44.33604" lon="4.23652">
        <ele>274.59</ele>
        <time>2013-12-08T10:08:51Z</time>
      </trkpt>
      <trkpt lat="44.33603" lon="4.23652">
        <ele>274.11</ele>
        <time>2013-12-08T10:08:52Z</time>
      </trkpt>
      <trkpt lat="44.336" lon="4.23652">
        <ele>274.11</ele>
        <time>2013-12-08T10:08:57Z</time>
      </trkpt>
      <trkpt lat="44.3359" lon="4.23646">
        <ele>276.04</ele>
        <time>2013-12-08T10:09:07Z</time>
      </trkpt>
      <trkpt lat="44.33572" lon="4.23636">
        <ele>277.48</ele>
        <time>2013-12-08T10:09:19Z</time>
      </trkpt>
      <trkpt lat="44.33548" lon="4.23619">
        <ele>278.92</ele>
        <time>2013-12-08T10:09:34Z</time>
      </trkpt>
      <trkpt lat="44.33532" lon="4.23606">
        <ele>279.88</ele>
        <time>2013-12-08T10:09:44Z</time>
      </trkpt>
      <trkpt lat="44.33512" lon="4.23589">
        <ele>281.8</ele>
        <time>2013-12-08T10:09:58Z</time>
      </trkpt>
      <trkpt lat="44.33496" lon="4.23575">
        <ele>282.28</ele>
        <time>2013-12-08T10:10:08Z</time>
      </trkpt>
      <trkpt lat="44.33471" lon="4.23552">
        <ele>284.21</ele>
        <time>2013-12-08T10:10:22Z</time>
      </trkpt>
      <trkpt lat="44.33444" lon="4.23527">
        <ele>282.77</ele>
        <time>2013-12-08T10:10:36Z</time>
      </trkpt>
      <trkpt lat="44.33424" lon="4.23504">
        <ele>281.8</ele>
        <time>2013-12-08T10:10:44Z</time>
      </trkpt>
      <trkpt lat="44.33421" lon="4.23499">
        <ele>281.8</ele>
        <time>2013-12-08T10:10:45Z</time>
      </trkpt>
      <trkpt lat="44.33418" lon="4.23495">
        <ele>281.32</ele>
        <time>2013-12-08T10:10:46Z</time>
      </trkpt>
      <trkpt lat="44.33416" lon="4.23489">
        <ele>281.32</ele>
        <time>2013-12-08T10:10:47Z</time>
      </trkpt>
      <trkpt lat="44.33413" lon="4.23484">
        <ele>280.84</ele>
        <time>2013-12-08T10:10:48Z</time>
      </trkpt>
      <trkpt lat="44.33411" lon="4.2348">
        <ele>281.32</ele>
        <time>2013-12-08T10:10:49Z</time>
      </trkpt>
      <trkpt lat="44.33409" lon="4.23475">
        <ele>280.84</ele>
        <time>2013-12-08T10:10:50Z</time>
      </trkpt>
      <trkpt lat="44.33406" lon="4.23471">
        <ele>280.84</ele>
        <time>2013-12-08T10:10:51Z</time>
      </trkpt>
      <trkpt lat="44.33404" lon="4.23467">
        <ele>280.84</ele>
        <time>2013-12-08T10:10:52Z</time>
      </trkpt>
      <trkpt lat="44.33402" lon="4.23466">
        <ele>280.84</ele>
        <time>2013-12-08T10:10:53Z</time>
      </trkpt>
      <trkpt lat="44.33401" lon="4.23464">
        <ele>281.32</ele>
        <time>2013-12-08T10:11:03Z</time>
      </trkpt>
      <trkpt lat="44.334" lon="4.23465">
        <ele>280.84</ele>
        <time>2013-12-08T10:11:08Z</time>
      </trkpt>
      <trkpt lat="44.33399" lon="4.23467">
        <ele>280.84</ele>
        <time>2013-12-08T10:11:09Z</time>
      </trkpt>
      <trkpt lat="44.33398" lon="4.23469">
        <ele>280.84</ele>
        <time>2013-12-08T10:11:10Z</time>
      </trkpt>
      <trkpt lat="44.33376" lon="4.2351">
        <ele>280.36</ele>
        <time>2013-12-08T10:11:24Z</time>
      </trkpt>
      <trkpt lat="44.33367" lon="4.23535">
        <ele>281.32</ele>
        <time>2013-12-08T10:11:33Z</time>
      </trkpt>
      <trkpt lat="44.33365" lon="4.23542">
        <ele>282.28</ele>
        <time>2013-12-08T10:11:36Z</time>
      </trkpt>
      <trkpt lat="44.33354" lon="4.23565">
        <ele>285.65</ele>
        <time>2013-12-08T10:11:48Z</time>
      </trkpt>
      <trkpt lat="44.33353" lon="4.23569">
        <ele>286.13</ele>
        <time>2013-12-08T10:11:56Z</time>
      </trkpt>
      <trkpt lat="44.33354" lon="4.23568">
        <ele>286.13</ele>
        <time>2013-12-08T10:12:09Z</time>
      </trkpt>
      <trkpt lat="44.33354" lon="4.23565">
        <ele>285.65</ele>
        <time>2013-12-08T10:12:20Z</time>
      </trkpt>
      <trkpt lat="44.33351" lon="4.23563">
        <ele>285.65</ele>
        <time>2013-12-08T10:12:23Z</time>
      </trkpt>
      <trkpt lat="44.33347" lon="4.23559">
        <ele>286.13</ele>
        <time>2013-12-08T10:12:27Z</time>
      </trkpt>
      <trkpt lat="44.33339" lon="4.23555">
        <ele>286.61</ele>
        <time>2013-12-08T10:12:33Z</time>
      </trkpt>
      <trkpt lat="44.33315" lon="4.23551">
        <ele>287.57</ele>
        <time>2013-12-08T10:12:48Z</time>
      </trkpt>
      <trkpt lat="44.33288" lon="4.23544">
        <ele>288.05</ele>
        <time>2013-12-08T10:13:02Z</time>
      </trkpt>
      <trkpt lat="44.33261" lon="4.2354">
        <ele>289.01</ele>
        <time>2013-12-08T10:13:13Z</time>
      </trkpt>
      <trkpt lat="44.33244" lon="4.23539">
        <ele>289.01</ele>
        <time>2013-12-08T10:13:22Z</time>
      </trkpt>
      <trkpt lat="44.33237" lon="4.23537">
        <ele>289.49</ele>
        <time>2013-12-08T10:13:25Z</time>
      </trkpt>
      <trkpt lat="44.33208" lon="4.23543">
        <ele>289.01</ele>
        <time>2013-12-08T10:13:37Z</time>
      </trkpt>
      <trkpt lat="44.33184" lon="4.23545">
        <ele>290.46</ele>
        <time>2013-12-08T10:13:47Z</time>
      </trkpt>
      <trkpt lat="44.33168" lon="4.23534">
        <ele>290.46</ele>
        <time>2013-12-08T10:13:58Z</time>
      </trkpt>
      <trkpt lat="44.33166" lon="4.23535">
        <ele>290.46</ele>
        <time>2013-12-08T10:14:04Z</time>
      </trkpt>
      <trkpt lat="44.33147" lon="4.2353">
        <ele>290.46</ele>
        <time>2013-12-08T10:14:14Z</time>
      </trkpt>
      <trkpt lat="44.33137" lon="4.23525">
        <ele>289.49</ele>
        <time>2013-12-08T10:14:19Z</time>
      </trkpt>
      <trkpt lat="44.33131" lon="4.23526">
        <ele>289.49</ele>
        <time>2013-12-08T10:14:28Z</time>
      </trkpt>
      <trkpt lat="44.33134" lon="4.23524">
        <ele>289.49</ele>
        <time>2013-12-08T10:14:41Z</time>
      </trkpt>
      <trkpt lat="44.33131" lon="4.23525">
        <ele>289.49</ele>
        <time>2013-12-08T10:14:54Z</time>
      </trkpt>
      <trkpt lat="44.33126" lon="4.23521">
        <ele>288.53</ele>
        <time>2013-12-08T10:15:04Z</time>
      </trkpt>
      <trkpt lat="44.33125" lon="4.23519">
        <ele>288.53</ele>
        <time>2013-12-08T10:15:12Z</time>
      </trkpt>
      <trkpt lat="44.33121" lon="4.23516">
        <ele>288.53</ele>
        <time>2013-12-08T10:15:21Z</time>
      </trkpt>
      <trkpt lat="44.33113" lon="4.23517">
        <ele>289.49</ele>
        <time>2013-12-08T10:15:31Z</time>
      </trkpt>
      <trkpt lat="44.33108" lon="4.23516">
        <ele>288.53</ele>
        <time>2013-12-08T10:15:41Z</time>
      </trkpt>
      <trkpt lat="44.33098" lon="4.23501">
        <ele>287.09</ele>
        <time>2013-12-08T10:15:47Z</time>
      </trkpt>
      <trkpt lat="44.33092" lon="4.23496">
        <ele>286.61</ele>
        <time>2013-12-08T10:15:50Z</time>
      </trkpt>
      <trkpt lat="44.33092" lon="4.23487">
        <ele>285.65</ele>
        <time>2013-12-08T10:15:53Z</time>
      </trkpt>
      <trkpt lat="44.33084" lon="4.2348">
        <ele>285.17</ele>
        <time>2013-12-08T10:15:58Z</time>
      </trkpt>
      <trkpt lat="44.3308" lon="4.2348">
        <ele>285.65</ele>
        <time>2013-12-08T10:16:01Z</time>
      </trkpt>
      <trkpt lat="44.33074" lon="4.23481">
        <ele>285.17</ele>
        <time>2013-12-08T10:16:12Z</time>
      </trkpt>
      <trkpt lat="44.33074" lon="4.23481">
        <ele>285.17</ele>
        <time>2013-12-08T10:16:36Z</time>
      </trkpt>
      <trkpt lat="44.33074" lon="4.23481">
        <ele>285.17</ele>
        <time>2013-12-08T10:17:03Z</time>
      </trkpt>
      <trkpt lat="44.33071" lon="4.2348">
        <ele>284.69</ele>
        <time>2013-12-08T10:17:06Z</time>
      </trkpt>
      <trkpt lat="44.33056" lon="4.23482">
        <ele>284.21</ele>
        <time>2013-12-08T10:17:12Z</time>
      </trkpt>
      <trkpt lat="44.33029" lon="4.23487">
        <ele>282.77</ele>
        <time>2013-12-08T10:17:25Z</time>
      </trkpt>
      <trkpt lat="44.33023" lon="4.23489">
        <ele>282.77</ele>
        <time>2013-12-08T10:17:27Z</time>
      </trkpt>
      <trkpt lat="44.3302" lon="4.23493">
        <ele>282.77</ele>
        <time>2013-12-08T10:17:37Z</time>
      </trkpt>
      <trkpt lat="44.33019" lon="4.23492">
        <ele>282.77</ele>
        <time>2013-12-08T10:17:48Z</time>
      </trkpt>
      <trkpt lat="44.33019" lon="4.23492">
        <ele>282.77</ele>
        <time>2013-12-08T10:17:50Z</time>
      </trkpt>
      <trkpt lat="44.33015" lon="4.23488">
        <ele>282.28</ele>
        <time>2013-12-08T10:17:54Z</time>
      </trkpt>
      <trkpt lat="44.33003" lon="4.23479">
        <ele>281.8</ele>
        <time>2013-12-08T10:17:59Z</time>
      </trkpt>
      <trkpt lat="44.32985" lon="4.23453">
        <ele>280.36</ele>
        <time>2013-12-08T10:18:09Z</time>
      </trkpt>
      <trkpt lat="44.32973" lon="4.23445">
        <ele>278.44</ele>
        <time>2013-12-08T10:18:13Z</time>
      </trkpt>
      <trkpt lat="44.32964" lon="4.23438">
        <ele>277</ele>
        <time>2013-12-08T10:18:15Z</time>
      </trkpt>
      <trkpt lat="44.32956" lon="4.23431">
        <ele>275.56</ele>
        <time>2013-12-08T10:18:17Z</time>
      </trkpt>
      <trkpt lat="44.32952" lon="4.23428">
        <ele>275.07</ele>
        <time>2013-12-08T10:18:18Z</time>
      </trkpt>
      <trkpt lat="44.32948" lon="4.23425">
        <ele>274.59</ele>
        <time>2013-12-08T10:18:19Z</time>
      </trkpt>
      <trkpt lat="44.32944" lon="4.23422">
        <ele>273.63</ele>
        <time>2013-12-08T10:18:20Z</time>
      </trkpt>
      <trkpt lat="44.3294" lon="4.2342">
        <ele>273.15</ele>
        <time>2013-12-08T10:18:21Z</time>
      </trkpt>
      <trkpt lat="44.32937" lon="4.23418">
        <ele>272.19</ele>
        <time>2013-12-08T10:18:22Z</time>
      </trkpt>
      <trkpt lat="44.32934" lon="4.23416">
        <ele>271.71</ele>
        <time>2013-12-08T10:18:23Z</time>
      </trkpt>
      <trkpt lat="44.32932" lon="4.23413">
        <ele>271.23</ele>
        <time>2013-12-08T10:18:24Z</time>
      </trkpt>
      <trkpt lat="44.32931" lon="4.23408">
        <ele>270.75</ele>
        <time>2013-12-08T10:18:25Z</time>
      </trkpt>
      <trkpt lat="44.32931" lon="4.23404">
        <ele>270.75</ele>
        <time>2013-12-08T10:18:26Z</time>
      </trkpt>
      <trkpt lat="44.32932" lon="4.23399">
        <ele>270.75</ele>
        <time>2013-12-08T10:18:27Z</time>
      </trkpt>
      <trkpt lat="44.32932" lon="4.23395">
        <ele>270.75</ele>
        <time>2013-12-08T10:18:28Z</time>
      </trkpt>
      <trkpt lat="44.32933" lon="4.23392">
        <ele>270.75</ele>
        <time>2013-12-08T10:18:29Z</time>
      </trkpt>
      <trkpt lat="44.32933" lon="4.23388">
        <ele>270.75</ele>
        <time>2013-12-08T10:18:30Z</time>
      </trkpt>
      <trkpt lat="44.32937" lon="4.2335">
        <ele>269.79</ele>
        <time>2013-12-08T10:18:41Z</time>
      </trkpt>
      <trkpt lat="44.32943" lon="4.23311">
        <ele>267.86</ele>
        <time>2013-12-08T10:18:50Z</time>
      </trkpt>
      <trkpt lat="44.32941" lon="4.23307">
        <ele>266.9</ele>
        <time>2013-12-08T10:18:51Z</time>
      </trkpt>
      <trkpt lat="44.32939" lon="4.23305">
        <ele>266.42</ele>
        <time>2013-12-08T10:18:52Z</time>
      </trkpt>
      <trkpt lat="44.32936" lon="4.23303">
        <ele>265.94</ele>
        <time>2013-12-08T10:18:53Z</time>
      </trkpt>
      <trkpt lat="44.32934" lon="4.23301">
        <ele>265.46</ele>
        <time>2013-12-08T10:18:54Z</time>
      </trkpt>
      <trkpt lat="44.32924" lon="4.23292">
        <ele>264.02</ele>
        <time>2013-12-08T10:18:57Z</time>
      </trkpt>
      <trkpt lat="44.32904" lon="4.23274">
        <ele>259.69</ele>
        <time>2013-12-08T10:19:01Z</time>
      </trkpt>
      <trkpt lat="44.32887" lon="4.23259">
        <ele>255.85</ele>
        <time>2013-12-08T10:19:04Z</time>
      </trkpt>
      <trkpt lat="44.32875" lon="4.2325">
        <ele>253.44</ele>
        <time>2013-12-08T10:19:06Z</time>
      </trkpt>
      <trkpt lat="44.3287" lon="4.23248">
        <ele>252.48</ele>
        <time>2013-12-08T10:19:07Z</time>
      </trkpt>
      <trkpt lat="44.32864" lon="4.23244">
        <ele>251.52</ele>
        <time>2013-12-08T10:19:08Z</time>
      </trkpt>
      <trkpt lat="44.32859" lon="4.2324">
        <ele>250.56</ele>
        <time>2013-12-08T10:19:09Z</time>
      </trkpt>
      <trkpt lat="44.32853" lon="4.23236">
        <ele>249.12</ele>
        <time>2013-12-08T10:19:10Z</time>
      </trkpt>
      <trkpt lat="44.32847" lon="4.23232">
        <ele>248.16</ele>
        <time>2013-12-08T10:19:11Z</time>
      </trkpt>
      <trkpt lat="44.32841" lon="4.23228">
        <ele>247.2</ele>
        <time>2013-12-08T10:19:12Z</time>
      </trkpt>
      <trkpt lat="44.32827" lon="4.23217">
        <ele>244.79</ele>
        <time>2013-12-08T10:19:15Z</time>
      </trkpt>
      <trkpt lat="44.32824" lon="4.23211">
        <ele>244.31</ele>
        <time>2013-12-08T10:19:16Z</time>
      </trkpt>
      <trkpt lat="44.3282" lon="4.23204">
        <ele>242.87</ele>
        <time>2013-12-08T10:19:17Z</time>
      </trkpt>
      <trkpt lat="44.32815" lon="4.232">
        <ele>241.91</ele>
        <time>2013-12-08T10:19:18Z</time>
      </trkpt>
      <trkpt lat="44.3281" lon="4.23197">
        <ele>240.95</ele>
        <time>2013-12-08T10:19:19Z</time>
      </trkpt>
      <trkpt lat="44.32806" lon="4.23195">
        <ele>240.47</ele>
        <time>2013-12-08T10:19:20Z</time>
      </trkpt>
      <trkpt lat="44.32804" lon="4.23194">
        <ele>239.99</ele>
        <time>2013-12-08T10:19:21Z</time>
      </trkpt>
      <trkpt lat="44.32803" lon="4.23194">
        <ele>239.51</ele>
        <time>2013-12-08T10:19:30Z</time>
      </trkpt>
      <trkpt lat="44.32804" lon="4.23192">
        <ele>239.51</ele>
        <time>2013-12-08T10:19:40Z</time>
      </trkpt>
      <trkpt lat="44.32801" lon="4.23184">
        <ele>239.02</ele>
        <time>2013-12-08T10:19:43Z</time>
      </trkpt>
      <trkpt lat="44.32797" lon="4.2318">
        <ele>238.54</ele>
        <time>2013-12-08T10:19:47Z</time>
      </trkpt>
      <trkpt lat="44.32794" lon="4.23183">
        <ele>238.54</ele>
        <time>2013-12-08T10:19:51Z</time>
      </trkpt>
      <trkpt lat="44.32777" lon="4.23174">
        <ele>236.62</ele>
        <time>2013-12-08T10:19:57Z</time>
      </trkpt>
      <trkpt lat="44.32774" lon="4.23171">
        <ele>236.62</ele>
        <time>2013-12-08T10:19:58Z</time>
      </trkpt>
      <trkpt lat="44.32749" lon="4.23154">
        <ele>235.18</ele>
        <time>2013-12-08T10:20:04Z</time>
      </trkpt>
      <trkpt lat="44.32745" lon="4.23151">
        <ele>234.7</ele>
        <time>2013-12-08T10:20:05Z</time>
      </trkpt>
      <trkpt lat="44.32741" lon="4.2315">
        <ele>234.7</ele>
        <time>2013-12-08T10:20:06Z</time>
      </trkpt>
      <trkpt lat="44.32738" lon="4.2315">
        <ele>235.18</ele>
        <time>2013-12-08T10:20:07Z</time>
      </trkpt>
      <trkpt lat="44.32735" lon="4.23152">
        <ele>235.18</ele>
        <time>2013-12-08T10:20:08Z</time>
      </trkpt>
      <trkpt lat="44.32733" lon="4.23154">
        <ele>235.18</ele>
        <time>2013-12-08T10:20:09Z</time>
      </trkpt>
      <trkpt lat="44.3273" lon="4.23155">
        <ele>235.66</ele>
        <time>2013-12-08T10:20:10Z</time>
      </trkpt>
      <trkpt lat="44.32705" lon="4.2316">
        <ele>235.18</ele>
        <time>2013-12-08T10:20:19Z</time>
      </trkpt>
      <trkpt lat="44.32689" lon="4.23155">
        <ele>233.26</ele>
        <time>2013-12-08T10:20:23Z</time>
      </trkpt>
      <trkpt lat="44.32685" lon="4.23153">
        <ele>233.26</ele>
        <time>2013-12-08T10:20:24Z</time>
      </trkpt>
      <trkpt lat="44.32671" lon="4.23145">
        <ele>231.33</ele>
        <time>2013-12-08T10:20:27Z</time>
      </trkpt>
      <trkpt lat="44.3266" lon="4.23147">
        <ele>229.89</ele>
        <time>2013-12-08T10:20:29Z</time>
      </trkpt>
      <trkpt lat="44.32654" lon="4.23148">
        <ele>229.41</ele>
        <time>2013-12-08T10:20:30Z</time>
      </trkpt>
      <trkpt lat="44.32648" lon="4.23147">
        <ele>228.45</ele>
        <time>2013-12-08T10:20:31Z</time>
      </trkpt>
      <trkpt lat="44.32642" lon="4.23147">
        <ele>227.97</ele>
        <time>2013-12-08T10:20:32Z</time>
      </trkpt>
      <trkpt lat="44.32639" lon="4.23149">
        <ele>227.49</ele>
        <time>2013-12-08T10:20:33Z</time>
      </trkpt>
      <trkpt lat="44.32636" lon="4.23151">
        <ele>227.01</ele>
        <time>2013-12-08T10:20:34Z</time>
      </trkpt>
      <trkpt lat="44.32634" lon="4.23155">
        <ele>226.53</ele>
        <time>2013-12-08T10:20:35Z</time>
      </trkpt>
      <trkpt lat="44.32632" lon="4.23159">
        <ele>226.53</ele>
        <time>2013-12-08T10:20:36Z</time>
      </trkpt>
      <trkpt lat="44.32631" lon="4.23163">
        <ele>226.05</ele>
        <time>2013-12-08T10:20:37Z</time>
      </trkpt>
      <trkpt lat="44.3263" lon="4.23167">
        <ele>225.57</ele>
        <time>2013-12-08T10:20:38Z</time>
      </trkpt>
      <trkpt lat="44.3262" lon="4.23195">
        <ele>223.16</ele>
        <time>2013-12-08T10:20:46Z</time>
      </trkpt>
      <trkpt lat="44.3261" lon="4.23211">
        <ele>221.72</ele>
        <time>2013-12-08T10:20:57Z</time>
      </trkpt>
      <trkpt lat="44.32602" lon="4.23214">
        <ele>220.76</ele>
        <time>2013-12-08T10:20:59Z</time>
      </trkpt>
      <trkpt lat="44.32598" lon="4.23215">
        <ele>220.28</ele>
        <time>2013-12-08T10:21:00Z</time>
      </trkpt>
      <trkpt lat="44.32595" lon="4.23214">
        <ele>219.32</ele>
        <time>2013-12-08T10:21:01Z</time>
      </trkpt>
      <trkpt lat="44.32593" lon="4.23213">
        <ele>218.84</ele>
        <time>2013-12-08T10:21:09Z</time>
      </trkpt>
      <trkpt lat="44.32593" lon="4.23213">
        <ele>218.84</ele>
        <time>2013-12-08T10:21:32Z</time>
      </trkpt>
      <trkpt lat="44.32593" lon="4.23213">
        <ele>218.84</ele>
        <time>2013-12-08T10:21:54Z</time>
      </trkpt>
      <trkpt lat="44.3259" lon="4.23208">
        <ele>218.36</ele>
        <time>2013-12-08T10:22:19Z</time>
      </trkpt>
      <trkpt lat="44.3259" lon="4.23206">
        <ele>218.36</ele>
        <time>2013-12-08T10:22:20Z</time>
      </trkpt>
      <trkpt lat="44.32589" lon="4.23203">
        <ele>218.36</ele>
        <time>2013-12-08T10:22:21Z</time>
      </trkpt>
      <trkpt lat="44.32589" lon="4.232">
        <ele>218.36</ele>
        <time>2013-12-08T10:22:22Z</time>
      </trkpt>
      <trkpt lat="44.32589" lon="4.23198">
        <ele>218.36</ele>
        <time>2013-12-08T10:22:23Z</time>
      </trkpt>
      <trkpt lat="44.32589" lon="4.23195">
        <ele>218.36</ele>
        <time>2013-12-08T10:22:24Z</time>
      </trkpt>
      <trkpt lat="44.32588" lon="4.23192">
        <ele>218.36</ele>
        <time>2013-12-08T10:22:25Z</time>
      </trkpt>
      <trkpt lat="44.32587" lon="4.23189">
        <ele>218.36</ele>
        <time>2013-12-08T10:22:26Z</time>
      </trkpt>
      <trkpt lat="44.32586" lon="4.23185">
        <ele>217.88</ele>
        <time>2013-12-08T10:22:27Z</time>
      </trkpt>
      <trkpt lat="44.32586" lon="4.23182">
        <ele>217.88</ele>
        <time>2013-12-08T10:22:28Z</time>
      </trkpt>
      <trkpt lat="44.32585" lon="4.23179">
        <ele>217.88</ele>
        <time>2013-12-08T10:22:29Z</time>
      </trkpt>
      <trkpt lat="44.32585" lon="4.23175">
        <ele>217.88</ele>
        <time>2013-12-08T10:22:30Z</time>
      </trkpt>
      <trkpt lat="44.32571" lon="4.2313">
        <ele>216.91</ele>
        <time>2013-12-08T10:22:42Z</time>
      </trkpt>
      <trkpt lat="44.32562" lon="4.23074">
        <ele>216.91</ele>
        <time>2013-12-08T10:22:55Z</time>
      </trkpt>
      <trkpt lat="44.32552" lon="4.22995">
        <ele>214.99</ele>
        <time>2013-12-08T10:23:11Z</time>
      </trkpt>
      <trkpt lat="44.32553" lon="4.22946">
        <ele>212.59</ele>
        <time>2013-12-08T10:23:22Z</time>
      </trkpt>
      <trkpt lat="44.32549" lon="4.22903">
        <ele>209.22</ele>
        <time>2013-12-08T10:23:29Z</time>
      </trkpt>
      <trkpt lat="44.32545" lon="4.22889">
        <ele>207.78</ele>
        <time>2013-12-08T10:23:31Z</time>
      </trkpt>
      <trkpt lat="44.32543" lon="4.22882">
        <ele>207.3</ele>
        <time>2013-12-08T10:23:32Z</time>
      </trkpt>
      <trkpt lat="44.3254" lon="4.22875">
        <ele>206.82</ele>
        <time>2013-12-08T10:23:33Z</time>
      </trkpt>
      <trkpt lat="44.32536" lon="4.22869">
        <ele>206.34</ele>
        <time>2013-12-08T10:23:34Z</time>
      </trkpt>
      <trkpt lat="44.32532" lon="4.22863">
        <ele>206.34</ele>
        <time>2013-12-08T10:23:35Z</time>
      </trkpt>
      <trkpt lat="44.32528" lon="4.22858">
        <ele>206.82</ele>
        <time>2013-12-08T10:23:36Z</time>
      </trkpt>
      <trkpt lat="44.32509" lon="4.22821">
        <ele>208.74</ele>
        <time>2013-12-08T10:23:46Z</time>
      </trkpt>
      <trkpt lat="44.32499" lon="4.22775">
        <ele>208.26</ele>
        <time>2013-12-08T10:23:57Z</time>
      </trkpt>
      <trkpt lat="44.3249" lon="4.22716">
        <ele>206.34</ele>
        <time>2013-12-08T10:24:09Z</time>
      </trkpt>
      <trkpt lat="44.32486" lon="4.2268">
        <ele>202.98</ele>
        <time>2013-12-08T10:24:14Z</time>
      </trkpt>
      <trkpt lat="44.32485" lon="4.22674">
        <ele>202.01</ele>
        <time>2013-12-08T10:24:15Z</time>
      </trkpt>
      <trkpt lat="44.32483" lon="4.22669">
        <ele>201.53</ele>
        <time>2013-12-08T10:24:16Z</time>
      </trkpt>
      <trkpt lat="44.3248" lon="4.22666">
        <ele>201.05</ele>
        <time>2013-12-08T10:24:17Z</time>
      </trkpt>
      <trkpt lat="44.32477" lon="4.22664">
        <ele>201.05</ele>
        <time>2013-12-08T10:24:18Z</time>
      </trkpt>
      <trkpt lat="44.32474" lon="4.22665">
        <ele>200.57</ele>
        <time>2013-12-08T10:24:19Z</time>
      </trkpt>
      <trkpt lat="44.32472" lon="4.22666">
        <ele>200.57</ele>
        <time>2013-12-08T10:24:20Z</time>
      </trkpt>
      <trkpt lat="44.3247" lon="4.22668">
        <ele>200.57</ele>
        <time>2013-12-08T10:24:21Z</time>
      </trkpt>
      <trkpt lat="44.32468" lon="4.2267">
        <ele>200.57</ele>
        <time>2013-12-08T10:24:22Z</time>
      </trkpt>
      <trkpt lat="44.32467" lon="4.22673">
        <ele>200.57</ele>
        <time>2013-12-08T10:24:23Z</time>
      </trkpt>
      <trkpt lat="44.32466" lon="4.22675">
        <ele>200.57</ele>
        <time>2013-12-08T10:24:24Z</time>
      </trkpt>
      <trkpt lat="44.32465" lon="4.22678">
        <ele>200.57</ele>
        <time>2013-12-08T10:24:31Z</time>
      </trkpt>
      <trkpt lat="44.32465" lon="4.2268">
        <ele>200.57</ele>
        <time>2013-12-08T10:24:32Z</time>
      </trkpt>
      <trkpt lat="44.32464" lon="4.22682">
        <ele>200.57</ele>
        <time>2013-12-08T10:24:33Z</time>
      </trkpt>
      <trkpt lat="44.32463" lon="4.22684">
        <ele>200.57</ele>
        <time>2013-12-08T10:24:34Z</time>
      </trkpt>
      <trkpt lat="44.32462" lon="4.22686">
        <ele>200.09</ele>
        <time>2013-12-08T10:24:35Z</time>
      </trkpt>
      <trkpt lat="44.32461" lon="4.22689">
        <ele>200.09</ele>
        <time>2013-12-08T10:24:36Z</time>
      </trkpt>
      <trkpt lat="44.32457" lon="4.22695">
        <ele>200.09</ele>
        <time>2013-12-08T10:24:46Z</time>
      </trkpt>
      <trkpt lat="44.32453" lon="4.22701">
        <ele>199.61</ele>
        <time>2013-12-08T10:24:49Z</time>
      </trkpt>
      <trkpt lat="44.3245" lon="4.22702">
        <ele>199.13</ele>
        <time>2013-12-08T10:24:50Z</time>
      </trkpt>
      <trkpt lat="44.32447" lon="4.22705">
        <ele>198.17</ele>
        <time>2013-12-08T10:24:51Z</time>
      </trkpt>
      <trkpt lat="44.32428" lon="4.22722">
        <ele>195.28</ele>
        <time>2013-12-08T10:24:55Z</time>
      </trkpt>
      <trkpt lat="44.32423" lon="4.22726">
        <ele>194.8</ele>
        <time>2013-12-08T10:24:56Z</time>
      </trkpt>
      <trkpt lat="44.32417" lon="4.2273">
        <ele>194.32</ele>
        <time>2013-12-08T10:24:57Z</time>
      </trkpt>
      <trkpt lat="44.3241" lon="4.22732">
        <ele>193.84</ele>
        <time>2013-12-08T10:24:58Z</time>
      </trkpt>
      <trkpt lat="44.32404" lon="4.22734">
        <ele>193.36</ele>
        <time>2013-12-08T10:24:59Z</time>
      </trkpt>
      <trkpt lat="44.32398" lon="4.22737">
        <ele>192.88</ele>
        <time>2013-12-08T10:25:00Z</time>
      </trkpt>
      <trkpt lat="44.32392" lon="4.2274">
        <ele>192.4</ele>
        <time>2013-12-08T10:25:01Z</time>
      </trkpt>
      <trkpt lat="44.32386" lon="4.22742">
        <ele>191.92</ele>
        <time>2013-12-08T10:25:02Z</time>
      </trkpt>
      <trkpt lat="44.32374" lon="4.22744">
        <ele>190.96</ele>
        <time>2013-12-08T10:25:04Z</time>
      </trkpt>
      <trkpt lat="44.32368" lon="4.22746">
        <ele>190.48</ele>
        <time>2013-12-08T10:25:05Z</time>
      </trkpt>
      <trkpt lat="44.32362" lon="4.22748">
        <ele>190</ele>
        <time>2013-12-08T10:25:06Z</time>
      </trkpt>
      <trkpt lat="44.32357" lon="4.22752">
        <ele>190</ele>
        <time>2013-12-08T10:25:07Z</time>
      </trkpt>
      <trkpt lat="44.32352" lon="4.22758">
        <ele>189.52</ele>
        <time>2013-12-08T10:25:08Z</time>
      </trkpt>
      <trkpt lat="44.32348" lon="4.22766">
        <ele>189.04</ele>
        <time>2013-12-08T10:25:09Z</time>
      </trkpt>
      <trkpt lat="44.32345" lon="4.22773">
        <ele>188.56</ele>
        <time>2013-12-08T10:25:10Z</time>
      </trkpt>
      <trkpt lat="44.32342" lon="4.2278">
        <ele>188.56</ele>
        <time>2013-12-08T10:25:11Z</time>
      </trkpt>
      <trkpt lat="44.32337" lon="4.22794">
        <ele>189.04</ele>
        <time>2013-12-08T10:25:13Z</time>
      </trkpt>
      <trkpt lat="44.32326" lon="4.22813">
        <ele>187.11</ele>
        <time>2013-12-08T10:25:16Z</time>
      </trkpt>
      <trkpt lat="44.32317" lon="4.22826">
        <ele>186.63</ele>
        <time>2013-12-08T10:25:18Z</time>
      </trkpt>
      <trkpt lat="44.32313" lon="4.22833">
        <ele>186.15</ele>
        <time>2013-12-08T10:25:19Z</time>
      </trkpt>
      <trkpt lat="44.32299" lon="4.22858">
        <ele>186.15</ele>
        <time>2013-12-08T10:25:23Z</time>
      </trkpt>
      <trkpt lat="44.32295" lon="4.22863">
        <ele>186.15</ele>
        <time>2013-12-08T10:25:24Z</time>
      </trkpt>
      <trkpt lat="44.32291" lon="4.22867">
        <ele>186.15</ele>
        <time>2013-12-08T10:25:25Z</time>
      </trkpt>
      <trkpt lat="44.32288" lon="4.22872">
        <ele>186.15</ele>
        <time>2013-12-08T10:25:26Z</time>
      </trkpt>
      <trkpt lat="44.32285" lon="4.22877">
        <ele>186.15</ele>
        <time>2013-12-08T10:25:27Z</time>
      </trkpt>
      <trkpt lat="44.32282" lon="4.22883">
        <ele>186.15</ele>
        <time>2013-12-08T10:25:28Z</time>
      </trkpt>
      <trkpt lat="44.3228" lon="4.22889">
        <ele>186.15</ele>
        <time>2013-12-08T10:25:29Z</time>
      </trkpt>
      <trkpt lat="44.32251" lon="4.22925">
        <ele>186.15</ele>
        <time>2013-12-08T10:25:40Z</time>
      </trkpt>
      <trkpt lat="44.32246" lon="4.22928">
        <ele>185.67</ele>
        <time>2013-12-08T10:25:42Z</time>
      </trkpt>
      <trkpt lat="44.32248" lon="4.22927">
        <ele>186.15</ele>
        <time>2013-12-08T10:25:52Z</time>
      </trkpt>
      <trkpt lat="44.3225" lon="4.22924">
        <ele>186.15</ele>
        <time>2013-12-08T10:26:03Z</time>
      </trkpt>
      <trkpt lat="44.32249" lon="4.22922">
        <ele>186.15</ele>
        <time>2013-12-08T10:26:04Z</time>
      </trkpt>
      <trkpt lat="44.32247" lon="4.22919">
        <ele>185.67</ele>
        <time>2013-12-08T10:26:06Z</time>
      </trkpt>
      <trkpt lat="44.32246" lon="4.22918">
        <ele>185.67</ele>
        <time>2013-12-08T10:26:07Z</time>
      </trkpt>
      <trkpt lat="44.32245" lon="4.22916">
        <ele>185.67</ele>
        <time>2013-12-08T10:26:08Z</time>
      </trkpt>
      <trkpt lat="44.32243" lon="4.22914">
        <ele>185.19</ele>
        <time>2013-12-08T10:26:09Z</time>
      </trkpt>
      <trkpt lat="44.32241" lon="4.22912">
        <ele>185.19</ele>
        <time>2013-12-08T10:26:10Z</time>
      </trkpt>
      <trkpt lat="44.32239" lon="4.22909">
        <ele>185.19</ele>
        <time>2013-12-08T10:26:11Z</time>
      </trkpt>
      <trkpt lat="44.32238" lon="4.22906">
        <ele>185.19</ele>
        <time>2013-12-08T10:26:12Z</time>
      </trkpt>
      <trkpt lat="44.32236" lon="4.22904">
        <ele>185.19</ele>
        <time>2013-12-08T10:26:13Z</time>
      </trkpt>
      <trkpt lat="44.32234" lon="4.22901">
        <ele>184.71</ele>
        <time>2013-12-08T10:26:14Z</time>
      </trkpt>
      <trkpt lat="44.32231" lon="4.22899">
        <ele>184.71</ele>
        <time>2013-12-08T10:26:15Z</time>
      </trkpt>
      <trkpt lat="44.32219" lon="4.22867">
        <ele>183.27</ele>
        <time>2013-12-08T10:26:27Z</time>
      </trkpt>
      <trkpt lat="44.32198" lon="4.22835">
        <ele>181.83</ele>
        <time>2013-12-08T10:26:39Z</time>
      </trkpt>
      <trkpt lat="44.32195" lon="4.22834">
        <ele>181.83</ele>
        <time>2013-12-08T10:26:52Z</time>
      </trkpt>
      <trkpt lat="44.32195" lon="4.22835">
        <ele>181.83</ele>
        <time>2013-12-08T10:27:10Z</time>
      </trkpt>
      <trkpt lat="44.32188" lon="4.22849">
        <ele>181.83</ele>
        <time>2013-12-08T10:27:20Z</time>
      </trkpt>
      <trkpt lat="44.32188" lon="4.22849">
        <ele>181.83</ele>
        <time>2013-12-08T10:27:31Z</time>
      </trkpt>
      <trkpt lat="44.32171" lon="4.2289">
        <ele>181.83</ele>
        <time>2013-12-08T10:27:42Z</time>
      </trkpt>
      <trkpt lat="44.32163" lon="4.22915">
        <ele>182.79</ele>
        <time>2013-12-08T10:27:51Z</time>
      </trkpt>
      <trkpt lat="44.32163" lon="4.22915">
        <ele>182.79</ele>
        <time>2013-12-08T10:27:59Z</time>
      </trkpt>
      <trkpt lat="44.32171" lon="4.22946">
        <ele>182.79</ele>
        <time>2013-12-08T10:28:15Z</time>
      </trkpt>
      <trkpt lat="44.32172" lon="4.22948">
        <ele>182.79</ele>
        <time>2013-12-08T10:28:16Z</time>
      </trkpt>
      <trkpt lat="44.32172" lon="4.22952">
        <ele>182.79</ele>
        <time>2013-12-08T10:28:18Z</time>
      </trkpt>
      <trkpt lat="44.32176" lon="4.22958">
        <ele>183.27</ele>
        <time>2013-12-08T10:28:22Z</time>
      </trkpt>
      <trkpt lat="44.32186" lon="4.22971">
        <ele>183.75</ele>
        <time>2013-12-08T10:28:32Z</time>
      </trkpt>
      <trkpt lat="44.32192" lon="4.22973">
        <ele>184.23</ele>
        <time>2013-12-08T10:28:47Z</time>
      </trkpt>
      <trkpt lat="44.32196" lon="4.22977">
        <ele>184.23</ele>
        <time>2013-12-08T10:28:59Z</time>
      </trkpt>
      <trkpt lat="44.32197" lon="4.22978">
        <ele>184.23</ele>
        <time>2013-12-08T10:29:03Z</time>
      </trkpt>
      <trkpt lat="44.32196" lon="4.22982">
        <ele>183.27</ele>
        <time>2013-12-08T10:29:07Z</time>
      </trkpt>
      <trkpt lat="44.32181" lon="4.23003">
        <ele>183.27</ele>
        <time>2013-12-08T10:29:15Z</time>
      </trkpt>
      <trkpt lat="44.32152" lon="4.22985">
        <ele>184.71</ele>
        <time>2013-12-08T10:29:26Z</time>
      </trkpt>
      <trkpt lat="44.32144" lon="4.22976">
        <ele>185.19</ele>
        <time>2013-12-08T10:29:30Z</time>
      </trkpt>
      <trkpt lat="44.3214" lon="4.22978">
        <ele>186.15</ele>
        <time>2013-12-08T10:29:42Z</time>
      </trkpt>
      <trkpt lat="44.3214" lon="4.22978">
        <ele>186.15</ele>
        <time>2013-12-08T10:29:43Z</time>
      </trkpt>
      <trkpt lat="44.32133" lon="4.22966">
        <ele>185.67</ele>
        <time>2013-12-08T10:29:49Z</time>
      </trkpt>
      <trkpt lat="44.32129" lon="4.22944">
        <ele>185.19</ele>
        <time>2013-12-08T10:29:55Z</time>
      </trkpt>
      <trkpt lat="44.32132" lon="4.22928">
        <ele>184.23</ele>
        <time>2013-12-08T10:29:58Z</time>
      </trkpt>
      <trkpt lat="44.32133" lon="4.22922">
        <ele>184.23</ele>
        <time>2013-12-08T10:29:59Z</time>
      </trkpt>
      <trkpt lat="44.32136" lon="4.22917">
        <ele>184.23</ele>
        <time>2013-12-08T10:30:00Z</time>
      </trkpt>
      <trkpt lat="44.32138" lon="4.22912">
        <ele>184.23</ele>
        <time>2013-12-08T10:30:01Z</time>
      </trkpt>
      <trkpt lat="44.32141" lon="4.22908">
        <ele>184.23</ele>
        <time>2013-12-08T10:30:02Z</time>
      </trkpt>
      <trkpt lat="44.32161" lon="4.22879">
        <ele>182.31</ele>
        <time>2013-12-08T10:30:08Z</time>
      </trkpt>
      <trkpt lat="44.32166" lon="4.22867">
        <ele>181.83</ele>
        <time>2013-12-08T10:30:10Z</time>
      </trkpt>
      <trkpt lat="44.3217" lon="4.22853">
        <ele>180.87</ele>
        <time>2013-12-08T10:30:12Z</time>
      </trkpt>
      <trkpt lat="44.32171" lon="4.22846">
        <ele>180.38</ele>
        <time>2013-12-08T10:30:13Z</time>
      </trkpt>
      <trkpt lat="44.32172" lon="4.22839">
        <ele>179.9</ele>
        <time>2013-12-08T10:30:14Z</time>
      </trkpt>
      <trkpt lat="44.32171" lon="4.22824">
        <ele>179.9</ele>
        <time>2013-12-08T10:30:16Z</time>
      </trkpt>
      <trkpt lat="44.3217" lon="4.22817">
        <ele>179.9</ele>
        <time>2013-12-08T10:30:17Z</time>
      </trkpt>
      <trkpt lat="44.32166" lon="4.22803">
        <ele>179.42</ele>
        <time>2013-12-08T10:30:19Z</time>
      </trkpt>
      <trkpt lat="44.32165" lon="4.22796">
        <ele>179.9</ele>
        <time>2013-12-08T10:30:20Z</time>
      </trkpt>
      <trkpt lat="44.32163" lon="4.22789">
        <ele>179.42</ele>
        <time>2013-12-08T10:30:21Z</time>
      </trkpt>
      <trkpt lat="44.32163" lon="4.22783">
        <ele>179.9</ele>
        <time>2013-12-08T10:30:22Z</time>
      </trkpt>
      <trkpt lat="44.32162" lon="4.22776">
        <ele>179.9</ele>
        <time>2013-12-08T10:30:23Z</time>
      </trkpt>
      <trkpt lat="44.3216" lon="4.2277">
        <ele>179.42</ele>
        <time>2013-12-08T10:30:24Z</time>
      </trkpt>
      <trkpt lat="44.32155" lon="4.22752">
        <ele>179.42</ele>
        <time>2013-12-08T10:30:27Z</time>
      </trkpt>
      <trkpt lat="44.3215" lon="4.22741">
        <ele>179.42</ele>
        <time>2013-12-08T10:30:29Z</time>
      </trkpt>
      <trkpt lat="44.32142" lon="4.22727">
        <ele>179.42</ele>
        <time>2013-12-08T10:30:32Z</time>
      </trkpt>
      <trkpt lat="44.32126" lon="4.22681">
        <ele>178.46</ele>
        <time>2013-12-08T10:30:42Z</time>
      </trkpt>
      <trkpt lat="44.32123" lon="4.22675">
        <ele>177.98</ele>
        <time>2013-12-08T10:30:43Z</time>
      </trkpt>
      <trkpt lat="44.32121" lon="4.2267">
        <ele>177.98</ele>
        <time>2013-12-08T10:30:44Z</time>
      </trkpt>
      <trkpt lat="44.3211" lon="4.22641">
        <ele>177.98</ele>
        <time>2013-12-08T10:30:49Z</time>
      </trkpt>
      <trkpt lat="44.32079" lon="4.22609">
        <ele>177.5</ele>
        <time>2013-12-08T10:31:00Z</time>
      </trkpt>
      <trkpt lat="44.3204" lon="4.22595">
        <ele>180.38</ele>
        <time>2013-12-08T10:31:15Z</time>
      </trkpt>
      <trkpt lat="44.32011" lon="4.22593">
        <ele>183.27</ele>
        <time>2013-12-08T10:31:28Z</time>
      </trkpt>
      <trkpt lat="44.3198" lon="4.22587">
        <ele>186.15</ele>
        <time>2013-12-08T10:31:43Z</time>
      </trkpt>
      <trkpt lat="44.31948" lon="4.22582">
        <ele>188.56</ele>
        <time>2013-12-08T10:31:58Z</time>
      </trkpt>
      <trkpt lat="44.31914" lon="4.22576">
        <ele>190</ele>
        <time>2013-12-08T10:32:14Z</time>
      </trkpt>
      <trkpt lat="44.31884" lon="4.22572">
        <ele>192.4</ele>
        <time>2013-12-08T10:32:28Z</time>
      </trkpt>
      <trkpt lat="44.31851" lon="4.22566">
        <ele>196.73</ele>
        <time>2013-12-08T10:32:43Z</time>
      </trkpt>
      <trkpt lat="44.31812" lon="4.22555">
        <ele>196.25</ele>
        <time>2013-12-08T10:33:00Z</time>
      </trkpt>
      <trkpt lat="44.31777" lon="4.22545">
        <ele>198.17</ele>
        <time>2013-12-08T10:33:16Z</time>
      </trkpt>
      <trkpt lat="44.31753" lon="4.22539">
        <ele>198.65</ele>
        <time>2013-12-08T10:33:29Z</time>
      </trkpt>
      <trkpt lat="44.3174" lon="4.22535">
        <ele>198.17</ele>
        <time>2013-12-08T10:33:41Z</time>
      </trkpt>
      <trkpt lat="44.31702" lon="4.22521">
        <ele>195.77</ele>
        <time>2013-12-08T10:33:53Z</time>
      </trkpt>
      <trkpt lat="44.31698" lon="4.2252">
        <ele>195.28</ele>
        <time>2013-12-08T10:33:54Z</time>
      </trkpt>
      <trkpt lat="44.31694" lon="4.22518">
        <ele>195.28</ele>
        <time>2013-12-08T10:33:55Z</time>
      </trkpt>
      <trkpt lat="44.31685" lon="4.22516">
        <ele>194.32</ele>
        <time>2013-12-08T10:33:57Z</time>
      </trkpt>
      <trkpt lat="44.31681" lon="4.22514">
        <ele>193.84</ele>
        <time>2013-12-08T10:33:58Z</time>
      </trkpt>
      <trkpt lat="44.31662" lon="4.22508">
        <ele>192.4</ele>
        <time>2013-12-08T10:34:02Z</time>
      </trkpt>
      <trkpt lat="44.31657" lon="4.22507">
        <ele>192.4</ele>
        <time>2013-12-08T10:34:03Z</time>
      </trkpt>
      <trkpt lat="44.31648" lon="4.22503">
        <ele>191.44</ele>
        <time>2013-12-08T10:34:05Z</time>
      </trkpt>
      <trkpt lat="44.31642" lon="4.22502">
        <ele>191.44</ele>
        <time>2013-12-08T10:34:06Z</time>
      </trkpt>
      <trkpt lat="44.31612" lon="4.22494">
        <ele>189.52</ele>
        <time>2013-12-08T10:34:12Z</time>
      </trkpt>
      <trkpt lat="44.31607" lon="4.22493">
        <ele>189.04</ele>
        <time>2013-12-08T10:34:13Z</time>
      </trkpt>
      <trkpt lat="44.31597" lon="4.2249">
        <ele>188.56</ele>
        <time>2013-12-08T10:34:15Z</time>
      </trkpt>
      <trkpt lat="44.31587" lon="4.22486">
        <ele>188.56</ele>
        <time>2013-12-08T10:34:17Z</time>
      </trkpt>
      <trkpt lat="44.31536" lon="4.2246">
        <ele>190</ele>
        <time>2013-12-08T10:34:30Z</time>
      </trkpt>
      <trkpt lat="44.31506" lon="4.22441">
        <ele>193.36</ele>
        <time>2013-12-08T10:34:42Z</time>
      </trkpt>
      <trkpt lat="44.31501" lon="4.2244">
        <ele>193.84</ele>
        <time>2013-12-08T10:34:44Z</time>
      </trkpt>
      <trkpt lat="44.31499" lon="4.2244">
        <ele>194.32</ele>
        <time>2013-12-08T10:34:56Z</time>
      </trkpt>
      <trkpt lat="44.31498" lon="4.22441">
        <ele>194.32</ele>
        <time>2013-12-08T10:35:06Z</time>
      </trkpt>
      <trkpt lat="44.31497" lon="4.22442">
        <ele>194.32</ele>
        <time>2013-12-08T10:35:07Z</time>
      </trkpt>
      <trkpt lat="44.31496" lon="4.22444">
        <ele>194.32</ele>
        <time>2013-12-08T10:35:08Z</time>
      </trkpt>
      <trkpt lat="44.31495" lon="4.22447">
        <ele>194.32</ele>
        <time>2013-12-08T10:35:09Z</time>
      </trkpt>
      <trkpt lat="44.31495" lon="4.22449">
        <ele>194.8</ele>
        <time>2013-12-08T10:35:10Z</time>
      </trkpt>
      <trkpt lat="44.31494" lon="4.22452">
        <ele>194.8</ele>
        <time>2013-12-08T10:35:11Z</time>
      </trkpt>
      <trkpt lat="44.31492" lon="4.22454">
        <ele>194.8</ele>
        <time>2013-12-08T10:35:12Z</time>
      </trkpt>
      <trkpt lat="44.31491" lon="4.22457">
        <ele>195.28</ele>
        <time>2013-12-08T10:35:13Z</time>
      </trkpt>
      <trkpt lat="44.3149" lon="4.2246">
        <ele>195.28</ele>
        <time>2013-12-08T10:35:14Z</time>
      </trkpt>
      <trkpt lat="44.31489" lon="4.22462">
        <ele>195.28</ele>
        <time>2013-12-08T10:35:15Z</time>
      </trkpt>
      <trkpt lat="44.31477" lon="4.22486">
        <ele>197.21</ele>
        <time>2013-12-08T10:35:28Z</time>
      </trkpt>
      <trkpt lat="44.31478" lon="4.22486">
        <ele>197.21</ele>
        <time>2013-12-08T10:35:49Z</time>
      </trkpt>
      <trkpt lat="44.31475" lon="4.22489">
        <ele>196.73</ele>
        <time>2013-12-08T10:35:59Z</time>
      </trkpt>
      <trkpt lat="44.31474" lon="4.22492">
        <ele>197.21</ele>
        <time>2013-12-08T10:36:00Z</time>
      </trkpt>
      <trkpt lat="44.31473" lon="4.22495">
        <ele>197.21</ele>
        <time>2013-12-08T10:36:01Z</time>
      </trkpt>
      <trkpt lat="44.31472" lon="4.22497">
        <ele>196.73</ele>
        <time>2013-12-08T10:36:02Z</time>
      </trkpt>
      <trkpt lat="44.31471" lon="4.225">
        <ele>197.21</ele>
        <time>2013-12-08T10:36:03Z</time>
      </trkpt>
      <trkpt lat="44.31469" lon="4.22503">
        <ele>197.21</ele>
        <time>2013-12-08T10:36:04Z</time>
      </trkpt>
      <trkpt lat="44.31468" lon="4.22506">
        <ele>197.21</ele>
        <time>2013-12-08T10:36:05Z</time>
      </trkpt>
      <trkpt lat="44.31467" lon="4.22509">
        <ele>197.21</ele>
        <time>2013-12-08T10:36:06Z</time>
      </trkpt>
      <trkpt lat="44.31466" lon="4.22513">
        <ele>197.21</ele>
        <time>2013-12-08T10:36:07Z</time>
      </trkpt>
      <trkpt lat="44.31464" lon="4.22516">
        <ele>197.21</ele>
        <time>2013-12-08T10:36:08Z</time>
      </trkpt>
      <trkpt lat="44.31463" lon="4.22519">
        <ele>197.21</ele>
        <time>2013-12-08T10:36:09Z</time>
      </trkpt>
      <trkpt lat="44.31451" lon="4.22552">
        <ele>195.28</ele>
        <time>2013-12-08T10:36:17Z</time>
      </trkpt>
      <trkpt lat="44.31447" lon="4.22557">
        <ele>194.32</ele>
        <time>2013-12-08T10:36:18Z</time>
      </trkpt>
      <trkpt lat="44.31443" lon="4.22562">
        <ele>193.36</ele>
        <time>2013-12-08T10:36:19Z</time>
      </trkpt>
      <trkpt lat="44.31439" lon="4.22567">
        <ele>192.4</ele>
        <time>2013-12-08T10:36:20Z</time>
      </trkpt>
      <trkpt lat="44.31435" lon="4.22573">
        <ele>191.92</ele>
        <time>2013-12-08T10:36:21Z</time>
      </trkpt>
      <trkpt lat="44.31432" lon="4.22579">
        <ele>190.96</ele>
        <time>2013-12-08T10:36:22Z</time>
      </trkpt>
      <trkpt lat="44.31423" lon="4.226">
        <ele>189.52</ele>
        <time>2013-12-08T10:36:25Z</time>
      </trkpt>
      <trkpt lat="44.3142" lon="4.22606">
        <ele>189.52</ele>
        <time>2013-12-08T10:36:26Z</time>
      </trkpt>
      <trkpt lat="44.31408" lon="4.22637">
        <ele>188.56</ele>
        <time>2013-12-08T10:36:31Z</time>
      </trkpt>
      <trkpt lat="44.31407" lon="4.22643">
        <ele>188.56</ele>
        <time>2013-12-08T10:36:32Z</time>
      </trkpt>
      <trkpt lat="44.31407" lon="4.2265">
        <ele>188.08</ele>
        <time>2013-12-08T10:36:33Z</time>
      </trkpt>
      <trkpt lat="44.31408" lon="4.22677">
        <ele>187.11</ele>
        <time>2013-12-08T10:36:37Z</time>
      </trkpt>
      <trkpt lat="44.3141" lon="4.22683">
        <ele>186.63</ele>
        <time>2013-12-08T10:36:38Z</time>
      </trkpt>
      <trkpt lat="44.31412" lon="4.22687">
        <ele>187.11</ele>
        <time>2013-12-08T10:36:39Z</time>
      </trkpt>
      <trkpt lat="44.31413" lon="4.2269">
        <ele>187.11</ele>
        <time>2013-12-08T10:36:40Z</time>
      </trkpt>
      <trkpt lat="44.31414" lon="4.22692">
        <ele>187.11</ele>
        <time>2013-12-08T10:36:41Z</time>
      </trkpt>
      <trkpt lat="44.31414" lon="4.22693">
        <ele>186.63</ele>
        <time>2013-12-08T10:36:49Z</time>
      </trkpt>
      <trkpt lat="44.31415" lon="4.22695">
        <ele>186.63</ele>
        <time>2013-12-08T10:36:50Z</time>
      </trkpt>
      <trkpt lat="44.31416" lon="4.22696">
        <ele>186.63</ele>
        <time>2013-12-08T10:36:51Z</time>
      </trkpt>
      <trkpt lat="44.31417" lon="4.227">
        <ele>186.15</ele>
        <time>2013-12-08T10:36:52Z</time>
      </trkpt>
      <trkpt lat="44.31418" lon="4.22703">
        <ele>186.15</ele>
        <time>2013-12-08T10:36:53Z</time>
      </trkpt>
      <trkpt lat="44.3142" lon="4.22707">
        <ele>186.15</ele>
        <time>2013-12-08T10:36:54Z</time>
      </trkpt>
      <trkpt lat="44.31421" lon="4.22712">
        <ele>185.67</ele>
        <time>2013-12-08T10:36:55Z</time>
      </trkpt>
      <trkpt lat="44.31423" lon="4.22718">
        <ele>185.19</ele>
        <time>2013-12-08T10:36:56Z</time>
      </trkpt>
      <trkpt lat="44.31425" lon="4.22723">
        <ele>185.19</ele>
        <time>2013-12-08T10:36:57Z</time>
      </trkpt>
      <trkpt lat="44.31426" lon="4.22729">
        <ele>184.71</ele>
        <time>2013-12-08T10:36:58Z</time>
      </trkpt>
      <trkpt lat="44.31428" lon="4.22735">
        <ele>184.23</ele>
        <time>2013-12-08T10:36:59Z</time>
      </trkpt>
      <trkpt lat="44.31428" lon="4.22741">
        <ele>183.75</ele>
        <time>2013-12-08T10:37:00Z</time>
      </trkpt>
      <trkpt lat="44.31428" lon="4.22746">
        <ele>183.27</ele>
        <time>2013-12-08T10:37:01Z</time>
      </trkpt>
      <trkpt lat="44.31426" lon="4.22775">
        <ele>181.83</ele>
        <time>2013-12-08T10:37:06Z</time>
      </trkpt>
      <trkpt lat="44.31427" lon="4.2278">
        <ele>181.83</ele>
        <time>2013-12-08T10:37:07Z</time>
      </trkpt>
      <trkpt lat="44.31429" lon="4.22784">
        <ele>181.83</ele>
        <time>2013-12-08T10:37:08Z</time>
      </trkpt>
      <trkpt lat="44.31431" lon="4.22786">
        <ele>181.35</ele>
        <time>2013-12-08T10:37:09Z</time>
      </trkpt>
      <trkpt lat="44.31436" lon="4.22788">
        <ele>181.35</ele>
        <time>2013-12-08T10:37:20Z</time>
      </trkpt>
      <trkpt lat="44.31448" lon="4.22798">
        <ele>179.42</ele>
        <time>2013-12-08T10:37:25Z</time>
      </trkpt>
      <trkpt lat="44.31451" lon="4.22803">
        <ele>178.94</ele>
        <time>2013-12-08T10:37:26Z</time>
      </trkpt>
      <trkpt lat="44.31453" lon="4.22808">
        <ele>177.98</ele>
        <time>2013-12-08T10:37:27Z</time>
      </trkpt>
      <trkpt lat="44.31453" lon="4.22814">
        <ele>177.5</ele>
        <time>2013-12-08T10:37:28Z</time>
      </trkpt>
      <trkpt lat="44.31452" lon="4.22819">
        <ele>177.5</ele>
        <time>2013-12-08T10:37:29Z</time>
      </trkpt>
      <trkpt lat="44.31451" lon="4.22825">
        <ele>177.02</ele>
        <time>2013-12-08T10:37:30Z</time>
      </trkpt>
      <trkpt lat="44.3145" lon="4.22831">
        <ele>177.02</ele>
        <time>2013-12-08T10:37:31Z</time>
      </trkpt>
      <trkpt lat="44.31448" lon="4.22836">
        <ele>176.54</ele>
        <time>2013-12-08T10:37:32Z</time>
      </trkpt>
      <trkpt lat="44.31447" lon="4.22842">
        <ele>176.54</ele>
        <time>2013-12-08T10:37:33Z</time>
      </trkpt>
      <trkpt lat="44.31439" lon="4.22869">
        <ele>174.14</ele>
        <time>2013-12-08T10:37:37Z</time>
      </trkpt>
      <trkpt lat="44.31437" lon="4.22877">
        <ele>173.17</ele>
        <time>2013-12-08T10:37:38Z</time>
      </trkpt>
      <trkpt lat="44.31432" lon="4.2289">
        <ele>172.21</ele>
        <time>2013-12-08T10:37:40Z</time>
      </trkpt>
      <trkpt lat="44.31425" lon="4.22904">
        <ele>169.33</ele>
        <time>2013-12-08T10:37:42Z</time>
      </trkpt>
      <trkpt lat="44.31421" lon="4.22912">
        <ele>168.37</ele>
        <time>2013-12-08T10:37:43Z</time>
      </trkpt>
      <trkpt lat="44.31419" lon="4.2292">
        <ele>167.89</ele>
        <time>2013-12-08T10:37:44Z</time>
      </trkpt>
      <trkpt lat="44.31418" lon="4.22927">
        <ele>167.41</ele>
        <time>2013-12-08T10:37:45Z</time>
      </trkpt>
      <trkpt lat="44.31419" lon="4.22932">
        <ele>167.41</ele>
        <time>2013-12-08T10:37:46Z</time>
      </trkpt>
      <trkpt lat="44.31421" lon="4.22937">
        <ele>167.41</ele>
        <time>2013-12-08T10:37:47Z</time>
      </trkpt>
      <trkpt lat="44.31423" lon="4.22941">
        <ele>167.41</ele>
        <time>2013-12-08T10:37:48Z</time>
      </trkpt>
      <trkpt lat="44.31426" lon="4.22944">
        <ele>167.41</ele>
        <time>2013-12-08T10:37:49Z</time>
      </trkpt>
      <trkpt lat="44.31429" lon="4.22948">
        <ele>167.41</ele>
        <time>2013-12-08T10:37:50Z</time>
      </trkpt>
      <trkpt lat="44.31432" lon="4.22952">
        <ele>167.41</ele>
        <time>2013-12-08T10:37:51Z</time>
      </trkpt>
      <trkpt lat="44.31434" lon="4.22955">
        <ele>167.41</ele>
        <time>2013-12-08T10:37:52Z</time>
      </trkpt>
      <trkpt lat="44.31456" lon="4.22995">
        <ele>168.85</ele>
        <time>2013-12-08T10:38:04Z</time>
      </trkpt>
      <trkpt lat="44.31462" lon="4.23041">
        <ele>168.85</ele>
        <time>2013-12-08T10:38:17Z</time>
      </trkpt>
      <trkpt lat="44.31463" lon="4.23099">
        <ele>169.33</ele>
        <time>2013-12-08T10:38:33Z</time>
      </trkpt>
      <trkpt lat="44.3146" lon="4.23145">
        <ele>169.81</ele>
        <time>2013-12-08T10:38:47Z</time>
      </trkpt>
      <trkpt lat="44.31466" lon="4.23187">
        <ele>169.81</ele>
        <time>2013-12-08T10:39:00Z</time>
      </trkpt>
      <trkpt lat="44.31466" lon="4.23192">
        <ele>170.29</ele>
        <time>2013-12-08T10:39:11Z</time>
      </trkpt>
      <trkpt lat="44.31467" lon="4.23202">
        <ele>170.29</ele>
        <time>2013-12-08T10:39:16Z</time>
      </trkpt>
      <trkpt lat="44.31459" lon="4.23245">
        <ele>170.77</ele>
        <time>2013-12-08T10:39:30Z</time>
      </trkpt>
      <trkpt lat="44.31454" lon="4.23259">
        <ele>170.77</ele>
        <time>2013-12-08T10:39:35Z</time>
      </trkpt>
      <trkpt lat="44.31448" lon="4.23281">
        <ele>170.29</ele>
        <time>2013-12-08T10:39:44Z</time>
      </trkpt>
      <trkpt lat="44.31453" lon="4.23287">
        <ele>170.77</ele>
        <time>2013-12-08T10:39:51Z</time>
      </trkpt>
      <trkpt lat="44.31458" lon="4.23287">
        <ele>171.25</ele>
        <time>2013-12-08T10:39:59Z</time>
      </trkpt>
      <trkpt lat="44.31461" lon="4.23297">
        <ele>171.25</ele>
        <time>2013-12-08T10:40:04Z</time>
      </trkpt>
      <trkpt lat="44.31482" lon="4.23342">
        <ele>172.21</ele>
        <time>2013-12-08T10:40:19Z</time>
      </trkpt>
      <trkpt lat="44.3151" lon="4.23337">
        <ele>172.69</ele>
        <time>2013-12-08T10:40:30Z</time>
      </trkpt>
      <trkpt lat="44.31522" lon="4.23336">
        <ele>173.66</ele>
        <time>2013-12-08T10:40:34Z</time>
      </trkpt>
      <trkpt lat="44.31535" lon="4.23349">
        <ele>173.66</ele>
        <time>2013-12-08T10:40:41Z</time>
      </trkpt>
      <trkpt lat="44.31551" lon="4.23386">
        <ele>174.62</ele>
        <time>2013-12-08T10:40:54Z</time>
      </trkpt>
      <trkpt lat="44.31533" lon="4.23405">
        <ele>172.69</ele>
        <time>2013-12-08T10:41:02Z</time>
      </trkpt>
      <trkpt lat="44.31529" lon="4.23414">
        <ele>172.21</ele>
        <time>2013-12-08T10:41:06Z</time>
      </trkpt>
      <trkpt lat="44.31517" lon="4.23442">
        <ele>174.14</ele>
        <time>2013-12-08T10:41:17Z</time>
      </trkpt>
      <trkpt lat="44.31496" lon="4.23473">
        <ele>176.54</ele>
        <time>2013-12-08T10:41:30Z</time>
      </trkpt>
      <trkpt lat="44.31482" lon="4.23498">
        <ele>177.98</ele>
        <time>2013-12-08T10:41:41Z</time>
      </trkpt>
      <trkpt lat="44.31463" lon="4.23539">
        <ele>180.38</ele>
        <time>2013-12-08T10:41:57Z</time>
      </trkpt>
      <trkpt lat="44.31436" lon="4.23553">
        <ele>182.79</ele>
        <time>2013-12-08T10:42:10Z</time>
      </trkpt>
      <trkpt lat="44.31414" lon="4.23575">
        <ele>185.67</ele>
        <time>2013-12-08T10:42:24Z</time>
      </trkpt>
      <trkpt lat="44.31413" lon="4.2358">
        <ele>186.63</ele>
        <time>2013-12-08T10:42:26Z</time>
      </trkpt>
      <trkpt lat="44.31413" lon="4.23587">
        <ele>188.08</ele>
        <time>2013-12-08T10:42:29Z</time>
      </trkpt>
      <trkpt lat="44.31417" lon="4.23599">
        <ele>189.04</ele>
        <time>2013-12-08T10:42:38Z</time>
      </trkpt>
      <trkpt lat="44.31418" lon="4.23601">
        <ele>189.04</ele>
        <time>2013-12-08T10:43:04Z</time>
      </trkpt>
      <trkpt lat="44.31435" lon="4.23641">
        <ele>187.59</ele>
        <time>2013-12-08T10:43:15Z</time>
      </trkpt>
      <trkpt lat="44.31461" lon="4.23697">
        <ele>187.59</ele>
        <time>2013-12-08T10:43:28Z</time>
      </trkpt>
      <trkpt lat="44.31477" lon="4.23731">
        <ele>190.48</ele>
        <time>2013-12-08T10:43:40Z</time>
      </trkpt>
      <trkpt lat="44.31489" lon="4.23782">
        <ele>190.96</ele>
        <time>2013-12-08T10:43:55Z</time>
      </trkpt>
      <trkpt lat="44.31502" lon="4.23812">
        <ele>191.92</ele>
        <time>2013-12-08T10:44:08Z</time>
      </trkpt>
      <trkpt lat="44.31512" lon="4.23823">
        <ele>192.4</ele>
        <time>2013-12-08T10:44:14Z</time>
      </trkpt>
      <trkpt lat="44.31513" lon="4.23824">
        <ele>192.4</ele>
        <time>2013-12-08T10:44:15Z</time>
      </trkpt>
      <trkpt lat="44.31514" lon="4.23825">
        <ele>192.88</ele>
        <time>2013-12-08T10:44:16Z</time>
      </trkpt>
      <trkpt lat="44.31515" lon="4.23826">
        <ele>192.88</ele>
        <time>2013-12-08T10:44:17Z</time>
      </trkpt>
      <trkpt lat="44.31516" lon="4.23827">
        <ele>193.36</ele>
        <time>2013-12-08T10:44:18Z</time>
      </trkpt>
      <trkpt lat="44.31517" lon="4.23828">
        <ele>192.88</ele>
        <time>2013-12-08T10:44:19Z</time>
      </trkpt>
      <trkpt lat="44.31519" lon="4.2383">
        <ele>193.36</ele>
        <time>2013-12-08T10:44:20Z</time>
      </trkpt>
      <trkpt lat="44.31548" lon="4.23863">
        <ele>190</ele>
        <time>2013-12-08T10:44:30Z</time>
      </trkpt>
      <trkpt lat="44.31582" lon="4.23896">
        <ele>191.44</ele>
        <time>2013-12-08T10:44:41Z</time>
      </trkpt>
      <trkpt lat="44.31584" lon="4.23905">
        <ele>191.44</ele>
        <time>2013-12-08T10:44:44Z</time>
      </trkpt>
      <trkpt lat="44.31576" lon="4.23909">
        <ele>193.36</ele>
        <time>2013-12-08T10:44:53Z</time>
      </trkpt>
      <trkpt lat="44.31574" lon="4.23908">
        <ele>193.36</ele>
        <time>2013-12-08T10:45:03Z</time>
      </trkpt>
      <trkpt lat="44.31572" lon="4.23908">
        <ele>194.32</ele>
        <time>2013-12-08T10:45:10Z</time>
      </trkpt>
      <trkpt lat="44.31561" lon="4.23904">
        <ele>195.77</ele>
        <time>2013-12-08T10:45:18Z</time>
      </trkpt>
      <trkpt lat="44.31557" lon="4.23908">
        <ele>196.73</ele>
        <time>2013-12-08T10:45:29Z</time>
      </trkpt>
      <trkpt lat="44.31558" lon="4.23929">
        <ele>199.13</ele>
        <time>2013-12-08T10:45:39Z</time>
      </trkpt>
      <trkpt lat="44.31559" lon="4.23933">
        <ele>199.61</ele>
        <time>2013-12-08T10:45:41Z</time>
      </trkpt>
      <trkpt lat="44.31559" lon="4.23935">
        <ele>199.61</ele>
        <time>2013-12-08T10:45:42Z</time>
      </trkpt>
      <trkpt lat="44.31558" lon="4.23938">
        <ele>200.09</ele>
        <time>2013-12-08T10:45:44Z</time>
      </trkpt>
      <trkpt lat="44.31559" lon="4.23969">
        <ele>202.01</ele>
        <time>2013-12-08T10:45:59Z</time>
      </trkpt>
      <trkpt lat="44.31559" lon="4.24004">
        <ele>202.98</ele>
        <time>2013-12-08T10:46:14Z</time>
      </trkpt>
      <trkpt lat="44.31575" lon="4.24027">
        <ele>206.34</ele>
        <time>2013-12-08T10:46:30Z</time>
      </trkpt>
      <trkpt lat="44.31578" lon="4.24029">
        <ele>206.82</ele>
        <time>2013-12-08T10:46:33Z</time>
      </trkpt>
      <trkpt lat="44.31582" lon="4.24038">
        <ele>207.78</ele>
        <time>2013-12-08T10:46:46Z</time>
      </trkpt>
      <trkpt lat="44.31582" lon="4.24038">
        <ele>207.3</ele>
        <time>2013-12-08T10:46:58Z</time>
      </trkpt>
      <trkpt lat="44.31566" lon="4.24059">
        <ele>207.3</ele>
        <time>2013-12-08T10:47:10Z</time>
      </trkpt>
      <trkpt lat="44.31549" lon="4.24066">
        <ele>208.74</ele>
        <time>2013-12-08T10:47:24Z</time>
      </trkpt>
      <trkpt lat="44.3155" lon="4.24067">
        <ele>208.74</ele>
        <time>2013-12-08T10:47:48Z</time>
      </trkpt>
      <trkpt lat="44.31551" lon="4.24067">
        <ele>208.74</ele>
        <time>2013-12-08T10:47:51Z</time>
      </trkpt>
      <trkpt lat="44.31575" lon="4.24052">
        <ele>207.3</ele>
        <time>2013-12-08T10:48:02Z</time>
      </trkpt>
      <trkpt lat="44.31577" lon="4.24049">
        <ele>207.3</ele>
        <time>2013-12-08T10:48:03Z</time>
      </trkpt>
      <trkpt lat="44.31583" lon="4.24037">
        <ele>207.78</ele>
        <time>2013-12-08T10:48:09Z</time>
      </trkpt>
      <trkpt lat="44.31583" lon="4.2404">
        <ele>207.78</ele>
        <time>2013-12-08T10:48:13Z</time>
      </trkpt>
      <trkpt lat="44.31594" lon="4.24053">
        <ele>210.67</ele>
        <time>2013-12-08T10:48:25Z</time>
      </trkpt>
      <trkpt lat="44.31598" lon="4.24055">
        <ele>211.15</ele>
        <time>2013-12-08T10:48:29Z</time>
      </trkpt>
      <trkpt lat="44.31604" lon="4.24037">
        <ele>213.55</ele>
        <time>2013-12-08T10:48:40Z</time>
      </trkpt>
      <trkpt lat="44.31605" lon="4.24022">
        <ele>214.99</ele>
        <time>2013-12-08T10:48:53Z</time>
      </trkpt>
      <trkpt lat="44.31606" lon="4.24019">
        <ele>215.47</ele>
        <time>2013-12-08T10:49:03Z</time>
      </trkpt>
      <trkpt lat="44.31612" lon="4.24011">
        <ele>217.4</ele>
        <time>2013-12-08T10:49:15Z</time>
      </trkpt>
      <trkpt lat="44.31613" lon="4.24011">
        <ele>217.4</ele>
        <time>2013-12-08T10:49:23Z</time>
      </trkpt>
      <trkpt lat="44.31635" lon="4.24002">
        <ele>221.24</ele>
        <time>2013-12-08T10:49:39Z</time>
      </trkpt>
      <trkpt lat="44.31653" lon="4.24004">
        <ele>222.68</ele>
        <time>2013-12-08T10:49:52Z</time>
      </trkpt>
      <trkpt lat="44.31661" lon="4.24023">
        <ele>225.57</ele>
        <time>2013-12-08T10:50:04Z</time>
      </trkpt>
      <trkpt lat="44.31665" lon="4.24029">
        <ele>226.05</ele>
        <time>2013-12-08T10:50:08Z</time>
      </trkpt>
      <trkpt lat="44.31669" lon="4.24034">
        <ele>227.01</ele>
        <time>2013-12-08T10:50:12Z</time>
      </trkpt>
      <trkpt lat="44.31684" lon="4.2406">
        <ele>228.93</ele>
        <time>2013-12-08T10:50:28Z</time>
      </trkpt>
      <trkpt lat="44.31696" lon="4.24082">
        <ele>230.85</ele>
        <time>2013-12-08T10:50:42Z</time>
      </trkpt>
      <trkpt lat="44.317" lon="4.24089">
        <ele>231.33</ele>
        <time>2013-12-08T10:50:52Z</time>
      </trkpt>
      <trkpt lat="44.317" lon="4.24091">
        <ele>232.3</ele>
        <time>2013-12-08T10:50:55Z</time>
      </trkpt>
      <trkpt lat="44.31705" lon="4.24102">
        <ele>234.22</ele>
        <time>2013-12-08T10:51:05Z</time>
      </trkpt>
      <trkpt lat="44.31707" lon="4.24105">
        <ele>234.7</ele>
        <time>2013-12-08T10:51:07Z</time>
      </trkpt>
      <trkpt lat="44.31713" lon="4.24118">
        <ele>236.62</ele>
        <time>2013-12-08T10:51:20Z</time>
      </trkpt>
      <trkpt lat="44.31713" lon="4.2412">
        <ele>236.62</ele>
        <time>2013-12-08T10:51:25Z</time>
      </trkpt>
      <trkpt lat="44.31719" lon="4.2414">
        <ele>238.06</ele>
        <time>2013-12-08T10:51:39Z</time>
      </trkpt>
      <trkpt lat="44.31719" lon="4.2414">
        <ele>238.06</ele>
        <time>2013-12-08T10:51:57Z</time>
      </trkpt>
      <trkpt lat="44.31719" lon="4.2414">
        <ele>238.06</ele>
        <time>2013-12-08T10:52:23Z</time>
      </trkpt>
      <trkpt lat="44.31719" lon="4.2414">
        <ele>238.06</ele>
        <time>2013-12-08T10:52:42Z</time>
      </trkpt>
      <trkpt lat="44.31719" lon="4.2414">
        <ele>238.06</ele>
        <time>2013-12-08T10:53:08Z</time>
      </trkpt>
      <trkpt lat="44.31719" lon="4.2414">
        <ele>238.06</ele>
        <time>2013-12-08T10:53:31Z</time>
      </trkpt>
      <trkpt lat="44.31726" lon="4.24154">
        <ele>238.54</ele>
        <time>2013-12-08T10:53:41Z</time>
      </trkpt>
      <trkpt lat="44.31741" lon="4.24179">
        <ele>241.43</ele>
        <time>2013-12-08T10:53:55Z</time>
      </trkpt>
      <trkpt lat="44.31743" lon="4.24182">
        <ele>241.91</ele>
        <time>2013-12-08T10:53:57Z</time>
      </trkpt>
      <trkpt lat="44.31745" lon="4.24184">
        <ele>242.39</ele>
        <time>2013-12-08T10:54:02Z</time>
      </trkpt>
      <trkpt lat="44.31754" lon="4.24186">
        <ele>244.31</ele>
        <time>2013-12-08T10:54:11Z</time>
      </trkpt>
      <trkpt lat="44.31756" lon="4.2419">
        <ele>245.75</ele>
        <time>2013-12-08T10:54:15Z</time>
      </trkpt>
      <trkpt lat="44.31758" lon="4.24198">
        <ele>246.72</ele>
        <time>2013-12-08T10:54:28Z</time>
      </trkpt>
      <trkpt lat="44.31759" lon="4.24203">
        <ele>247.68</ele>
        <time>2013-12-08T10:54:34Z</time>
      </trkpt>
      <trkpt lat="44.31758" lon="4.24217">
        <ele>249.12</ele>
        <time>2013-12-08T10:54:47Z</time>
      </trkpt>
      <trkpt lat="44.31755" lon="4.24221">
        <ele>249.6</ele>
        <time>2013-12-08T10:54:54Z</time>
      </trkpt>
      <trkpt lat="44.31749" lon="4.24224">
        <ele>249.6</ele>
        <time>2013-12-08T10:55:08Z</time>
      </trkpt>
      <trkpt lat="44.3174" lon="4.24231">
        <ele>249.6</ele>
        <time>2013-12-08T10:55:19Z</time>
      </trkpt>
      <trkpt lat="44.31738" lon="4.24233">
        <ele>249.6</ele>
        <time>2013-12-08T10:55:21Z</time>
      </trkpt>
      <trkpt lat="44.31739" lon="4.24237">
        <ele>251.52</ele>
        <time>2013-12-08T10:55:30Z</time>
      </trkpt>
      <trkpt lat="44.31734" lon="4.2425">
        <ele>253.93</ele>
        <time>2013-12-08T10:55:43Z</time>
      </trkpt>
      <trkpt lat="44.31731" lon="4.24257">
        <ele>255.37</ele>
        <time>2013-12-08T10:55:55Z</time>
      </trkpt>
      <trkpt lat="44.3173" lon="4.24269">
        <ele>257.77</ele>
        <time>2013-12-08T10:56:08Z</time>
      </trkpt>
      <trkpt lat="44.31732" lon="4.24282">
        <ele>261.14</ele>
        <time>2013-12-08T10:56:19Z</time>
      </trkpt>
      <trkpt lat="44.31734" lon="4.24285">
        <ele>261.62</ele>
        <time>2013-12-08T10:56:22Z</time>
      </trkpt>
      <trkpt lat="44.31738" lon="4.24289">
        <ele>262.58</ele>
        <time>2013-12-08T10:56:34Z</time>
      </trkpt>
      <trkpt lat="44.31741" lon="4.24296">
        <ele>264.5</ele>
        <time>2013-12-08T10:56:51Z</time>
      </trkpt>
      <trkpt lat="44.31743" lon="4.24306">
        <ele>266.9</ele>
        <time>2013-12-08T10:57:06Z</time>
      </trkpt>
      <trkpt lat="44.31745" lon="4.24307">
        <ele>267.86</ele>
        <time>2013-12-08T10:57:12Z</time>
      </trkpt>
      <trkpt lat="44.31749" lon="4.24309">
        <ele>269.31</ele>
        <time>2013-12-08T10:57:24Z</time>
      </trkpt>
      <trkpt lat="44.31752" lon="4.24309">
        <ele>271.23</ele>
        <time>2013-12-08T10:57:39Z</time>
      </trkpt>
      <trkpt lat="44.31753" lon="4.24314">
        <ele>272.67</ele>
        <time>2013-12-08T10:58:05Z</time>
      </trkpt>
      <trkpt lat="44.31759" lon="4.2432">
        <ele>275.56</ele>
        <time>2013-12-08T10:58:17Z</time>
      </trkpt>
      <trkpt lat="44.31763" lon="4.24329">
        <ele>277.96</ele>
        <time>2013-12-08T10:58:28Z</time>
      </trkpt>
      <trkpt lat="44.31774" lon="4.24335">
        <ele>281.32</ele>
        <time>2013-12-08T10:58:43Z</time>
      </trkpt>
      <trkpt lat="44.31774" lon="4.24335">
        <ele>281.8</ele>
        <time>2013-12-08T10:59:12Z</time>
      </trkpt>
      <trkpt lat="44.31784" lon="4.24342">
        <ele>284.21</ele>
        <time>2013-12-08T10:59:27Z</time>
      </trkpt>
      <trkpt lat="44.31796" lon="4.24351">
        <ele>287.09</ele>
        <time>2013-12-08T10:59:41Z</time>
      </trkpt>
      <trkpt lat="44.31809" lon="4.24363">
        <ele>290.46</ele>
        <time>2013-12-08T10:59:58Z</time>
      </trkpt>
      <trkpt lat="44.31809" lon="4.24363">
        <ele>290.46</ele>
        <time>2013-12-08T11:00:28Z</time>
      </trkpt>
      <trkpt lat="44.31817" lon="4.24369">
        <ele>291.9</ele>
        <time>2013-12-08T11:00:50Z</time>
      </trkpt>
      <trkpt lat="44.31834" lon="4.24383">
        <ele>294.78</ele>
        <time>2013-12-08T11:01:07Z</time>
      </trkpt>
      <trkpt lat="44.3184" lon="4.24388">
        <ele>296.22</ele>
        <time>2013-12-08T11:01:17Z</time>
      </trkpt>
      <trkpt lat="44.31852" lon="4.24399">
        <ele>299.11</ele>
        <time>2013-12-08T11:01:33Z</time>
      </trkpt>
      <trkpt lat="44.31852" lon="4.24399">
        <ele>299.11</ele>
        <time>2013-12-08T11:01:37Z</time>
      </trkpt>
      <trkpt lat="44.31854" lon="4.24401">
        <ele>299.11</ele>
        <time>2013-12-08T11:01:39Z</time>
      </trkpt>
      <trkpt lat="44.31869" lon="4.24414">
        <ele>302.47</ele>
        <time>2013-12-08T11:01:55Z</time>
      </trkpt>
      <trkpt lat="44.31877" lon="4.24423">
        <ele>305.84</ele>
        <time>2013-12-08T11:02:08Z</time>
      </trkpt>
      <trkpt lat="44.31881" lon="4.24428">
        <ele>307.28</ele>
        <time>2013-12-08T11:02:24Z</time>
      </trkpt>
      <trkpt lat="44.31887" lon="4.24432">
        <ele>309.2</ele>
        <time>2013-12-08T11:02:39Z</time>
      </trkpt>
      <trkpt lat="44.31892" lon="4.24435">
        <ele>311.12</ele>
        <time>2013-12-08T11:03:00Z</time>
      </trkpt>
      <trkpt lat="44.31901" lon="4.24444">
        <ele>314.01</ele>
        <time>2013-12-08T11:03:12Z</time>
      </trkpt>
      <trkpt lat="44.31908" lon="4.24451">
        <ele>317.37</ele>
        <time>2013-12-08T11:03:23Z</time>
      </trkpt>
      <trkpt lat="44.31917" lon="4.24459">
        <ele>320.26</ele>
        <time>2013-12-08T11:03:35Z</time>
      </trkpt>
      <trkpt lat="44.31921" lon="4.24462">
        <ele>322.18</ele>
        <time>2013-12-08T11:03:49Z</time>
      </trkpt>
      <trkpt lat="44.31931" lon="4.2447">
        <ele>325.06</ele>
        <time>2013-12-08T11:04:03Z</time>
      </trkpt>
      <trkpt lat="44.31932" lon="4.2447">
        <ele>325.54</ele>
        <time>2013-12-08T11:04:15Z</time>
      </trkpt>
      <trkpt lat="44.31939" lon="4.24474">
        <ele>327.95</ele>
        <time>2013-12-08T11:04:29Z</time>
      </trkpt>
      <trkpt lat="44.31946" lon="4.24486">
        <ele>330.83</ele>
        <time>2013-12-08T11:04:42Z</time>
      </trkpt>
      <trkpt lat="44.31949" lon="4.24493">
        <ele>333.23</ele>
        <time>2013-12-08T11:04:56Z</time>
      </trkpt>
      <trkpt lat="44.31955" lon="4.24504">
        <ele>335.64</ele>
        <time>2013-12-08T11:05:11Z</time>
      </trkpt>
      <trkpt lat="44.31955" lon="4.24507">
        <ele>336.12</ele>
        <time>2013-12-08T11:05:13Z</time>
      </trkpt>
      <trkpt lat="44.31958" lon="4.24518">
        <ele>338.04</ele>
        <time>2013-12-08T11:05:22Z</time>
      </trkpt>
      <trkpt lat="44.3196" lon="4.24523">
        <ele>339</ele>
        <time>2013-12-08T11:05:26Z</time>
      </trkpt>
      <trkpt lat="44.31963" lon="4.2453">
        <ele>340.92</ele>
        <time>2013-12-08T11:05:42Z</time>
      </trkpt>
      <trkpt lat="44.31968" lon="4.24539">
        <ele>342.37</ele>
        <time>2013-12-08T11:06:05Z</time>
      </trkpt>
      <trkpt lat="44.31973" lon="4.24557">
        <ele>345.73</ele>
        <time>2013-12-08T11:06:18Z</time>
      </trkpt>
      <trkpt lat="44.31976" lon="4.24564">
        <ele>347.17</ele>
        <time>2013-12-08T11:06:23Z</time>
      </trkpt>
      <trkpt lat="44.31981" lon="4.24568">
        <ele>347.65</ele>
        <time>2013-12-08T11:06:28Z</time>
      </trkpt>
      <trkpt lat="44.31989" lon="4.2457">
        <ele>348.62</ele>
        <time>2013-12-08T11:06:43Z</time>
      </trkpt>
      <trkpt lat="44.31989" lon="4.2457">
        <ele>348.62</ele>
        <time>2013-12-08T11:07:03Z</time>
      </trkpt>
      <trkpt lat="44.31992" lon="4.24566">
        <ele>348.62</ele>
        <time>2013-12-08T11:13:47Z</time>
      </trkpt>
      <trkpt lat="44.31992" lon="4.24567">
        <ele>348.62</ele>
        <time>2013-12-08T11:13:48Z</time>
      </trkpt>
      <trkpt lat="44.31994" lon="4.24571">
        <ele>347.65</ele>
        <time>2013-12-08T11:14:00Z</time>
      </trkpt>
      <trkpt lat="44.31999" lon="4.24576">
        <ele>347.65</ele>
        <time>2013-12-08T11:14:04Z</time>
      </trkpt>
      <trkpt lat="44.3203" lon="4.24591">
        <ele>347.65</ele>
        <time>2013-12-08T11:14:20Z</time>
      </trkpt>
      <trkpt lat="44.32063" lon="4.24609">
        <ele>349.1</ele>
        <time>2013-12-08T11:14:36Z</time>
      </trkpt>
      <trkpt lat="44.32089" lon="4.24616">
        <ele>351.98</ele>
        <time>2013-12-08T11:14:50Z</time>
      </trkpt>
      <trkpt lat="44.32113" lon="4.24622">
        <ele>354.86</ele>
        <time>2013-12-08T11:15:05Z</time>
      </trkpt>
      <trkpt lat="44.32134" lon="4.2462">
        <ele>358.23</ele>
        <time>2013-12-08T11:15:19Z</time>
      </trkpt>
      <trkpt lat="44.32152" lon="4.24619">
        <ele>361.11</ele>
        <time>2013-12-08T11:15:32Z</time>
      </trkpt>
      <trkpt lat="44.3217" lon="4.2462">
        <ele>364.48</ele>
        <time>2013-12-08T11:15:46Z</time>
      </trkpt>
      <trkpt lat="44.32181" lon="4.24621">
        <ele>366.4</ele>
        <time>2013-12-08T11:15:55Z</time>
      </trkpt>
      <trkpt lat="44.32186" lon="4.24622">
        <ele>367.36</ele>
        <time>2013-12-08T11:15:59Z</time>
      </trkpt>
      <trkpt lat="44.32198" lon="4.24622">
        <ele>369.28</ele>
        <time>2013-12-08T11:16:09Z</time>
      </trkpt>
      <trkpt lat="44.3221" lon="4.24625">
        <ele>372.17</ele>
        <time>2013-12-08T11:16:19Z</time>
      </trkpt>
      <trkpt lat="44.32216" lon="4.24629">
        <ele>372.65</ele>
        <time>2013-12-08T11:16:24Z</time>
      </trkpt>
      <trkpt lat="44.32228" lon="4.24643">
        <ele>374.57</ele>
        <time>2013-12-08T11:16:40Z</time>
      </trkpt>
      <trkpt lat="44.32228" lon="4.24643">
        <ele>374.09</ele>
        <time>2013-12-08T11:16:56Z</time>
      </trkpt>
      <trkpt lat="44.32228" lon="4.24643">
        <ele>374.09</ele>
        <time>2013-12-08T11:17:23Z</time>
      </trkpt>
      <trkpt lat="44.32228" lon="4.24643">
        <ele>374.09</ele>
        <time>2013-12-08T11:17:39Z</time>
      </trkpt>
      <trkpt lat="44.32238" lon="4.24669">
        <ele>370.73</ele>
        <time>2013-12-08T11:17:46Z</time>
      </trkpt>
      <trkpt lat="44.32248" lon="4.24693">
        <ele>368.32</ele>
        <time>2013-12-08T11:17:49Z</time>
      </trkpt>
      <trkpt lat="44.3226" lon="4.24724">
        <ele>371.69</ele>
        <time>2013-12-08T11:17:55Z</time>
      </trkpt>
      <trkpt lat="44.32261" lon="4.24727">
        <ele>372.17</ele>
        <time>2013-12-08T11:17:56Z</time>
      </trkpt>
      <trkpt lat="44.32276" lon="4.24758">
        <ele>374.57</ele>
        <time>2013-12-08T11:18:10Z</time>
      </trkpt>
      <trkpt lat="44.32284" lon="4.24781">
        <ele>377.45</ele>
        <time>2013-12-08T11:18:22Z</time>
      </trkpt>
      <trkpt lat="44.32293" lon="4.24811">
        <ele>380.82</ele>
        <time>2013-12-08T11:18:37Z</time>
      </trkpt>
      <trkpt lat="44.32295" lon="4.24828">
        <ele>380.82</ele>
        <time>2013-12-08T11:18:50Z</time>
      </trkpt>
      <trkpt lat="44.32295" lon="4.2483">
        <ele>380.34</ele>
        <time>2013-12-08T11:19:12Z</time>
      </trkpt>
      <trkpt lat="44.32295" lon="4.24832">
        <ele>380.34</ele>
        <time>2013-12-08T11:19:13Z</time>
      </trkpt>
      <trkpt lat="44.32295" lon="4.24834">
        <ele>380.34</ele>
        <time>2013-12-08T11:19:14Z</time>
      </trkpt>
      <trkpt lat="44.32293" lon="4.24837">
        <ele>379.86</ele>
        <time>2013-12-08T11:19:15Z</time>
      </trkpt>
      <trkpt lat="44.32292" lon="4.24841">
        <ele>379.86</ele>
        <time>2013-12-08T11:19:16Z</time>
      </trkpt>
      <trkpt lat="44.3229" lon="4.24846">
        <ele>378.9</ele>
        <time>2013-12-08T11:19:17Z</time>
      </trkpt>
      <trkpt lat="44.32288" lon="4.24853">
        <ele>378.42</ele>
        <time>2013-12-08T11:19:18Z</time>
      </trkpt>
      <trkpt lat="44.32286" lon="4.2486">
        <ele>377.45</ele>
        <time>2013-12-08T11:19:19Z</time>
      </trkpt>
      <trkpt lat="44.32283" lon="4.24867">
        <ele>376.97</ele>
        <time>2013-12-08T11:19:20Z</time>
      </trkpt>
      <trkpt lat="44.32273" lon="4.24892">
        <ele>373.61</ele>
        <time>2013-12-08T11:19:23Z</time>
      </trkpt>
      <trkpt lat="44.32248" lon="4.24966">
        <ele>372.17</ele>
        <time>2013-12-08T11:19:32Z</time>
      </trkpt>
      <trkpt lat="44.32244" lon="4.2499">
        <ele>371.21</ele>
        <time>2013-12-08T11:19:35Z</time>
      </trkpt>
      <trkpt lat="44.32236" lon="4.25056">
        <ele>370.24</ele>
        <time>2013-12-08T11:19:43Z</time>
      </trkpt>
      <trkpt lat="44.32236" lon="4.25078">
        <ele>371.21</ele>
        <time>2013-12-08T11:19:48Z</time>
      </trkpt>
      <trkpt lat="44.32237" lon="4.25081">
        <ele>371.21</ele>
        <time>2013-12-08T11:19:49Z</time>
      </trkpt>
      <trkpt lat="44.32237" lon="4.25084">
        <ele>371.21</ele>
        <time>2013-12-08T11:19:50Z</time>
      </trkpt>
      <trkpt lat="44.32236" lon="4.25087">
        <ele>371.69</ele>
        <time>2013-12-08T11:19:51Z</time>
      </trkpt>
      <trkpt lat="44.32236" lon="4.2509">
        <ele>371.69</ele>
        <time>2013-12-08T11:19:52Z</time>
      </trkpt>
      <trkpt lat="44.32236" lon="4.25094">
        <ele>372.17</ele>
        <time>2013-12-08T11:19:53Z</time>
      </trkpt>
      <trkpt lat="44.32236" lon="4.25098">
        <ele>372.17</ele>
        <time>2013-12-08T11:19:54Z</time>
      </trkpt>
      <trkpt lat="44.32235" lon="4.25102">
        <ele>372.17</ele>
        <time>2013-12-08T11:19:55Z</time>
      </trkpt>
      <trkpt lat="44.32234" lon="4.2513">
        <ele>375.05</ele>
        <time>2013-12-08T11:20:05Z</time>
      </trkpt>
      <trkpt lat="44.32232" lon="4.25135">
        <ele>376.01</ele>
        <time>2013-12-08T11:20:15Z</time>
      </trkpt>
      <trkpt lat="44.32232" lon="4.25139">
        <ele>376.97</ele>
        <time>2013-12-08T11:20:23Z</time>
      </trkpt>
      <trkpt lat="44.32233" lon="4.25141">
        <ele>376.97</ele>
        <time>2013-12-08T11:20:24Z</time>
      </trkpt>
      <trkpt lat="44.32233" lon="4.25142">
        <ele>377.45</ele>
        <time>2013-12-08T11:20:25Z</time>
      </trkpt>
      <trkpt lat="44.32234" lon="4.25144">
        <ele>377.45</ele>
        <time>2013-12-08T11:20:26Z</time>
      </trkpt>
      <trkpt lat="44.32235" lon="4.25149">
        <ele>377.94</ele>
        <time>2013-12-08T11:20:32Z</time>
      </trkpt>
      <trkpt lat="44.32236" lon="4.25151">
        <ele>377.94</ele>
        <time>2013-12-08T11:20:46Z</time>
      </trkpt>
      <trkpt lat="44.32238" lon="4.25152">
        <ele>377.94</ele>
        <time>2013-12-08T11:20:47Z</time>
      </trkpt>
      <trkpt lat="44.32239" lon="4.25153">
        <ele>378.42</ele>
        <time>2013-12-08T11:20:48Z</time>
      </trkpt>
      <trkpt lat="44.32243" lon="4.25155">
        <ele>378.42</ele>
        <time>2013-12-08T11:20:50Z</time>
      </trkpt>
      <trkpt lat="44.32245" lon="4.25157">
        <ele>378.9</ele>
        <time>2013-12-08T11:20:51Z</time>
      </trkpt>
      <trkpt lat="44.32268" lon="4.25185">
        <ele>381.78</ele>
        <time>2013-12-08T11:21:04Z</time>
      </trkpt>
      <trkpt lat="44.32279" lon="4.25196">
        <ele>383.22</ele>
        <time>2013-12-08T11:21:12Z</time>
      </trkpt>
      <trkpt lat="44.32294" lon="4.25209">
        <ele>384.66</ele>
        <time>2013-12-08T11:21:26Z</time>
      </trkpt>
      <trkpt lat="44.32297" lon="4.25211">
        <ele>384.66</ele>
        <time>2013-12-08T11:21:28Z</time>
      </trkpt>
      <trkpt lat="44.32311" lon="4.25226">
        <ele>386.59</ele>
        <time>2013-12-08T11:21:41Z</time>
      </trkpt>
      <trkpt lat="44.32314" lon="4.25229">
        <ele>387.55</ele>
        <time>2013-12-08T11:21:44Z</time>
      </trkpt>
      <trkpt lat="44.32315" lon="4.2523">
        <ele>387.55</ele>
        <time>2013-12-08T11:21:45Z</time>
      </trkpt>
      <trkpt lat="44.32316" lon="4.25232">
        <ele>387.55</ele>
        <time>2013-12-08T11:21:46Z</time>
      </trkpt>
      <trkpt lat="44.32317" lon="4.25234">
        <ele>387.55</ele>
        <time>2013-12-08T11:21:47Z</time>
      </trkpt>
      <trkpt lat="44.32318" lon="4.25236">
        <ele>387.55</ele>
        <time>2013-12-08T11:21:48Z</time>
      </trkpt>
      <trkpt lat="44.32319" lon="4.25237">
        <ele>388.03</ele>
        <time>2013-12-08T11:21:49Z</time>
      </trkpt>
      <trkpt lat="44.3232" lon="4.25238">
        <ele>388.03</ele>
        <time>2013-12-08T11:21:50Z</time>
      </trkpt>
      <trkpt lat="44.32321" lon="4.2524">
        <ele>388.03</ele>
        <time>2013-12-08T11:21:51Z</time>
      </trkpt>
      <trkpt lat="44.32322" lon="4.25241">
        <ele>388.03</ele>
        <time>2013-12-08T11:21:52Z</time>
      </trkpt>
      <trkpt lat="44.32328" lon="4.25247">
        <ele>388.51</ele>
        <time>2013-12-08T11:22:08Z</time>
      </trkpt>
      <trkpt lat="44.32331" lon="4.25249">
        <ele>388.03</ele>
        <time>2013-12-08T11:22:20Z</time>
      </trkpt>
      <trkpt lat="44.32333" lon="4.25247">
        <ele>388.51</ele>
        <time>2013-12-08T11:22:34Z</time>
      </trkpt>
      <trkpt lat="44.32333" lon="4.25247">
        <ele>388.51</ele>
        <time>2013-12-08T11:22:56Z</time>
      </trkpt>
      <trkpt lat="44.32333" lon="4.25247">
        <ele>388.51</ele>
        <time>2013-12-08T11:23:09Z</time>
      </trkpt>
      <trkpt lat="44.32334" lon="4.2525">
        <ele>388.03</ele>
        <time>2013-12-08T11:23:24Z</time>
      </trkpt>
      <trkpt lat="44.32335" lon="4.25251">
        <ele>388.03</ele>
        <time>2013-12-08T11:23:25Z</time>
      </trkpt>
      <trkpt lat="44.32337" lon="4.25252">
        <ele>388.03</ele>
        <time>2013-12-08T11:23:26Z</time>
      </trkpt>
      <trkpt lat="44.32339" lon="4.25252">
        <ele>388.03</ele>
        <time>2013-12-08T11:23:27Z</time>
      </trkpt>
      <trkpt lat="44.32341" lon="4.25252">
        <ele>388.03</ele>
        <time>2013-12-08T11:23:28Z</time>
      </trkpt>
      <trkpt lat="44.32343" lon="4.25252">
        <ele>388.03</ele>
        <time>2013-12-08T11:23:29Z</time>
      </trkpt>
      <trkpt lat="44.32345" lon="4.25253">
        <ele>388.03</ele>
        <time>2013-12-08T11:23:30Z</time>
      </trkpt>
      <trkpt lat="44.32381" lon="4.2527">
        <ele>384.18</ele>
        <time>2013-12-08T11:23:41Z</time>
      </trkpt>
      <trkpt lat="44.3239" lon="4.25276">
        <ele>383.22</ele>
        <time>2013-12-08T11:23:43Z</time>
      </trkpt>
      <trkpt lat="44.32395" lon="4.25279">
        <ele>383.22</ele>
        <time>2013-12-08T11:23:44Z</time>
      </trkpt>
      <trkpt lat="44.32399" lon="4.25282">
        <ele>382.26</ele>
        <time>2013-12-08T11:23:45Z</time>
      </trkpt>
      <trkpt lat="44.32437" lon="4.2531">
        <ele>379.86</ele>
        <time>2013-12-08T11:23:53Z</time>
      </trkpt>
      <trkpt lat="44.32442" lon="4.25313">
        <ele>379.86</ele>
        <time>2013-12-08T11:23:54Z</time>
      </trkpt>
      <trkpt lat="44.32455" lon="4.25322">
        <ele>379.86</ele>
        <time>2013-12-08T11:23:57Z</time>
      </trkpt>
      <trkpt lat="44.32459" lon="4.25324">
        <ele>380.34</ele>
        <time>2013-12-08T11:23:58Z</time>
      </trkpt>
      <trkpt lat="44.32463" lon="4.25327">
        <ele>380.34</ele>
        <time>2013-12-08T11:23:59Z</time>
      </trkpt>
      <trkpt lat="44.32467" lon="4.25329">
        <ele>380.34</ele>
        <time>2013-12-08T11:24:00Z</time>
      </trkpt>
      <trkpt lat="44.3247" lon="4.25331">
        <ele>380.34</ele>
        <time>2013-12-08T11:24:01Z</time>
      </trkpt>
      <trkpt lat="44.32474" lon="4.25332">
        <ele>380.34</ele>
        <time>2013-12-08T11:24:02Z</time>
      </trkpt>
      <trkpt lat="44.32511" lon="4.25346">
        <ele>382.74</ele>
        <time>2013-12-08T11:24:15Z</time>
      </trkpt>
      <trkpt lat="44.32532" lon="4.25346">
        <ele>385.63</ele>
        <time>2013-12-08T11:24:29Z</time>
      </trkpt>
      <trkpt lat="44.32542" lon="4.25353">
        <ele>388.51</ele>
        <time>2013-12-08T11:24:38Z</time>
      </trkpt>
      <trkpt lat="44.32549" lon="4.25355">
        <ele>389.95</ele>
        <time>2013-12-08T11:24:49Z</time>
      </trkpt>
      <trkpt lat="44.32551" lon="4.25353">
        <ele>389.95</ele>
        <time>2013-12-08T11:25:04Z</time>
      </trkpt>
      <trkpt lat="44.32552" lon="4.25352">
        <ele>389.95</ele>
        <time>2013-12-08T11:25:05Z</time>
      </trkpt>
      <trkpt lat="44.32575" lon="4.25335">
        <ele>391.87</ele>
        <time>2013-12-08T11:25:21Z</time>
      </trkpt>
      <trkpt lat="44.32591" lon="4.25333">
        <ele>393.32</ele>
        <time>2013-12-08T11:25:31Z</time>
      </trkpt>
      <trkpt lat="44.32593" lon="4.25331">
        <ele>393.32</ele>
        <time>2013-12-08T11:25:32Z</time>
      </trkpt>
      <trkpt lat="44.32594" lon="4.2533">
        <ele>393.32</ele>
        <time>2013-12-08T11:25:42Z</time>
      </trkpt>
      <trkpt lat="44.32594" lon="4.2533">
        <ele>392.84</ele>
        <time>2013-12-08T11:25:47Z</time>
      </trkpt>
      <trkpt lat="44.32595" lon="4.25328">
        <ele>392.84</ele>
        <time>2013-12-08T11:25:48Z</time>
      </trkpt>
      <trkpt lat="44.32596" lon="4.25324">
        <ele>392.36</ele>
        <time>2013-12-08T11:25:49Z</time>
      </trkpt>
      <trkpt lat="44.32597" lon="4.2532">
        <ele>391.87</ele>
        <time>2013-12-08T11:25:50Z</time>
      </trkpt>
      <trkpt lat="44.32597" lon="4.25314">
        <ele>390.91</ele>
        <time>2013-12-08T11:25:51Z</time>
      </trkpt>
      <trkpt lat="44.32596" lon="4.25309">
        <ele>390.43</ele>
        <time>2013-12-08T11:25:52Z</time>
      </trkpt>
      <trkpt lat="44.32595" lon="4.25304">
        <ele>389.95</ele>
        <time>2013-12-08T11:25:53Z</time>
      </trkpt>
      <trkpt lat="44.32595" lon="4.25298">
        <ele>389.47</ele>
        <time>2013-12-08T11:25:54Z</time>
      </trkpt>
      <trkpt lat="44.32596" lon="4.25293">
        <ele>388.51</ele>
        <time>2013-12-08T11:25:55Z</time>
      </trkpt>
      <trkpt lat="44.32597" lon="4.25287">
        <ele>387.55</ele>
        <time>2013-12-08T11:25:56Z</time>
      </trkpt>
      <trkpt lat="44.32598" lon="4.25281">
        <ele>387.07</ele>
        <time>2013-12-08T11:25:57Z</time>
      </trkpt>
      <trkpt lat="44.32601" lon="4.25261">
        <ele>383.7</ele>
        <time>2013-12-08T11:26:00Z</time>
      </trkpt>
      <trkpt lat="44.32603" lon="4.25255">
        <ele>383.22</ele>
        <time>2013-12-08T11:26:01Z</time>
      </trkpt>
      <trkpt lat="44.32605" lon="4.25248">
        <ele>381.78</ele>
        <time>2013-12-08T11:26:02Z</time>
      </trkpt>
      <trkpt lat="44.32605" lon="4.25242">
        <ele>380.34</ele>
        <time>2013-12-08T11:26:03Z</time>
      </trkpt>
      <trkpt lat="44.32606" lon="4.25236">
        <ele>380.34</ele>
        <time>2013-12-08T11:26:04Z</time>
      </trkpt>
      <trkpt lat="44.32606" lon="4.2523">
        <ele>379.38</ele>
        <time>2013-12-08T11:26:05Z</time>
      </trkpt>
      <trkpt lat="44.32606" lon="4.25223">
        <ele>378.9</ele>
        <time>2013-12-08T11:26:06Z</time>
      </trkpt>
      <trkpt lat="44.32605" lon="4.25217">
        <ele>378.42</ele>
        <time>2013-12-08T11:26:07Z</time>
      </trkpt>
      <trkpt lat="44.32605" lon="4.2521">
        <ele>378.42</ele>
        <time>2013-12-08T11:26:08Z</time>
      </trkpt>
      <trkpt lat="44.32606" lon="4.25204">
        <ele>378.42</ele>
        <time>2013-12-08T11:26:09Z</time>
      </trkpt>
      <trkpt lat="44.32607" lon="4.25199">
        <ele>378.42</ele>
        <time>2013-12-08T11:26:10Z</time>
      </trkpt>
      <trkpt lat="44.3261" lon="4.25194">
        <ele>378.42</ele>
        <time>2013-12-08T11:26:11Z</time>
      </trkpt>
      <trkpt lat="44.32613" lon="4.25191">
        <ele>378.42</ele>
        <time>2013-12-08T11:26:12Z</time>
      </trkpt>
      <trkpt lat="44.32616" lon="4.25188">
        <ele>377.94</ele>
        <time>2013-12-08T11:26:13Z</time>
      </trkpt>
      <trkpt lat="44.3263" lon="4.25176">
        <ele>377.45</ele>
        <time>2013-12-08T11:26:18Z</time>
      </trkpt>
      <trkpt lat="44.32649" lon="4.25161">
        <ele>375.05</ele>
        <time>2013-12-08T11:26:24Z</time>
      </trkpt>
      <trkpt lat="44.32654" lon="4.25159">
        <ele>374.57</ele>
        <time>2013-12-08T11:26:25Z</time>
      </trkpt>
      <trkpt lat="44.32658" lon="4.25158">
        <ele>374.09</ele>
        <time>2013-12-08T11:26:26Z</time>
      </trkpt>
      <trkpt lat="44.32669" lon="4.25156">
        <ele>372.65</ele>
        <time>2013-12-08T11:26:28Z</time>
      </trkpt>
      <trkpt lat="44.32674" lon="4.25157">
        <ele>371.21</ele>
        <time>2013-12-08T11:26:29Z</time>
      </trkpt>
      <trkpt lat="44.32685" lon="4.2516">
        <ele>370.24</ele>
        <time>2013-12-08T11:26:31Z</time>
      </trkpt>
      <trkpt lat="44.32696" lon="4.25161">
        <ele>369.28</ele>
        <time>2013-12-08T11:26:33Z</time>
      </trkpt>
      <trkpt lat="44.327" lon="4.25164">
        <ele>369.28</ele>
        <time>2013-12-08T11:26:34Z</time>
      </trkpt>
      <trkpt lat="44.32709" lon="4.25169">
        <ele>368.32</ele>
        <time>2013-12-08T11:26:36Z</time>
      </trkpt>
      <trkpt lat="44.32714" lon="4.25169">
        <ele>367.84</ele>
        <time>2013-12-08T11:26:37Z</time>
      </trkpt>
      <trkpt lat="44.32719" lon="4.25169">
        <ele>367.36</ele>
        <time>2013-12-08T11:26:38Z</time>
      </trkpt>
      <trkpt lat="44.32749" lon="4.25166">
        <ele>367.84</ele>
        <time>2013-12-08T11:26:49Z</time>
      </trkpt>
      <trkpt lat="44.32754" lon="4.25162">
        <ele>367.84</ele>
        <time>2013-12-08T11:26:52Z</time>
      </trkpt>
      <trkpt lat="44.32756" lon="4.25163">
        <ele>367.84</ele>
        <time>2013-12-08T11:26:53Z</time>
      </trkpt>
      <trkpt lat="44.32758" lon="4.25164">
        <ele>367.84</ele>
        <time>2013-12-08T11:27:00Z</time>
      </trkpt>
      <trkpt lat="44.32759" lon="4.25164">
        <ele>367.84</ele>
        <time>2013-12-08T11:27:01Z</time>
      </trkpt>
      <trkpt lat="44.32761" lon="4.25164">
        <ele>368.32</ele>
        <time>2013-12-08T11:27:02Z</time>
      </trkpt>
      <trkpt lat="44.32786" lon="4.25159">
        <ele>369.76</ele>
        <time>2013-12-08T11:27:12Z</time>
      </trkpt>
      <trkpt lat="44.32812" lon="4.25151">
        <ele>371.69</ele>
        <time>2013-12-08T11:27:23Z</time>
      </trkpt>
      <trkpt lat="44.32847" lon="4.25154">
        <ele>371.21</ele>
        <time>2013-12-08T11:27:35Z</time>
      </trkpt>
      <trkpt lat="44.32891" lon="4.2516">
        <ele>370.24</ele>
        <time>2013-12-08T11:27:48Z</time>
      </trkpt>
      <trkpt lat="44.32933" lon="4.25169">
        <ele>371.21</ele>
        <time>2013-12-08T11:28:02Z</time>
      </trkpt>
      <trkpt lat="44.32956" lon="4.25186">
        <ele>369.76</ele>
        <time>2013-12-08T11:28:11Z</time>
      </trkpt>
      <trkpt lat="44.3296" lon="4.25189">
        <ele>369.76</ele>
        <time>2013-12-08T11:28:12Z</time>
      </trkpt>
      <trkpt lat="44.32964" lon="4.25192">
        <ele>368.8</ele>
        <time>2013-12-08T11:28:13Z</time>
      </trkpt>
      <trkpt lat="44.32968" lon="4.25196">
        <ele>368.32</ele>
        <time>2013-12-08T11:28:14Z</time>
      </trkpt>
      <trkpt lat="44.32972" lon="4.25201">
        <ele>367.84</ele>
        <time>2013-12-08T11:28:15Z</time>
      </trkpt>
      <trkpt lat="44.32976" lon="4.25204">
        <ele>367.36</ele>
        <time>2013-12-08T11:28:16Z</time>
      </trkpt>
      <trkpt lat="44.32981" lon="4.25207">
        <ele>366.88</ele>
        <time>2013-12-08T11:28:17Z</time>
      </trkpt>
      <trkpt lat="44.32987" lon="4.2521">
        <ele>365.92</ele>
        <time>2013-12-08T11:28:18Z</time>
      </trkpt>
      <trkpt lat="44.32992" lon="4.25214">
        <ele>365.92</ele>
        <time>2013-12-08T11:28:19Z</time>
      </trkpt>
      <trkpt lat="44.33009" lon="4.25229">
        <ele>363.52</ele>
        <time>2013-12-08T11:28:22Z</time>
      </trkpt>
      <trkpt lat="44.33015" lon="4.25233">
        <ele>363.52</ele>
        <time>2013-12-08T11:28:23Z</time>
      </trkpt>
      <trkpt lat="44.3302" lon="4.25237">
        <ele>363.04</ele>
        <time>2013-12-08T11:28:24Z</time>
      </trkpt>
      <trkpt lat="44.33031" lon="4.25243">
        <ele>363.52</ele>
        <time>2013-12-08T11:28:26Z</time>
      </trkpt>
      <trkpt lat="44.33072" lon="4.2526">
        <ele>364.96</ele>
        <time>2013-12-08T11:28:37Z</time>
      </trkpt>
      <trkpt lat="44.33092" lon="4.25268">
        <ele>366.4</ele>
        <time>2013-12-08T11:28:46Z</time>
      </trkpt>
      <trkpt lat="44.33094" lon="4.25271">
        <ele>366.4</ele>
        <time>2013-12-08T11:28:47Z</time>
      </trkpt>
      <trkpt lat="44.33097" lon="4.25274">
        <ele>366.4</ele>
        <time>2013-12-08T11:28:48Z</time>
      </trkpt>
      <trkpt lat="44.33099" lon="4.25277">
        <ele>366.4</ele>
        <time>2013-12-08T11:28:49Z</time>
      </trkpt>
      <trkpt lat="44.33102" lon="4.25279">
        <ele>366.4</ele>
        <time>2013-12-08T11:28:50Z</time>
      </trkpt>
      <trkpt lat="44.33104" lon="4.2528">
        <ele>366.4</ele>
        <time>2013-12-08T11:28:51Z</time>
      </trkpt>
      <trkpt lat="44.33136" lon="4.25296">
        <ele>366.88</ele>
        <time>2013-12-08T11:29:04Z</time>
      </trkpt>
      <trkpt lat="44.3314" lon="4.25295">
        <ele>366.88</ele>
        <time>2013-12-08T11:29:13Z</time>
      </trkpt>
      <trkpt lat="44.33143" lon="4.25298">
        <ele>366.88</ele>
        <time>2013-12-08T11:29:23Z</time>
      </trkpt>
      <trkpt lat="44.33144" lon="4.25299">
        <ele>366.88</ele>
        <time>2013-12-08T11:29:24Z</time>
      </trkpt>
      <trkpt lat="44.33175" lon="4.25318">
        <ele>363.04</ele>
        <time>2013-12-08T11:29:33Z</time>
      </trkpt>
      <trkpt lat="44.33184" lon="4.25325">
        <ele>362.07</ele>
        <time>2013-12-08T11:29:35Z</time>
      </trkpt>
      <trkpt lat="44.33202" lon="4.25338">
        <ele>361.59</ele>
        <time>2013-12-08T11:29:39Z</time>
      </trkpt>
      <trkpt lat="44.33207" lon="4.2534">
        <ele>361.59</ele>
        <time>2013-12-08T11:29:40Z</time>
      </trkpt>
      <trkpt lat="44.33211" lon="4.25342">
        <ele>361.59</ele>
        <time>2013-12-08T11:29:41Z</time>
      </trkpt>
      <trkpt lat="44.33214" lon="4.25344">
        <ele>361.59</ele>
        <time>2013-12-08T11:29:42Z</time>
      </trkpt>
      <trkpt lat="44.33217" lon="4.25347">
        <ele>362.07</ele>
        <time>2013-12-08T11:29:43Z</time>
      </trkpt>
      <trkpt lat="44.3322" lon="4.2535">
        <ele>362.07</ele>
        <time>2013-12-08T11:29:44Z</time>
      </trkpt>
      <trkpt lat="44.33246" lon="4.25371">
        <ele>364.48</ele>
        <time>2013-12-08T11:29:56Z</time>
      </trkpt>
      <trkpt lat="44.33263" lon="4.25387">
        <ele>367.36</ele>
        <time>2013-12-08T11:30:08Z</time>
      </trkpt>
      <trkpt lat="44.33266" lon="4.25389">
        <ele>368.32</ele>
        <time>2013-12-08T11:30:10Z</time>
      </trkpt>
      <trkpt lat="44.33277" lon="4.25402">
        <ele>370.73</ele>
        <time>2013-12-08T11:30:20Z</time>
      </trkpt>
      <trkpt lat="44.33278" lon="4.25403">
        <ele>371.21</ele>
        <time>2013-12-08T11:30:21Z</time>
      </trkpt>
      <trkpt lat="44.33279" lon="4.25403">
        <ele>371.21</ele>
        <time>2013-12-08T11:30:22Z</time>
      </trkpt>
      <trkpt lat="44.33281" lon="4.25405">
        <ele>371.69</ele>
        <time>2013-12-08T11:30:24Z</time>
      </trkpt>
      <trkpt lat="44.33282" lon="4.25407">
        <ele>372.17</ele>
        <time>2013-12-08T11:30:25Z</time>
      </trkpt>
      <trkpt lat="44.33282" lon="4.25408">
        <ele>372.65</ele>
        <time>2013-12-08T11:30:26Z</time>
      </trkpt>
      <trkpt lat="44.33283" lon="4.2541">
        <ele>372.65</ele>
        <time>2013-12-08T11:30:27Z</time>
      </trkpt>
      <trkpt lat="44.33284" lon="4.25411">
        <ele>372.65</ele>
        <time>2013-12-08T11:30:28Z</time>
      </trkpt>
      <trkpt lat="44.33284" lon="4.25413">
        <ele>373.13</ele>
        <time>2013-12-08T11:30:29Z</time>
      </trkpt>
      <trkpt lat="44.33285" lon="4.25414">
        <ele>373.61</ele>
        <time>2013-12-08T11:30:30Z</time>
      </trkpt>
      <trkpt lat="44.33286" lon="4.25416">
        <ele>373.61</ele>
        <time>2013-12-08T11:30:31Z</time>
      </trkpt>
      <trkpt lat="44.33286" lon="4.25418">
        <ele>373.61</ele>
        <time>2013-12-08T11:30:32Z</time>
      </trkpt>
      <trkpt lat="44.33287" lon="4.2542">
        <ele>374.09</ele>
        <time>2013-12-08T11:30:33Z</time>
      </trkpt>
      <trkpt lat="44.33288" lon="4.25421">
        <ele>374.09</ele>
        <time>2013-12-08T11:30:34Z</time>
      </trkpt>
      <trkpt lat="44.33289" lon="4.25423">
        <ele>374.09</ele>
        <time>2013-12-08T11:30:35Z</time>
      </trkpt>
      <trkpt lat="44.33289" lon="4.25425">
        <ele>374.57</ele>
        <time>2013-12-08T11:30:36Z</time>
      </trkpt>
      <trkpt lat="44.33298" lon="4.25441">
        <ele>376.01</ele>
        <time>2013-12-08T11:30:47Z</time>
      </trkpt>
      <trkpt lat="44.33299" lon="4.25442">
        <ele>376.01</ele>
        <time>2013-12-08T11:30:48Z</time>
      </trkpt>
      <trkpt lat="44.33314" lon="4.25457">
        <ele>376.49</ele>
        <time>2013-12-08T11:31:01Z</time>
      </trkpt>
      <trkpt lat="44.33331" lon="4.25474">
        <ele>375.05</ele>
        <time>2013-12-08T11:31:12Z</time>
      </trkpt>
      <trkpt lat="44.33344" lon="4.25494">
        <ele>373.13</ele>
        <time>2013-12-08T11:31:17Z</time>
      </trkpt>
      <trkpt lat="44.33347" lon="4.25498">
        <ele>372.65</ele>
        <time>2013-12-08T11:31:18Z</time>
      </trkpt>
      <trkpt lat="44.33351" lon="4.25501">
        <ele>372.17</ele>
        <time>2013-12-08T11:31:19Z</time>
      </trkpt>
      <trkpt lat="44.33355" lon="4.25503">
        <ele>372.17</ele>
        <time>2013-12-08T11:31:20Z</time>
      </trkpt>
      <trkpt lat="44.33358" lon="4.25504">
        <ele>372.65</ele>
        <time>2013-12-08T11:31:21Z</time>
      </trkpt>
      <trkpt lat="44.33361" lon="4.25505">
        <ele>372.65</ele>
        <time>2013-12-08T11:31:22Z</time>
      </trkpt>
      <trkpt lat="44.33368" lon="4.25505">
        <ele>374.09</ele>
        <time>2013-12-08T11:31:27Z</time>
      </trkpt>
      <trkpt lat="44.33369" lon="4.25506">
        <ele>374.09</ele>
        <time>2013-12-08T11:31:28Z</time>
      </trkpt>
      <trkpt lat="44.33371" lon="4.25506">
        <ele>374.09</ele>
        <time>2013-12-08T11:31:29Z</time>
      </trkpt>
      <trkpt lat="44.33372" lon="4.25507">
        <ele>374.09</ele>
        <time>2013-12-08T11:31:30Z</time>
      </trkpt>
      <trkpt lat="44.33374" lon="4.25508">
        <ele>374.57</ele>
        <time>2013-12-08T11:31:31Z</time>
      </trkpt>
      <trkpt lat="44.33375" lon="4.2551">
        <ele>374.57</ele>
        <time>2013-12-08T11:31:32Z</time>
      </trkpt>
      <trkpt lat="44.33376" lon="4.25511">
        <ele>374.57</ele>
        <time>2013-12-08T11:31:33Z</time>
      </trkpt>
      <trkpt lat="44.33377" lon="4.25513">
        <ele>374.57</ele>
        <time>2013-12-08T11:31:34Z</time>
      </trkpt>
      <trkpt lat="44.33378" lon="4.25515">
        <ele>375.05</ele>
        <time>2013-12-08T11:31:35Z</time>
      </trkpt>
      <trkpt lat="44.33386" lon="4.25531">
        <ele>376.01</ele>
        <time>2013-12-08T11:31:44Z</time>
      </trkpt>
      <trkpt lat="44.3339" lon="4.25536">
        <ele>376.97</ele>
        <time>2013-12-08T11:31:48Z</time>
      </trkpt>
      <trkpt lat="44.33391" lon="4.25538">
        <ele>376.97</ele>
        <time>2013-12-08T11:31:49Z</time>
      </trkpt>
      <trkpt lat="44.33392" lon="4.25539">
        <ele>377.45</ele>
        <time>2013-12-08T11:31:50Z</time>
      </trkpt>
      <trkpt lat="44.33393" lon="4.2554">
        <ele>377.94</ele>
        <time>2013-12-08T11:31:51Z</time>
      </trkpt>
      <trkpt lat="44.33394" lon="4.25541">
        <ele>377.94</ele>
        <time>2013-12-08T11:31:52Z</time>
      </trkpt>
      <trkpt lat="44.33395" lon="4.25543">
        <ele>377.94</ele>
        <time>2013-12-08T11:31:53Z</time>
      </trkpt>
      <trkpt lat="44.33396" lon="4.25544">
        <ele>378.42</ele>
        <time>2013-12-08T11:31:54Z</time>
      </trkpt>
      <trkpt lat="44.33397" lon="4.25545">
        <ele>378.42</ele>
        <time>2013-12-08T11:31:55Z</time>
      </trkpt>
      <trkpt lat="44.33398" lon="4.25547">
        <ele>378.9</ele>
        <time>2013-12-08T11:31:56Z</time>
      </trkpt>
      <trkpt lat="44.33399" lon="4.25548">
        <ele>378.9</ele>
        <time>2013-12-08T11:31:57Z</time>
      </trkpt>
      <trkpt lat="44.334" lon="4.25549">
        <ele>379.38</ele>
        <time>2013-12-08T11:31:58Z</time>
      </trkpt>
      <trkpt lat="44.33401" lon="4.2555">
        <ele>379.38</ele>
        <time>2013-12-08T11:31:59Z</time>
      </trkpt>
      <trkpt lat="44.33402" lon="4.25552">
        <ele>379.38</ele>
        <time>2013-12-08T11:32:00Z</time>
      </trkpt>
      <trkpt lat="44.33403" lon="4.25553">
        <ele>379.86</ele>
        <time>2013-12-08T11:32:01Z</time>
      </trkpt>
      <trkpt lat="44.33404" lon="4.25554">
        <ele>379.86</ele>
        <time>2013-12-08T11:32:02Z</time>
      </trkpt>
      <trkpt lat="44.33405" lon="4.25556">
        <ele>380.34</ele>
        <time>2013-12-08T11:32:03Z</time>
      </trkpt>
      <trkpt lat="44.33406" lon="4.25557">
        <ele>380.34</ele>
        <time>2013-12-08T11:32:04Z</time>
      </trkpt>
      <trkpt lat="44.33407" lon="4.25559">
        <ele>380.34</ele>
        <time>2013-12-08T11:32:05Z</time>
      </trkpt>
      <trkpt lat="44.33408" lon="4.2556">
        <ele>380.34</ele>
        <time>2013-12-08T11:32:06Z</time>
      </trkpt>
      <trkpt lat="44.33409" lon="4.25562">
        <ele>380.34</ele>
        <time>2013-12-08T11:32:07Z</time>
      </trkpt>
      <trkpt lat="44.3341" lon="4.25563">
        <ele>380.82</ele>
        <time>2013-12-08T11:32:08Z</time>
      </trkpt>
      <trkpt lat="44.33411" lon="4.25565">
        <ele>380.82</ele>
        <time>2013-12-08T11:32:09Z</time>
      </trkpt>
      <trkpt lat="44.33426" lon="4.25579">
        <ele>382.74</ele>
        <time>2013-12-08T11:32:22Z</time>
      </trkpt>
      <trkpt lat="44.33443" lon="4.25602">
        <ele>383.7</ele>
        <time>2013-12-08T11:32:38Z</time>
      </trkpt>
      <trkpt lat="44.33443" lon="4.25603">
        <ele>383.7</ele>
        <time>2013-12-08T11:32:39Z</time>
      </trkpt>
      <trkpt lat="44.33444" lon="4.25604">
        <ele>383.7</ele>
        <time>2013-12-08T11:32:52Z</time>
      </trkpt>
      <trkpt lat="44.33444" lon="4.25604">
        <ele>383.7</ele>
        <time>2013-12-08T11:33:16Z</time>
      </trkpt>
      <trkpt lat="44.33444" lon="4.25604">
        <ele>383.7</ele>
        <time>2013-12-08T11:33:49Z</time>
      </trkpt>
      <trkpt lat="44.33445" lon="4.25607">
        <ele>383.7</ele>
        <time>2013-12-08T11:34:02Z</time>
      </trkpt>
      <trkpt lat="44.33446" lon="4.25608">
        <ele>383.7</ele>
        <time>2013-12-08T11:34:03Z</time>
      </trkpt>
      <trkpt lat="44.33446" lon="4.2561">
        <ele>383.7</ele>
        <time>2013-12-08T11:34:04Z</time>
      </trkpt>
      <trkpt lat="44.33447" lon="4.25611">
        <ele>383.7</ele>
        <time>2013-12-08T11:34:05Z</time>
      </trkpt>
      <trkpt lat="44.33447" lon="4.25613">
        <ele>383.7</ele>
        <time>2013-12-08T11:34:06Z</time>
      </trkpt>
      <trkpt lat="44.33448" lon="4.25614">
        <ele>383.7</ele>
        <time>2013-12-08T11:34:07Z</time>
      </trkpt>
      <trkpt lat="44.33448" lon="4.25616">
        <ele>383.7</ele>
        <time>2013-12-08T11:34:17Z</time>
      </trkpt>
      <trkpt lat="44.33449" lon="4.25617">
        <ele>383.22</ele>
        <time>2013-12-08T11:34:35Z</time>
      </trkpt>
      <trkpt lat="44.33451" lon="4.25618">
        <ele>383.22</ele>
        <time>2013-12-08T11:34:36Z</time>
      </trkpt>
      <trkpt lat="44.33453" lon="4.2562">
        <ele>382.74</ele>
        <time>2013-12-08T11:34:37Z</time>
      </trkpt>
      <trkpt lat="44.33454" lon="4.25621">
        <ele>382.74</ele>
        <time>2013-12-08T11:34:38Z</time>
      </trkpt>
      <trkpt lat="44.33457" lon="4.25622">
        <ele>382.74</ele>
        <time>2013-12-08T11:34:39Z</time>
      </trkpt>
      <trkpt lat="44.33493" lon="4.25636">
        <ele>381.3</ele>
        <time>2013-12-08T11:34:50Z</time>
      </trkpt>
      <trkpt lat="44.33532" lon="4.25644">
        <ele>382.26</ele>
        <time>2013-12-08T11:35:03Z</time>
      </trkpt>
      <trkpt lat="44.33549" lon="4.25652">
        <ele>382.74</ele>
        <time>2013-12-08T11:35:14Z</time>
      </trkpt>
      <trkpt lat="44.33549" lon="4.25652">
        <ele>382.74</ele>
        <time>2013-12-08T11:35:37Z</time>
      </trkpt>
      <trkpt lat="44.3355" lon="4.25654">
        <ele>382.26</ele>
        <time>2013-12-08T11:35:48Z</time>
      </trkpt>
      <trkpt lat="44.3355" lon="4.25656">
        <ele>382.26</ele>
        <time>2013-12-08T11:35:49Z</time>
      </trkpt>
      <trkpt lat="44.33551" lon="4.25657">
        <ele>382.26</ele>
        <time>2013-12-08T11:35:50Z</time>
      </trkpt>
      <trkpt lat="44.33572" lon="4.25683">
        <ele>379.86</ele>
        <time>2013-12-08T11:36:00Z</time>
      </trkpt>
      <trkpt lat="44.33597" lon="4.25724">
        <ele>378.9</ele>
        <time>2013-12-08T11:36:11Z</time>
      </trkpt>
      <trkpt lat="44.33621" lon="4.25773">
        <ele>379.38</ele>
        <time>2013-12-08T11:36:24Z</time>
      </trkpt>
      <trkpt lat="44.33636" lon="4.25805">
        <ele>381.78</ele>
        <time>2013-12-08T11:36:35Z</time>
      </trkpt>
      <trkpt lat="44.33643" lon="4.25838">
        <ele>383.7</ele>
        <time>2013-12-08T11:36:48Z</time>
      </trkpt>
      <trkpt lat="44.33654" lon="4.25871">
        <ele>385.63</ele>
        <time>2013-12-08T11:37:03Z</time>
      </trkpt>
      <trkpt lat="44.33655" lon="4.25871">
        <ele>385.63</ele>
        <time>2013-12-08T11:37:15Z</time>
      </trkpt>
      <trkpt lat="44.33662" lon="4.25881">
        <ele>385.15</ele>
        <time>2013-12-08T11:37:29Z</time>
      </trkpt>
      <trkpt lat="44.33669" lon="4.25888">
        <ele>384.18</ele>
        <time>2013-12-08T11:37:33Z</time>
      </trkpt>
      <trkpt lat="44.33672" lon="4.25889">
        <ele>384.18</ele>
        <time>2013-12-08T11:37:34Z</time>
      </trkpt>
      <trkpt lat="44.33676" lon="4.25891">
        <ele>383.7</ele>
        <time>2013-12-08T11:37:35Z</time>
      </trkpt>
      <trkpt lat="44.33682" lon="4.25896">
        <ele>382.74</ele>
        <time>2013-12-08T11:37:37Z</time>
      </trkpt>
      <trkpt lat="44.33685" lon="4.259">
        <ele>382.26</ele>
        <time>2013-12-08T11:37:38Z</time>
      </trkpt>
      <trkpt lat="44.33697" lon="4.25915">
        <ele>381.78</ele>
        <time>2013-12-08T11:37:47Z</time>
      </trkpt>
      <trkpt lat="44.33699" lon="4.2592">
        <ele>381.3</ele>
        <time>2013-12-08T11:37:54Z</time>
      </trkpt>
      <trkpt lat="44.33701" lon="4.25921">
        <ele>381.3</ele>
        <time>2013-12-08T11:37:55Z</time>
      </trkpt>
      <trkpt lat="44.33704" lon="4.25922">
        <ele>381.3</ele>
        <time>2013-12-08T11:37:56Z</time>
      </trkpt>
      <trkpt lat="44.33706" lon="4.25923">
        <ele>381.3</ele>
        <time>2013-12-08T11:37:57Z</time>
      </trkpt>
      <trkpt lat="44.33709" lon="4.25924">
        <ele>381.3</ele>
        <time>2013-12-08T11:37:58Z</time>
      </trkpt>
      <trkpt lat="44.33711" lon="4.25925">
        <ele>381.3</ele>
        <time>2013-12-08T11:37:59Z</time>
      </trkpt>
      <trkpt lat="44.33714" lon="4.25926">
        <ele>381.3</ele>
        <time>2013-12-08T11:38:00Z</time>
      </trkpt>
      <trkpt lat="44.33717" lon="4.25928">
        <ele>381.3</ele>
        <time>2013-12-08T11:38:01Z</time>
      </trkpt>
      <trkpt lat="44.33719" lon="4.25929">
        <ele>381.3</ele>
        <time>2013-12-08T11:38:02Z</time>
      </trkpt>
      <trkpt lat="44.33739" lon="4.25932">
        <ele>383.22</ele>
        <time>2013-12-08T11:38:12Z</time>
      </trkpt>
      <trkpt lat="44.33741" lon="4.25933">
        <ele>383.7</ele>
        <time>2013-12-08T11:38:13Z</time>
      </trkpt>
      <trkpt lat="44.33742" lon="4.25933">
        <ele>383.7</ele>
        <time>2013-12-08T11:38:14Z</time>
      </trkpt>
      <trkpt lat="44.33744" lon="4.25935">
        <ele>384.18</ele>
        <time>2013-12-08T11:38:15Z</time>
      </trkpt>
      <trkpt lat="44.33745" lon="4.25937">
        <ele>384.18</ele>
        <time>2013-12-08T11:38:16Z</time>
      </trkpt>
      <trkpt lat="44.33754" lon="4.25963">
        <ele>386.11</ele>
        <time>2013-12-08T11:38:27Z</time>
      </trkpt>
      <trkpt lat="44.33773" lon="4.25984">
        <ele>388.51</ele>
        <time>2013-12-08T11:38:42Z</time>
      </trkpt>
      <trkpt lat="44.33785" lon="4.25996">
        <ele>389.47</ele>
        <time>2013-12-08T11:38:51Z</time>
      </trkpt>
      <trkpt lat="44.33787" lon="4.25997">
        <ele>389.47</ele>
        <time>2013-12-08T11:38:52Z</time>
      </trkpt>
      <trkpt lat="44.33789" lon="4.25998">
        <ele>389.47</ele>
        <time>2013-12-08T11:38:53Z</time>
      </trkpt>
      <trkpt lat="44.3379" lon="4.25999">
        <ele>389.47</ele>
        <time>2013-12-08T11:38:54Z</time>
      </trkpt>
      <trkpt lat="44.33792" lon="4.26001">
        <ele>389.95</ele>
        <time>2013-12-08T11:38:55Z</time>
      </trkpt>
      <trkpt lat="44.33793" lon="4.26002">
        <ele>389.95</ele>
        <time>2013-12-08T11:38:56Z</time>
      </trkpt>
      <trkpt lat="44.33818" lon="4.26019">
        <ele>388.51</ele>
        <time>2013-12-08T11:39:08Z</time>
      </trkpt>
      <trkpt lat="44.33841" lon="4.26037">
        <ele>385.15</ele>
        <time>2013-12-08T11:39:14Z</time>
      </trkpt>
      <trkpt lat="44.33847" lon="4.2604">
        <ele>384.66</ele>
        <time>2013-12-08T11:39:15Z</time>
      </trkpt>
      <trkpt lat="44.33852" lon="4.26043">
        <ele>383.7</ele>
        <time>2013-12-08T11:39:16Z</time>
      </trkpt>
      <trkpt lat="44.33857" lon="4.26045">
        <ele>383.22</ele>
        <time>2013-12-08T11:39:17Z</time>
      </trkpt>
      <trkpt lat="44.33862" lon="4.26047">
        <ele>382.26</ele>
        <time>2013-12-08T11:39:18Z</time>
      </trkpt>
      <trkpt lat="44.33868" lon="4.26049">
        <ele>380.82</ele>
        <time>2013-12-08T11:39:19Z</time>
      </trkpt>
      <trkpt lat="44.33873" lon="4.2605">
        <ele>380.34</ele>
        <time>2013-12-08T11:39:20Z</time>
      </trkpt>
      <trkpt lat="44.339" lon="4.26057">
        <ele>378.42</ele>
        <time>2013-12-08T11:39:25Z</time>
      </trkpt>
      <trkpt lat="44.33905" lon="4.26057">
        <ele>378.42</ele>
        <time>2013-12-08T11:39:26Z</time>
      </trkpt>
      <trkpt lat="44.3392" lon="4.26055">
        <ele>378.42</ele>
        <time>2013-12-08T11:39:29Z</time>
      </trkpt>
      <trkpt lat="44.33953" lon="4.26049">
        <ele>379.38</ele>
        <time>2013-12-08T11:39:40Z</time>
      </trkpt>
      <trkpt lat="44.33963" lon="4.26049">
        <ele>381.3</ele>
        <time>2013-12-08T11:39:46Z</time>
      </trkpt>
      <trkpt lat="44.33964" lon="4.26049">
        <ele>381.78</ele>
        <time>2013-12-08T11:39:47Z</time>
      </trkpt>
      <trkpt lat="44.33966" lon="4.26049">
        <ele>381.78</ele>
        <time>2013-12-08T11:39:48Z</time>
      </trkpt>
      <trkpt lat="44.33968" lon="4.26049">
        <ele>381.78</ele>
        <time>2013-12-08T11:39:49Z</time>
      </trkpt>
      <trkpt lat="44.3397" lon="4.26049">
        <ele>381.78</ele>
        <time>2013-12-08T11:39:50Z</time>
      </trkpt>
      <trkpt lat="44.33971" lon="4.26049">
        <ele>382.26</ele>
        <time>2013-12-08T11:39:51Z</time>
      </trkpt>
      <trkpt lat="44.33973" lon="4.2605">
        <ele>382.26</ele>
        <time>2013-12-08T11:39:52Z</time>
      </trkpt>
      <trkpt lat="44.33974" lon="4.26049">
        <ele>382.26</ele>
        <time>2013-12-08T11:39:53Z</time>
      </trkpt>
      <trkpt lat="44.33989" lon="4.26053">
        <ele>384.18</ele>
        <time>2013-12-08T11:40:01Z</time>
      </trkpt>
      <trkpt lat="44.3399" lon="4.26054">
        <ele>384.18</ele>
        <time>2013-12-08T11:40:02Z</time>
      </trkpt>
      <trkpt lat="44.33992" lon="4.26055">
        <ele>384.18</ele>
        <time>2013-12-08T11:40:03Z</time>
      </trkpt>
      <trkpt lat="44.33993" lon="4.26057">
        <ele>384.18</ele>
        <time>2013-12-08T11:40:04Z</time>
      </trkpt>
      <trkpt lat="44.33995" lon="4.26058">
        <ele>384.18</ele>
        <time>2013-12-08T11:40:05Z</time>
      </trkpt>
      <trkpt lat="44.34002" lon="4.26061">
        <ele>384.18</ele>
        <time>2013-12-08T11:40:09Z</time>
      </trkpt>
      <trkpt lat="44.34004" lon="4.26062">
        <ele>384.18</ele>
        <time>2013-12-08T11:40:10Z</time>
      </trkpt>
      <trkpt lat="44.34006" lon="4.26064">
        <ele>383.7</ele>
        <time>2013-12-08T11:40:11Z</time>
      </trkpt>
      <trkpt lat="44.34008" lon="4.26066">
        <ele>383.7</ele>
        <time>2013-12-08T11:40:12Z</time>
      </trkpt>
      <trkpt lat="44.3401" lon="4.26069">
        <ele>383.22</ele>
        <time>2013-12-08T11:40:13Z</time>
      </trkpt>
      <trkpt lat="44.34013" lon="4.26072">
        <ele>382.74</ele>
        <time>2013-12-08T11:40:14Z</time>
      </trkpt>
      <trkpt lat="44.34037" lon="4.26088">
        <ele>381.3</ele>
        <time>2013-12-08T11:40:22Z</time>
      </trkpt>
      <trkpt lat="44.34039" lon="4.26089">
        <ele>381.3</ele>
        <time>2013-12-08T11:40:23Z</time>
      </trkpt>
      <trkpt lat="44.34057" lon="4.26121">
        <ele>380.34</ele>
        <time>2013-12-08T11:40:34Z</time>
      </trkpt>
      <trkpt lat="44.34056" lon="4.26123">
        <ele>380.34</ele>
        <time>2013-12-08T11:40:44Z</time>
      </trkpt>
      <trkpt lat="44.34056" lon="4.26123">
        <ele>380.34</ele>
        <time>2013-12-08T11:41:00Z</time>
      </trkpt>
      <trkpt lat="44.34056" lon="4.26124">
        <ele>380.34</ele>
        <time>2013-12-08T11:41:15Z</time>
      </trkpt>
      <trkpt lat="44.34058" lon="4.26125">
        <ele>379.86</ele>
        <time>2013-12-08T11:41:22Z</time>
      </trkpt>
      <trkpt lat="44.3406" lon="4.26126">
        <ele>380.34</ele>
        <time>2013-12-08T11:41:23Z</time>
      </trkpt>
      <trkpt lat="44.34061" lon="4.26127">
        <ele>379.86</ele>
        <time>2013-12-08T11:41:24Z</time>
      </trkpt>
      <trkpt lat="44.34063" lon="4.26129">
        <ele>379.86</ele>
        <time>2013-12-08T11:41:25Z</time>
      </trkpt>
      <trkpt lat="44.34064" lon="4.26131">
        <ele>379.86</ele>
        <time>2013-12-08T11:41:26Z</time>
      </trkpt>
      <trkpt lat="44.34066" lon="4.26133">
        <ele>379.86</ele>
        <time>2013-12-08T11:41:27Z</time>
      </trkpt>
      <trkpt lat="44.34088" lon="4.26138">
        <ele>380.34</ele>
        <time>2013-12-08T11:41:37Z</time>
      </trkpt>
      <trkpt lat="44.3411" lon="4.26151">
        <ele>380.82</ele>
        <time>2013-12-08T11:41:48Z</time>
      </trkpt>
      <trkpt lat="44.3414" lon="4.26177">
        <ele>378.9</ele>
        <time>2013-12-08T11:41:58Z</time>
      </trkpt>
      <trkpt lat="44.34151" lon="4.2619">
        <ele>378.9</ele>
        <time>2013-12-08T11:42:02Z</time>
      </trkpt>
      <trkpt lat="44.34155" lon="4.26193">
        <ele>378.9</ele>
        <time>2013-12-08T11:42:03Z</time>
      </trkpt>
      <trkpt lat="44.34159" lon="4.26196">
        <ele>378.42</ele>
        <time>2013-12-08T11:42:04Z</time>
      </trkpt>
      <trkpt lat="44.34164" lon="4.26199">
        <ele>377.94</ele>
        <time>2013-12-08T11:42:05Z</time>
      </trkpt>
      <trkpt lat="44.34169" lon="4.26202">
        <ele>377.45</ele>
        <time>2013-12-08T11:42:06Z</time>
      </trkpt>
      <trkpt lat="44.34174" lon="4.26205">
        <ele>376.97</ele>
        <time>2013-12-08T11:42:07Z</time>
      </trkpt>
      <trkpt lat="44.34177" lon="4.26209">
        <ele>376.49</ele>
        <time>2013-12-08T11:42:08Z</time>
      </trkpt>
      <trkpt lat="44.34188" lon="4.26216">
        <ele>376.97</ele>
        <time>2013-12-08T11:42:11Z</time>
      </trkpt>
      <trkpt lat="44.34193" lon="4.26217">
        <ele>376.49</ele>
        <time>2013-12-08T11:42:12Z</time>
      </trkpt>
      <trkpt lat="44.34234" lon="4.26214">
        <ele>376.97</ele>
        <time>2013-12-08T11:42:22Z</time>
      </trkpt>
      <trkpt lat="44.34265" lon="4.26195">
        <ele>379.86</ele>
        <time>2013-12-08T11:42:34Z</time>
      </trkpt>
      <trkpt lat="44.34288" lon="4.26179">
        <ele>382.74</ele>
        <time>2013-12-08T11:42:46Z</time>
      </trkpt>
      <trkpt lat="44.34295" lon="4.26171">
        <ele>383.7</ele>
        <time>2013-12-08T11:42:52Z</time>
      </trkpt>
      <trkpt lat="44.34296" lon="4.26171">
        <ele>384.18</ele>
        <time>2013-12-08T11:42:53Z</time>
      </trkpt>
      <trkpt lat="44.34297" lon="4.26172">
        <ele>384.18</ele>
        <time>2013-12-08T11:42:54Z</time>
      </trkpt>
      <trkpt lat="44.34298" lon="4.26173">
        <ele>384.18</ele>
        <time>2013-12-08T11:42:55Z</time>
      </trkpt>
      <trkpt lat="44.34298" lon="4.26175">
        <ele>384.18</ele>
        <time>2013-12-08T11:42:57Z</time>
      </trkpt>
      <trkpt lat="44.34298" lon="4.26177">
        <ele>384.66</ele>
        <time>2013-12-08T11:42:58Z</time>
      </trkpt>
      <trkpt lat="44.34298" lon="4.26179">
        <ele>384.66</ele>
        <time>2013-12-08T11:42:59Z</time>
      </trkpt>
      <trkpt lat="44.34297" lon="4.26181">
        <ele>384.66</ele>
        <time>2013-12-08T11:43:00Z</time>
      </trkpt>
      <trkpt lat="44.34297" lon="4.26183">
        <ele>383.7</ele>
        <time>2013-12-08T11:43:14Z</time>
      </trkpt>
      <trkpt lat="44.34297" lon="4.26185">
        <ele>384.66</ele>
        <time>2013-12-08T11:43:23Z</time>
      </trkpt>
      <trkpt lat="44.34296" lon="4.26187">
        <ele>384.66</ele>
        <time>2013-12-08T11:43:24Z</time>
      </trkpt>
      <trkpt lat="44.34296" lon="4.26188">
        <ele>385.15</ele>
        <time>2013-12-08T11:43:25Z</time>
      </trkpt>
      <trkpt lat="44.34295" lon="4.26191">
        <ele>385.63</ele>
        <time>2013-12-08T11:43:27Z</time>
      </trkpt>
      <trkpt lat="44.34295" lon="4.26193">
        <ele>386.11</ele>
        <time>2013-12-08T11:43:28Z</time>
      </trkpt>
      <trkpt lat="44.34293" lon="4.26208">
        <ele>388.03</ele>
        <time>2013-12-08T11:43:38Z</time>
      </trkpt>
      <trkpt lat="44.34292" lon="4.2622">
        <ele>388.99</ele>
        <time>2013-12-08T11:43:45Z</time>
      </trkpt>
      <trkpt lat="44.34292" lon="4.26222">
        <ele>389.47</ele>
        <time>2013-12-08T11:43:46Z</time>
      </trkpt>
      <trkpt lat="44.34292" lon="4.26224">
        <ele>389.47</ele>
        <time>2013-12-08T11:43:47Z</time>
      </trkpt>
      <trkpt lat="44.34292" lon="4.26226">
        <ele>389.47</ele>
        <time>2013-12-08T11:43:48Z</time>
      </trkpt>
      <trkpt lat="44.34292" lon="4.26229">
        <ele>389.47</ele>
        <time>2013-12-08T11:43:49Z</time>
      </trkpt>
      <trkpt lat="44.34292" lon="4.26231">
        <ele>389.95</ele>
        <time>2013-12-08T11:43:50Z</time>
      </trkpt>
      <trkpt lat="44.34292" lon="4.26232">
        <ele>389.95</ele>
        <time>2013-12-08T11:43:51Z</time>
      </trkpt>
      <trkpt lat="44.34292" lon="4.26235">
        <ele>389.95</ele>
        <time>2013-12-08T11:43:52Z</time>
      </trkpt>
      <trkpt lat="44.34294" lon="4.26255">
        <ele>391.87</ele>
        <time>2013-12-08T11:44:04Z</time>
      </trkpt>
      <trkpt lat="44.34293" lon="4.26281">
        <ele>393.8</ele>
        <time>2013-12-08T11:44:18Z</time>
      </trkpt>
      <trkpt lat="44.34292" lon="4.26298">
        <ele>395.24</ele>
        <time>2013-12-08T11:44:27Z</time>
      </trkpt>
      <trkpt lat="44.34292" lon="4.26299">
        <ele>395.24</ele>
        <time>2013-12-08T11:44:28Z</time>
      </trkpt>
      <trkpt lat="44.34292" lon="4.26301">
        <ele>395.24</ele>
        <time>2013-12-08T11:44:29Z</time>
      </trkpt>
      <trkpt lat="44.34292" lon="4.26303">
        <ele>395.24</ele>
        <time>2013-12-08T11:44:30Z</time>
      </trkpt>
      <trkpt lat="44.34292" lon="4.26305">
        <ele>395.72</ele>
        <time>2013-12-08T11:44:31Z</time>
      </trkpt>
      <trkpt lat="44.34293" lon="4.26308">
        <ele>395.72</ele>
        <time>2013-12-08T11:44:32Z</time>
      </trkpt>
      <trkpt lat="44.34293" lon="4.2631">
        <ele>395.72</ele>
        <time>2013-12-08T11:44:33Z</time>
      </trkpt>
      <trkpt lat="44.34293" lon="4.26312">
        <ele>396.2</ele>
        <time>2013-12-08T11:44:34Z</time>
      </trkpt>
      <trkpt lat="44.34294" lon="4.26313">
        <ele>396.2</ele>
        <time>2013-12-08T11:44:35Z</time>
      </trkpt>
      <trkpt lat="44.34294" lon="4.26315">
        <ele>396.2</ele>
        <time>2013-12-08T11:44:36Z</time>
      </trkpt>
      <trkpt lat="44.34294" lon="4.26317">
        <ele>396.2</ele>
        <time>2013-12-08T11:44:37Z</time>
      </trkpt>
      <trkpt lat="44.34297" lon="4.26324">
        <ele>396.2</ele>
        <time>2013-12-08T11:44:42Z</time>
      </trkpt>
      <trkpt lat="44.34297" lon="4.26326">
        <ele>395.72</ele>
        <time>2013-12-08T11:44:43Z</time>
      </trkpt>
      <trkpt lat="44.34298" lon="4.26328">
        <ele>395.72</ele>
        <time>2013-12-08T11:44:44Z</time>
      </trkpt>
      <trkpt lat="44.34298" lon="4.2633">
        <ele>395.72</ele>
        <time>2013-12-08T11:44:57Z</time>
      </trkpt>
      <trkpt lat="44.34299" lon="4.26331">
        <ele>395.72</ele>
        <time>2013-12-08T11:45:25Z</time>
      </trkpt>
      <trkpt lat="44.34302" lon="4.26334">
        <ele>395.72</ele>
        <time>2013-12-08T11:45:27Z</time>
      </trkpt>
      <trkpt lat="44.34304" lon="4.26337">
        <ele>395.24</ele>
        <time>2013-12-08T11:45:28Z</time>
      </trkpt>
      <trkpt lat="44.34307" lon="4.26339">
        <ele>394.76</ele>
        <time>2013-12-08T11:45:29Z</time>
      </trkpt>
      <trkpt lat="44.3431" lon="4.26343">
        <ele>394.28</ele>
        <time>2013-12-08T11:45:30Z</time>
      </trkpt>
      <trkpt lat="44.34313" lon="4.26348">
        <ele>393.32</ele>
        <time>2013-12-08T11:45:31Z</time>
      </trkpt>
      <trkpt lat="44.34317" lon="4.26354">
        <ele>391.87</ele>
        <time>2013-12-08T11:45:32Z</time>
      </trkpt>
      <trkpt lat="44.34321" lon="4.26359">
        <ele>391.39</ele>
        <time>2013-12-08T11:45:33Z</time>
      </trkpt>
      <trkpt lat="44.34325" lon="4.26363">
        <ele>390.91</ele>
        <time>2013-12-08T11:45:34Z</time>
      </trkpt>
      <trkpt lat="44.34329" lon="4.26367">
        <ele>390.43</ele>
        <time>2013-12-08T11:45:35Z</time>
      </trkpt>
      <trkpt lat="44.34334" lon="4.2637">
        <ele>390.43</ele>
        <time>2013-12-08T11:45:36Z</time>
      </trkpt>
      <trkpt lat="44.34338" lon="4.26373">
        <ele>390.43</ele>
        <time>2013-12-08T11:45:37Z</time>
      </trkpt>
      <trkpt lat="44.34342" lon="4.26377">
        <ele>389.95</ele>
        <time>2013-12-08T11:45:38Z</time>
      </trkpt>
      <trkpt lat="44.34347" lon="4.26379">
        <ele>389.95</ele>
        <time>2013-12-08T11:45:39Z</time>
      </trkpt>
      <trkpt lat="44.34357" lon="4.26381">
        <ele>389.95</ele>
        <time>2013-12-08T11:45:41Z</time>
      </trkpt>
      <trkpt lat="44.3436" lon="4.26383">
        <ele>389.95</ele>
        <time>2013-12-08T11:45:42Z</time>
      </trkpt>
      <trkpt lat="44.34366" lon="4.26388">
        <ele>389.95</ele>
        <time>2013-12-08T11:45:44Z</time>
      </trkpt>
      <trkpt lat="44.34368" lon="4.26392">
        <ele>390.43</ele>
        <time>2013-12-08T11:45:45Z</time>
      </trkpt>
      <trkpt lat="44.34369" lon="4.26396">
        <ele>390.43</ele>
        <time>2013-12-08T11:45:46Z</time>
      </trkpt>
      <trkpt lat="44.34371" lon="4.26401">
        <ele>389.95</ele>
        <time>2013-12-08T11:45:47Z</time>
      </trkpt>
      <trkpt lat="44.34372" lon="4.26406">
        <ele>389.95</ele>
        <time>2013-12-08T11:45:48Z</time>
      </trkpt>
      <trkpt lat="44.34374" lon="4.26411">
        <ele>389.47</ele>
        <time>2013-12-08T11:45:49Z</time>
      </trkpt>
      <trkpt lat="44.34375" lon="4.26416">
        <ele>388.99</ele>
        <time>2013-12-08T11:45:50Z</time>
      </trkpt>
      <trkpt lat="44.34377" lon="4.26421">
        <ele>388.51</ele>
        <time>2013-12-08T11:45:51Z</time>
      </trkpt>
      <trkpt lat="44.34379" lon="4.26427">
        <ele>387.55</ele>
        <time>2013-12-08T11:45:52Z</time>
      </trkpt>
      <trkpt lat="44.34382" lon="4.26432">
        <ele>387.07</ele>
        <time>2013-12-08T11:45:53Z</time>
      </trkpt>
      <trkpt lat="44.34385" lon="4.26437">
        <ele>386.59</ele>
        <time>2013-12-08T11:45:54Z</time>
      </trkpt>
      <trkpt lat="44.34389" lon="4.26442">
        <ele>385.63</ele>
        <time>2013-12-08T11:45:55Z</time>
      </trkpt>
      <trkpt lat="44.34393" lon="4.26447">
        <ele>384.66</ele>
        <time>2013-12-08T11:45:56Z</time>
      </trkpt>
      <trkpt lat="44.34396" lon="4.26454">
        <ele>384.18</ele>
        <time>2013-12-08T11:45:57Z</time>
      </trkpt>
      <trkpt lat="44.34398" lon="4.26461">
        <ele>382.74</ele>
        <time>2013-12-08T11:45:58Z</time>
      </trkpt>
      <trkpt lat="44.34399" lon="4.26468">
        <ele>382.26</ele>
        <time>2013-12-08T11:45:59Z</time>
      </trkpt>
      <trkpt lat="44.34401" lon="4.26475">
        <ele>381.3</ele>
        <time>2013-12-08T11:46:00Z</time>
      </trkpt>
      <trkpt lat="44.34403" lon="4.26482">
        <ele>380.34</ele>
        <time>2013-12-08T11:46:01Z</time>
      </trkpt>
      <trkpt lat="44.34406" lon="4.26489">
        <ele>379.38</ele>
        <time>2013-12-08T11:46:02Z</time>
      </trkpt>
      <trkpt lat="44.3441" lon="4.26497">
        <ele>378.9</ele>
        <time>2013-12-08T11:46:03Z</time>
      </trkpt>
      <trkpt lat="44.34425" lon="4.26523">
        <ele>375.53</ele>
        <time>2013-12-08T11:46:07Z</time>
      </trkpt>
      <trkpt lat="44.34433" lon="4.26534">
        <ele>373.61</ele>
        <time>2013-12-08T11:46:09Z</time>
      </trkpt>
      <trkpt lat="44.34437" lon="4.2654">
        <ele>373.13</ele>
        <time>2013-12-08T11:46:10Z</time>
      </trkpt>
      <trkpt lat="44.34439" lon="4.26547">
        <ele>372.65</ele>
        <time>2013-12-08T11:46:11Z</time>
      </trkpt>
      <trkpt lat="44.34442" lon="4.26554">
        <ele>372.17</ele>
        <time>2013-12-08T11:46:12Z</time>
      </trkpt>
      <trkpt lat="44.34445" lon="4.2656">
        <ele>371.69</ele>
        <time>2013-12-08T11:46:13Z</time>
      </trkpt>
      <trkpt lat="44.34448" lon="4.26565">
        <ele>371.69</ele>
        <time>2013-12-08T11:46:14Z</time>
      </trkpt>
      <trkpt lat="44.34452" lon="4.2657">
        <ele>371.21</ele>
        <time>2013-12-08T11:46:15Z</time>
      </trkpt>
      <trkpt lat="44.34456" lon="4.26574">
        <ele>370.24</ele>
        <time>2013-12-08T11:46:16Z</time>
      </trkpt>
      <trkpt lat="44.34459" lon="4.26576">
        <ele>370.73</ele>
        <time>2013-12-08T11:46:23Z</time>
      </trkpt>
      <trkpt lat="44.34459" lon="4.26576">
        <ele>371.21</ele>
        <time>2013-12-08T11:46:51Z</time>
      </trkpt>
      <trkpt lat="44.3446" lon="4.26576">
        <ele>371.21</ele>
        <time>2013-12-08T11:47:15Z</time>
      </trkpt>
      <trkpt lat="44.3446" lon="4.26576">
        <ele>371.21</ele>
        <time>2013-12-08T11:47:20Z</time>
      </trkpt>
      <trkpt lat="44.34465" lon="4.26579">
        <ele>370.73</ele>
        <time>2013-12-08T11:47:23Z</time>
      </trkpt>
      <trkpt lat="44.34467" lon="4.26582">
        <ele>370.73</ele>
        <time>2013-12-08T11:47:24Z</time>
      </trkpt>
      <trkpt lat="44.34493" lon="4.26616">
        <ele>370.24</ele>
        <time>2013-12-08T11:47:36Z</time>
      </trkpt>
      <trkpt lat="44.34515" lon="4.26652">
        <ele>373.13</ele>
        <time>2013-12-08T11:47:50Z</time>
      </trkpt>
      <trkpt lat="44.3452" lon="4.26661">
        <ele>374.09</ele>
        <time>2013-12-08T11:47:56Z</time>
      </trkpt>
      <trkpt lat="44.34521" lon="4.26663">
        <ele>374.57</ele>
        <time>2013-12-08T11:47:57Z</time>
      </trkpt>
      <trkpt lat="44.34521" lon="4.26664">
        <ele>374.57</ele>
        <time>2013-12-08T11:47:58Z</time>
      </trkpt>
      <trkpt lat="44.34522" lon="4.26666">
        <ele>375.05</ele>
        <time>2013-12-08T11:47:59Z</time>
      </trkpt>
      <trkpt lat="44.34522" lon="4.26668">
        <ele>375.05</ele>
        <time>2013-12-08T11:48:00Z</time>
      </trkpt>
      <trkpt lat="44.34523" lon="4.26669">
        <ele>375.53</ele>
        <time>2013-12-08T11:48:01Z</time>
      </trkpt>
      <trkpt lat="44.34524" lon="4.26671">
        <ele>375.53</ele>
        <time>2013-12-08T11:48:02Z</time>
      </trkpt>
      <trkpt lat="44.34525" lon="4.26672">
        <ele>376.01</ele>
        <time>2013-12-08T11:48:03Z</time>
      </trkpt>
      <trkpt lat="44.34526" lon="4.26674">
        <ele>376.01</ele>
        <time>2013-12-08T11:48:04Z</time>
      </trkpt>
      <trkpt lat="44.34528" lon="4.26677">
        <ele>376.97</ele>
        <time>2013-12-08T11:48:08Z</time>
      </trkpt>
      <trkpt lat="44.34529" lon="4.26678">
        <ele>376.97</ele>
        <time>2013-12-08T11:48:09Z</time>
      </trkpt>
      <trkpt lat="44.3453" lon="4.2668">
        <ele>376.97</ele>
        <time>2013-12-08T11:48:10Z</time>
      </trkpt>
      <trkpt lat="44.34531" lon="4.26682">
        <ele>377.45</ele>
        <time>2013-12-08T11:48:11Z</time>
      </trkpt>
      <trkpt lat="44.34532" lon="4.26683">
        <ele>377.45</ele>
        <time>2013-12-08T11:48:12Z</time>
      </trkpt>
      <trkpt lat="44.34534" lon="4.26684">
        <ele>377.94</ele>
        <time>2013-12-08T11:48:13Z</time>
      </trkpt>
      <trkpt lat="44.34535" lon="4.26685">
        <ele>377.94</ele>
        <time>2013-12-08T11:48:14Z</time>
      </trkpt>
      <trkpt lat="44.34555" lon="4.26699">
        <ele>379.86</ele>
        <time>2013-12-08T11:48:29Z</time>
      </trkpt>
      <trkpt lat="44.34573" lon="4.26705">
        <ele>379.38</ele>
        <time>2013-12-08T11:48:39Z</time>
      </trkpt>
      <trkpt lat="44.34575" lon="4.26707">
        <ele>379.86</ele>
        <time>2013-12-08T11:48:40Z</time>
      </trkpt>
      <trkpt lat="44.34576" lon="4.26709">
        <ele>379.86</ele>
        <time>2013-12-08T11:48:41Z</time>
      </trkpt>
      <trkpt lat="44.34578" lon="4.2671">
        <ele>379.86</ele>
        <time>2013-12-08T11:48:42Z</time>
      </trkpt>
      <trkpt lat="44.3458" lon="4.26711">
        <ele>379.86</ele>
        <time>2013-12-08T11:48:43Z</time>
      </trkpt>
      <trkpt lat="44.34582" lon="4.26713">
        <ele>379.86</ele>
        <time>2013-12-08T11:48:44Z</time>
      </trkpt>
      <trkpt lat="44.34583" lon="4.26714">
        <ele>379.86</ele>
        <time>2013-12-08T11:48:45Z</time>
      </trkpt>
      <trkpt lat="44.34586" lon="4.26715">
        <ele>379.38</ele>
        <time>2013-12-08T11:48:46Z</time>
      </trkpt>
      <trkpt lat="44.34588" lon="4.26716">
        <ele>379.38</ele>
        <time>2013-12-08T11:48:47Z</time>
      </trkpt>
      <trkpt lat="44.34604" lon="4.26732">
        <ele>379.86</ele>
        <time>2013-12-08T11:48:59Z</time>
      </trkpt>
      <trkpt lat="44.3462" lon="4.26776">
        <ele>377.94</ele>
        <time>2013-12-08T11:49:12Z</time>
      </trkpt>
      <trkpt lat="44.3463" lon="4.26812">
        <ele>377.94</ele>
        <time>2013-12-08T11:49:21Z</time>
      </trkpt>
      <trkpt lat="44.34633" lon="4.26813">
        <ele>377.94</ele>
        <time>2013-12-08T11:49:22Z</time>
      </trkpt>
      <trkpt lat="44.34635" lon="4.26813">
        <ele>378.42</ele>
        <time>2013-12-08T11:49:23Z</time>
      </trkpt>
      <trkpt lat="44.34637" lon="4.26813">
        <ele>378.42</ele>
        <time>2013-12-08T11:49:24Z</time>
      </trkpt>
      <trkpt lat="44.34639" lon="4.26812">
        <ele>378.42</ele>
        <time>2013-12-08T11:49:25Z</time>
      </trkpt>
      <trkpt lat="44.34641" lon="4.2681">
        <ele>378.42</ele>
        <time>2013-12-08T11:49:26Z</time>
      </trkpt>
      <trkpt lat="44.34643" lon="4.26809">
        <ele>378.42</ele>
        <time>2013-12-08T11:49:27Z</time>
      </trkpt>
      <trkpt lat="44.34645" lon="4.26807">
        <ele>378.42</ele>
        <time>2013-12-08T11:49:28Z</time>
      </trkpt>
      <trkpt lat="44.34648" lon="4.26806">
        <ele>378.42</ele>
        <time>2013-12-08T11:49:29Z</time>
      </trkpt>
      <trkpt lat="44.3465" lon="4.26804">
        <ele>378.9</ele>
        <time>2013-12-08T11:49:30Z</time>
      </trkpt>
      <trkpt lat="44.34652" lon="4.26803">
        <ele>378.9</ele>
        <time>2013-12-08T11:49:31Z</time>
      </trkpt>
      <trkpt lat="44.34654" lon="4.26801">
        <ele>378.9</ele>
        <time>2013-12-08T11:49:32Z</time>
      </trkpt>
      <trkpt lat="44.34657" lon="4.268">
        <ele>378.42</ele>
        <time>2013-12-08T11:49:33Z</time>
      </trkpt>
      <trkpt lat="44.34694" lon="4.26785">
        <ele>377.94</ele>
        <time>2013-12-08T11:49:45Z</time>
      </trkpt>
      <trkpt lat="44.34729" lon="4.26806">
        <ele>375.05</ele>
        <time>2013-12-08T11:49:56Z</time>
      </trkpt>
      <trkpt lat="44.34732" lon="4.2681">
        <ele>374.57</ele>
        <time>2013-12-08T11:49:57Z</time>
      </trkpt>
      <trkpt lat="44.34736" lon="4.26813">
        <ele>374.57</ele>
        <time>2013-12-08T11:49:58Z</time>
      </trkpt>
      <trkpt lat="44.3474" lon="4.26817">
        <ele>374.09</ele>
        <time>2013-12-08T11:49:59Z</time>
      </trkpt>
      <trkpt lat="44.34743" lon="4.2682">
        <ele>373.61</ele>
        <time>2013-12-08T11:50:00Z</time>
      </trkpt>
      <trkpt lat="44.34745" lon="4.26823">
        <ele>373.61</ele>
        <time>2013-12-08T11:50:01Z</time>
      </trkpt>
      <trkpt lat="44.34746" lon="4.26825">
        <ele>374.09</ele>
        <time>2013-12-08T11:50:02Z</time>
      </trkpt>
      <trkpt lat="44.34748" lon="4.26826">
        <ele>373.61</ele>
        <time>2013-12-08T11:50:03Z</time>
      </trkpt>
      <trkpt lat="44.34748" lon="4.26826">
        <ele>373.61</ele>
        <time>2013-12-08T11:50:09Z</time>
      </trkpt>
      <trkpt lat="44.34749" lon="4.26827">
        <ele>373.61</ele>
        <time>2013-12-08T11:50:10Z</time>
      </trkpt>
      <trkpt lat="44.34751" lon="4.26828">
        <ele>373.61</ele>
        <time>2013-12-08T11:50:11Z</time>
      </trkpt>
      <trkpt lat="44.34754" lon="4.26829">
        <ele>373.61</ele>
        <time>2013-12-08T11:50:12Z</time>
      </trkpt>
      <trkpt lat="44.34756" lon="4.26831">
        <ele>373.61</ele>
        <time>2013-12-08T11:50:13Z</time>
      </trkpt>
      <trkpt lat="44.34759" lon="4.26834">
        <ele>373.61</ele>
        <time>2013-12-08T11:50:14Z</time>
      </trkpt>
      <trkpt lat="44.34762" lon="4.26836">
        <ele>373.13</ele>
        <time>2013-12-08T11:50:15Z</time>
      </trkpt>
      <trkpt lat="44.34787" lon="4.26857">
        <ele>372.65</ele>
        <time>2013-12-08T11:50:23Z</time>
      </trkpt>
      <trkpt lat="44.34789" lon="4.26862">
        <ele>372.17</ele>
        <time>2013-12-08T11:50:24Z</time>
      </trkpt>
      <trkpt lat="44.34792" lon="4.26867">
        <ele>371.69</ele>
        <time>2013-12-08T11:50:25Z</time>
      </trkpt>
      <trkpt lat="44.34803" lon="4.26885">
        <ele>371.21</ele>
        <time>2013-12-08T11:50:29Z</time>
      </trkpt>
      <trkpt lat="44.34805" lon="4.2689">
        <ele>370.73</ele>
        <time>2013-12-08T11:50:30Z</time>
      </trkpt>
      <trkpt lat="44.34828" lon="4.26928">
        <ele>369.76</ele>
        <time>2013-12-08T11:50:40Z</time>
      </trkpt>
      <trkpt lat="44.34857" lon="4.26956">
        <ele>370.24</ele>
        <time>2013-12-08T11:50:51Z</time>
      </trkpt>
      <trkpt lat="44.34862" lon="4.26968">
        <ele>370.73</ele>
        <time>2013-12-08T11:50:55Z</time>
      </trkpt>
      <trkpt lat="44.34861" lon="4.26971">
        <ele>371.21</ele>
        <time>2013-12-08T11:50:56Z</time>
      </trkpt>
      <trkpt lat="44.3486" lon="4.26974">
        <ele>371.21</ele>
        <time>2013-12-08T11:50:57Z</time>
      </trkpt>
      <trkpt lat="44.34844" lon="4.27006">
        <ele>372.17</ele>
        <time>2013-12-08T11:51:08Z</time>
      </trkpt>
      <trkpt lat="44.34841" lon="4.27032">
        <ele>374.09</ele>
        <time>2013-12-08T11:51:18Z</time>
      </trkpt>
      <trkpt lat="44.34845" lon="4.27062">
        <ele>376.01</ele>
        <time>2013-12-08T11:51:30Z</time>
      </trkpt>
      <trkpt lat="44.3484" lon="4.271">
        <ele>376.97</ele>
        <time>2013-12-08T11:51:44Z</time>
      </trkpt>
      <trkpt lat="44.3484" lon="4.27103">
        <ele>377.45</ele>
        <time>2013-12-08T11:51:45Z</time>
      </trkpt>
      <trkpt lat="44.3484" lon="4.27105">
        <ele>377.94</ele>
        <time>2013-12-08T11:51:46Z</time>
      </trkpt>
      <trkpt lat="44.3484" lon="4.27108">
        <ele>377.94</ele>
        <time>2013-12-08T11:51:47Z</time>
      </trkpt>
      <trkpt lat="44.34839" lon="4.2711">
        <ele>377.94</ele>
        <time>2013-12-08T11:51:48Z</time>
      </trkpt>
      <trkpt lat="44.34839" lon="4.27112">
        <ele>378.42</ele>
        <time>2013-12-08T11:51:49Z</time>
      </trkpt>
      <trkpt lat="44.34838" lon="4.27114">
        <ele>378.42</ele>
        <time>2013-12-08T11:51:50Z</time>
      </trkpt>
      <trkpt lat="44.34837" lon="4.27115">
        <ele>378.9</ele>
        <time>2013-12-08T11:51:51Z</time>
      </trkpt>
      <trkpt lat="44.34837" lon="4.27117">
        <ele>378.9</ele>
        <time>2013-12-08T11:51:52Z</time>
      </trkpt>
      <trkpt lat="44.34836" lon="4.27119">
        <ele>379.38</ele>
        <time>2013-12-08T11:51:53Z</time>
      </trkpt>
      <trkpt lat="44.34836" lon="4.27121">
        <ele>379.38</ele>
        <time>2013-12-08T11:51:54Z</time>
      </trkpt>
      <trkpt lat="44.34835" lon="4.27125">
        <ele>379.38</ele>
        <time>2013-12-08T11:51:56Z</time>
      </trkpt>
      <trkpt lat="44.34834" lon="4.27127">
        <ele>379.86</ele>
        <time>2013-12-08T11:51:57Z</time>
      </trkpt>
      <trkpt lat="44.34833" lon="4.27129">
        <ele>379.86</ele>
        <time>2013-12-08T11:51:58Z</time>
      </trkpt>
      <trkpt lat="44.34833" lon="4.27131">
        <ele>380.34</ele>
        <time>2013-12-08T11:51:59Z</time>
      </trkpt>
      <trkpt lat="44.34832" lon="4.27133">
        <ele>380.82</ele>
        <time>2013-12-08T11:52:00Z</time>
      </trkpt>
      <trkpt lat="44.34832" lon="4.27135">
        <ele>381.3</ele>
        <time>2013-12-08T11:52:01Z</time>
      </trkpt>
      <trkpt lat="44.34827" lon="4.27165">
        <ele>382.74</ele>
        <time>2013-12-08T11:52:16Z</time>
      </trkpt>
      <trkpt lat="44.34827" lon="4.2717">
        <ele>383.22</ele>
        <time>2013-12-08T11:52:19Z</time>
      </trkpt>
      <trkpt lat="44.34827" lon="4.27172">
        <ele>382.74</ele>
        <time>2013-12-08T11:52:23Z</time>
      </trkpt>
      <trkpt lat="44.34827" lon="4.27177">
        <ele>382.74</ele>
        <time>2013-12-08T11:52:36Z</time>
      </trkpt>
      <trkpt lat="44.34827" lon="4.27177">
        <ele>382.74</ele>
        <time>2013-12-08T11:52:58Z</time>
      </trkpt>
      <trkpt lat="44.34827" lon="4.27177">
        <ele>382.74</ele>
        <time>2013-12-08T11:53:21Z</time>
      </trkpt>
      <trkpt lat="44.34827" lon="4.27177">
        <ele>383.22</ele>
        <time>2013-12-08T11:53:47Z</time>
      </trkpt>
      <trkpt lat="44.34827" lon="4.27177">
        <ele>382.74</ele>
        <time>2013-12-08T11:54:17Z</time>
      </trkpt>
      <trkpt lat="44.34827" lon="4.27177">
        <ele>382.74</ele>
        <time>2013-12-08T11:54:51Z</time>
      </trkpt>
      <trkpt lat="44.34827" lon="4.27177">
        <ele>382.74</ele>
        <time>2013-12-08T11:55:10Z</time>
      </trkpt>
      <trkpt lat="44.34827" lon="4.27177">
        <ele>382.74</ele>
        <time>2013-12-08T11:55:35Z</time>
      </trkpt>
      <trkpt lat="44.34827" lon="4.27177">
        <ele>382.74</ele>
        <time>2013-12-08T11:55:58Z</time>
      </trkpt>
      <trkpt lat="44.34827" lon="4.27179">
        <ele>382.74</ele>
        <time>2013-12-08T11:56:02Z</time>
      </trkpt>
      <trkpt lat="44.34828" lon="4.27181">
        <ele>382.26</ele>
        <time>2013-12-08T11:56:04Z</time>
      </trkpt>
      <trkpt lat="44.34828" lon="4.27183">
        <ele>382.26</ele>
        <time>2013-12-08T11:56:05Z</time>
      </trkpt>
      <trkpt lat="44.34828" lon="4.27185">
        <ele>382.26</ele>
        <time>2013-12-08T11:56:06Z</time>
      </trkpt>
      <trkpt lat="44.34828" lon="4.27186">
        <ele>382.26</ele>
        <time>2013-12-08T11:56:07Z</time>
      </trkpt>
      <trkpt lat="44.34828" lon="4.27188">
        <ele>382.26</ele>
        <time>2013-12-08T11:56:08Z</time>
      </trkpt>
      <trkpt lat="44.34825" lon="4.27233">
        <ele>379.86</ele>
        <time>2013-12-08T11:56:19Z</time>
      </trkpt>
      <trkpt lat="44.34823" lon="4.27239">
        <ele>379.86</ele>
        <time>2013-12-08T11:56:20Z</time>
      </trkpt>
      <trkpt lat="44.34812" lon="4.27278">
        <ele>378.42</ele>
        <time>2013-12-08T11:56:27Z</time>
      </trkpt>
      <trkpt lat="44.34811" lon="4.27293">
        <ele>378.42</ele>
        <time>2013-12-08T11:56:30Z</time>
      </trkpt>
      <trkpt lat="44.34812" lon="4.27298">
        <ele>378.42</ele>
        <time>2013-12-08T11:56:31Z</time>
      </trkpt>
      <trkpt lat="44.34814" lon="4.27302">
        <ele>378.42</ele>
        <time>2013-12-08T11:56:32Z</time>
      </trkpt>
      <trkpt lat="44.34829" lon="4.27339">
        <ele>377.94</ele>
        <time>2013-12-08T11:56:40Z</time>
      </trkpt>
      <trkpt lat="44.34829" lon="4.27344">
        <ele>377.94</ele>
        <time>2013-12-08T11:56:41Z</time>
      </trkpt>
      <trkpt lat="44.34829" lon="4.27349">
        <ele>377.94</ele>
        <time>2013-12-08T11:56:42Z</time>
      </trkpt>
      <trkpt lat="44.34828" lon="4.27353">
        <ele>377.94</ele>
        <time>2013-12-08T11:56:43Z</time>
      </trkpt>
      <trkpt lat="44.34827" lon="4.27356">
        <ele>377.94</ele>
        <time>2013-12-08T11:56:44Z</time>
      </trkpt>
      <trkpt lat="44.34827" lon="4.27361">
        <ele>377.45</ele>
        <time>2013-12-08T11:56:45Z</time>
      </trkpt>
      <trkpt lat="44.34826" lon="4.27367">
        <ele>377.45</ele>
        <time>2013-12-08T11:56:46Z</time>
      </trkpt>
      <trkpt lat="44.34826" lon="4.2738">
        <ele>376.49</ele>
        <time>2013-12-08T11:56:48Z</time>
      </trkpt>
      <trkpt lat="44.34826" lon="4.27399">
        <ele>375.53</ele>
        <time>2013-12-08T11:56:51Z</time>
      </trkpt>
      <trkpt lat="44.34825" lon="4.27421">
        <ele>374.57</ele>
        <time>2013-12-08T11:56:54Z</time>
      </trkpt>
      <trkpt lat="44.34821" lon="4.27471">
        <ele>376.49</ele>
        <time>2013-12-08T11:57:04Z</time>
      </trkpt>
      <trkpt lat="44.34818" lon="4.27498">
        <ele>378.9</ele>
        <time>2013-12-08T11:57:16Z</time>
      </trkpt>
      <trkpt lat="44.34819" lon="4.27504">
        <ele>379.86</ele>
        <time>2013-12-08T11:57:19Z</time>
      </trkpt>
      <trkpt lat="44.34819" lon="4.27506">
        <ele>380.34</ele>
        <time>2013-12-08T11:57:20Z</time>
      </trkpt>
      <trkpt lat="44.3482" lon="4.27521">
        <ele>382.26</ele>
        <time>2013-12-08T11:57:30Z</time>
      </trkpt>
      <trkpt lat="44.3482" lon="4.27523">
        <ele>382.26</ele>
        <time>2013-12-08T11:57:31Z</time>
      </trkpt>
      <trkpt lat="44.3482" lon="4.27536">
        <ele>384.66</ele>
        <time>2013-12-08T11:57:39Z</time>
      </trkpt>
      <trkpt lat="44.34819" lon="4.27538">
        <ele>384.66</ele>
        <time>2013-12-08T11:57:40Z</time>
      </trkpt>
      <trkpt lat="44.34818" lon="4.27541">
        <ele>385.15</ele>
        <time>2013-12-08T11:57:42Z</time>
      </trkpt>
      <trkpt lat="44.34818" lon="4.27542">
        <ele>385.15</ele>
        <time>2013-12-08T11:57:43Z</time>
      </trkpt>
      <trkpt lat="44.34816" lon="4.27561">
        <ele>387.07</ele>
        <time>2013-12-08T11:57:53Z</time>
      </trkpt>
      <trkpt lat="44.34816" lon="4.27563">
        <ele>387.07</ele>
        <time>2013-12-08T11:57:54Z</time>
      </trkpt>
      <trkpt lat="44.34817" lon="4.27565">
        <ele>387.07</ele>
        <time>2013-12-08T11:57:55Z</time>
      </trkpt>
      <trkpt lat="44.34817" lon="4.27567">
        <ele>387.07</ele>
        <time>2013-12-08T11:57:56Z</time>
      </trkpt>
      <trkpt lat="44.34818" lon="4.27569">
        <ele>387.07</ele>
        <time>2013-12-08T11:57:57Z</time>
      </trkpt>
      <trkpt lat="44.34824" lon="4.27586">
        <ele>388.03</ele>
        <time>2013-12-08T11:58:07Z</time>
      </trkpt>
      <trkpt lat="44.34844" lon="4.27617">
        <ele>385.63</ele>
        <time>2013-12-08T11:58:18Z</time>
      </trkpt>
      <trkpt lat="44.34846" lon="4.27622">
        <ele>385.15</ele>
        <time>2013-12-08T11:58:19Z</time>
      </trkpt>
      <trkpt lat="44.34848" lon="4.27627">
        <ele>384.66</ele>
        <time>2013-12-08T11:58:20Z</time>
      </trkpt>
      <trkpt lat="44.34852" lon="4.27639">
        <ele>383.22</ele>
        <time>2013-12-08T11:58:22Z</time>
      </trkpt>
      <trkpt lat="44.34863" lon="4.27657">
        <ele>381.3</ele>
        <time>2013-12-08T11:58:25Z</time>
      </trkpt>
      <trkpt lat="44.34868" lon="4.27663">
        <ele>379.86</ele>
        <time>2013-12-08T11:58:26Z</time>
      </trkpt>
      <trkpt lat="44.34872" lon="4.27669">
        <ele>379.38</ele>
        <time>2013-12-08T11:58:27Z</time>
      </trkpt>
      <trkpt lat="44.34875" lon="4.27676">
        <ele>378.9</ele>
        <time>2013-12-08T11:58:28Z</time>
      </trkpt>
      <trkpt lat="44.34878" lon="4.27684">
        <ele>378.9</ele>
        <time>2013-12-08T11:58:29Z</time>
      </trkpt>
      <trkpt lat="44.34879" lon="4.27692">
        <ele>378.9</ele>
        <time>2013-12-08T11:58:30Z</time>
      </trkpt>
      <trkpt lat="44.34881" lon="4.27699">
        <ele>378.9</ele>
        <time>2013-12-08T11:58:31Z</time>
      </trkpt>
      <trkpt lat="44.34882" lon="4.27705">
        <ele>378.9</ele>
        <time>2013-12-08T11:58:32Z</time>
      </trkpt>
      <trkpt lat="44.34884" lon="4.27711">
        <ele>379.38</ele>
        <time>2013-12-08T11:58:33Z</time>
      </trkpt>
      <trkpt lat="44.34886" lon="4.27716">
        <ele>379.38</ele>
        <time>2013-12-08T11:58:34Z</time>
      </trkpt>
      <trkpt lat="44.34888" lon="4.2772">
        <ele>379.86</ele>
        <time>2013-12-08T11:58:35Z</time>
      </trkpt>
      <trkpt lat="44.3489" lon="4.27723">
        <ele>379.86</ele>
        <time>2013-12-08T11:58:36Z</time>
      </trkpt>
      <trkpt lat="44.34891" lon="4.27726">
        <ele>379.86</ele>
        <time>2013-12-08T11:58:37Z</time>
      </trkpt>
      <trkpt lat="44.34892" lon="4.27729">
        <ele>380.34</ele>
        <time>2013-12-08T11:58:38Z</time>
      </trkpt>
      <trkpt lat="44.34893" lon="4.27732">
        <ele>380.34</ele>
        <time>2013-12-08T11:58:39Z</time>
      </trkpt>
      <trkpt lat="44.34897" lon="4.27743">
        <ele>381.3</ele>
        <time>2013-12-08T11:58:43Z</time>
      </trkpt>
      <trkpt lat="44.34897" lon="4.27746">
        <ele>381.3</ele>
        <time>2013-12-08T11:58:44Z</time>
      </trkpt>
      <trkpt lat="44.34904" lon="4.27768">
        <ele>383.7</ele>
        <time>2013-12-08T11:58:53Z</time>
      </trkpt>
      <trkpt lat="44.34905" lon="4.27771">
        <ele>383.7</ele>
        <time>2013-12-08T11:58:54Z</time>
      </trkpt>
      <trkpt lat="44.34905" lon="4.27773">
        <ele>383.7</ele>
        <time>2013-12-08T11:58:55Z</time>
      </trkpt>
      <trkpt lat="44.34914" lon="4.27786">
        <ele>384.66</ele>
        <time>2013-12-08T11:59:04Z</time>
      </trkpt>
      <trkpt lat="44.34916" lon="4.27786">
        <ele>384.66</ele>
        <time>2013-12-08T11:59:05Z</time>
      </trkpt>
      <trkpt lat="44.34918" lon="4.27785">
        <ele>384.66</ele>
        <time>2013-12-08T11:59:07Z</time>
      </trkpt>
      <trkpt lat="44.34919" lon="4.27785">
        <ele>384.66</ele>
        <time>2013-12-08T11:59:18Z</time>
      </trkpt>
      <trkpt lat="44.34919" lon="4.27785">
        <ele>384.18</ele>
        <time>2013-12-08T11:59:33Z</time>
      </trkpt>
      <trkpt lat="44.3492" lon="4.27785">
        <ele>384.66</ele>
        <time>2013-12-08T11:59:34Z</time>
      </trkpt>
      <trkpt lat="44.34922" lon="4.27785">
        <ele>384.18</ele>
        <time>2013-12-08T11:59:35Z</time>
      </trkpt>
      <trkpt lat="44.34925" lon="4.27785">
        <ele>384.18</ele>
        <time>2013-12-08T11:59:36Z</time>
      </trkpt>
      <trkpt lat="44.34927" lon="4.27783">
        <ele>383.7</ele>
        <time>2013-12-08T11:59:37Z</time>
      </trkpt>
      <trkpt lat="44.34928" lon="4.27782">
        <ele>383.7</ele>
        <time>2013-12-08T11:59:38Z</time>
      </trkpt>
      <trkpt lat="44.34959" lon="4.27765">
        <ele>379.86</ele>
        <time>2013-12-08T11:59:48Z</time>
      </trkpt>
      <trkpt lat="44.34969" lon="4.2776">
        <ele>377.94</ele>
        <time>2013-12-08T11:59:50Z</time>
      </trkpt>
      <trkpt lat="44.34985" lon="4.27749">
        <ele>376.01</ele>
        <time>2013-12-08T11:59:53Z</time>
      </trkpt>
      <trkpt lat="44.3499" lon="4.27746">
        <ele>375.05</ele>
        <time>2013-12-08T11:59:54Z</time>
      </trkpt>
      <trkpt lat="44.34996" lon="4.27745">
        <ele>374.57</ele>
        <time>2013-12-08T11:59:55Z</time>
      </trkpt>
      <trkpt lat="44.35002" lon="4.27744">
        <ele>373.61</ele>
        <time>2013-12-08T11:59:56Z</time>
      </trkpt>
      <trkpt lat="44.35008" lon="4.27743">
        <ele>373.61</ele>
        <time>2013-12-08T11:59:57Z</time>
      </trkpt>
      <trkpt lat="44.35013" lon="4.27741">
        <ele>373.61</ele>
        <time>2013-12-08T11:59:58Z</time>
      </trkpt>
      <trkpt lat="44.35024" lon="4.27738">
        <ele>373.13</ele>
        <time>2013-12-08T12:00:00Z</time>
      </trkpt>
      <trkpt lat="44.35028" lon="4.27739">
        <ele>373.13</ele>
        <time>2013-12-08T12:00:01Z</time>
      </trkpt>
      <trkpt lat="44.35033" lon="4.2774">
        <ele>372.65</ele>
        <time>2013-12-08T12:00:02Z</time>
      </trkpt>
      <trkpt lat="44.3506" lon="4.27751">
        <ele>373.61</ele>
        <time>2013-12-08T12:00:11Z</time>
      </trkpt>
      <trkpt lat="44.35083" lon="4.2776">
        <ele>374.09</ele>
        <time>2013-12-08T12:00:20Z</time>
      </trkpt>
      <trkpt lat="44.35089" lon="4.27764">
        <ele>374.57</ele>
        <time>2013-12-08T12:00:23Z</time>
      </trkpt>
      <trkpt lat="44.35091" lon="4.27766">
        <ele>375.05</ele>
        <time>2013-12-08T12:00:24Z</time>
      </trkpt>
      <trkpt lat="44.35112" lon="4.27797">
        <ele>376.97</ele>
        <time>2013-12-08T12:00:38Z</time>
      </trkpt>
      <trkpt lat="44.35131" lon="4.27838">
        <ele>375.53</ele>
        <time>2013-12-08T12:00:51Z</time>
      </trkpt>
      <trkpt lat="44.35131" lon="4.27844">
        <ele>375.05</ele>
        <time>2013-12-08T12:00:52Z</time>
      </trkpt>
      <trkpt lat="44.3513" lon="4.27849">
        <ele>373.61</ele>
        <time>2013-12-08T12:00:53Z</time>
      </trkpt>
      <trkpt lat="44.35129" lon="4.27855">
        <ele>373.13</ele>
        <time>2013-12-08T12:00:54Z</time>
      </trkpt>
      <trkpt lat="44.35128" lon="4.27862">
        <ele>372.65</ele>
        <time>2013-12-08T12:00:55Z</time>
      </trkpt>
      <trkpt lat="44.35128" lon="4.27869">
        <ele>372.17</ele>
        <time>2013-12-08T12:00:56Z</time>
      </trkpt>
      <trkpt lat="44.35127" lon="4.27874">
        <ele>372.17</ele>
        <time>2013-12-08T12:00:57Z</time>
      </trkpt>
      <trkpt lat="44.35126" lon="4.27879">
        <ele>371.21</ele>
        <time>2013-12-08T12:00:58Z</time>
      </trkpt>
      <trkpt lat="44.35125" lon="4.27883">
        <ele>371.21</ele>
        <time>2013-12-08T12:00:59Z</time>
      </trkpt>
      <trkpt lat="44.35125" lon="4.27887">
        <ele>371.21</ele>
        <time>2013-12-08T12:01:00Z</time>
      </trkpt>
      <trkpt lat="44.35125" lon="4.2789">
        <ele>371.21</ele>
        <time>2013-12-08T12:01:01Z</time>
      </trkpt>
      <trkpt lat="44.35125" lon="4.27893">
        <ele>370.73</ele>
        <time>2013-12-08T12:01:02Z</time>
      </trkpt>
      <trkpt lat="44.35125" lon="4.27897">
        <ele>370.73</ele>
        <time>2013-12-08T12:01:03Z</time>
      </trkpt>
      <trkpt lat="44.35125" lon="4.27901">
        <ele>370.24</ele>
        <time>2013-12-08T12:01:04Z</time>
      </trkpt>
      <trkpt lat="44.35124" lon="4.27906">
        <ele>370.24</ele>
        <time>2013-12-08T12:01:05Z</time>
      </trkpt>
      <trkpt lat="44.35123" lon="4.2791">
        <ele>369.76</ele>
        <time>2013-12-08T12:01:06Z</time>
      </trkpt>
      <trkpt lat="44.35123" lon="4.27914">
        <ele>369.76</ele>
        <time>2013-12-08T12:01:07Z</time>
      </trkpt>
      <trkpt lat="44.35122" lon="4.27918">
        <ele>369.76</ele>
        <time>2013-12-08T12:01:08Z</time>
      </trkpt>
      <trkpt lat="44.35122" lon="4.27923">
        <ele>369.76</ele>
        <time>2013-12-08T12:01:09Z</time>
      </trkpt>
      <trkpt lat="44.35122" lon="4.27974">
        <ele>369.76</ele>
        <time>2013-12-08T12:01:19Z</time>
      </trkpt>
      <trkpt lat="44.35125" lon="4.28014">
        <ele>371.69</ele>
        <time>2013-12-08T12:01:29Z</time>
      </trkpt>
      <trkpt lat="44.35133" lon="4.28036">
        <ele>373.61</ele>
        <time>2013-12-08T12:01:40Z</time>
      </trkpt>
      <trkpt lat="44.35144" lon="4.28061">
        <ele>376.49</ele>
        <time>2013-12-08T12:01:55Z</time>
      </trkpt>
      <trkpt lat="44.35156" lon="4.2809">
        <ele>378.9</ele>
        <time>2013-12-08T12:02:11Z</time>
      </trkpt>
      <trkpt lat="44.35168" lon="4.28113">
        <ele>380.82</ele>
        <time>2013-12-08T12:02:25Z</time>
      </trkpt>
      <trkpt lat="44.35182" lon="4.28137">
        <ele>382.26</ele>
        <time>2013-12-08T12:02:39Z</time>
      </trkpt>
      <trkpt lat="44.35197" lon="4.28157">
        <ele>383.22</ele>
        <time>2013-12-08T12:02:53Z</time>
      </trkpt>
      <trkpt lat="44.35222" lon="4.28174">
        <ele>382.74</ele>
        <time>2013-12-08T12:03:06Z</time>
      </trkpt>
      <trkpt lat="44.35245" lon="4.28184">
        <ele>381.78</ele>
        <time>2013-12-08T12:03:16Z</time>
      </trkpt>
      <trkpt lat="44.35253" lon="4.28187">
        <ele>381.78</ele>
        <time>2013-12-08T12:03:19Z</time>
      </trkpt>
      <trkpt lat="44.35257" lon="4.28188">
        <ele>381.78</ele>
        <time>2013-12-08T12:03:20Z</time>
      </trkpt>
      <trkpt lat="44.35286" lon="4.28196">
        <ele>380.34</ele>
        <time>2013-12-08T12:03:30Z</time>
      </trkpt>
      <trkpt lat="44.35317" lon="4.28194">
        <ele>381.78</ele>
        <time>2013-12-08T12:03:41Z</time>
      </trkpt>
      <trkpt lat="44.35319" lon="4.28192">
        <ele>381.78</ele>
        <time>2013-12-08T12:03:42Z</time>
      </trkpt>
      <trkpt lat="44.35322" lon="4.28191">
        <ele>381.78</ele>
        <time>2013-12-08T12:03:43Z</time>
      </trkpt>
      <trkpt lat="44.35325" lon="4.28189">
        <ele>382.26</ele>
        <time>2013-12-08T12:03:44Z</time>
      </trkpt>
      <trkpt lat="44.35327" lon="4.28188">
        <ele>382.26</ele>
        <time>2013-12-08T12:03:45Z</time>
      </trkpt>
      <trkpt lat="44.35359" lon="4.28168">
        <ele>381.3</ele>
        <time>2013-12-08T12:03:59Z</time>
      </trkpt>
      <trkpt lat="44.35373" lon="4.28165">
        <ele>380.34</ele>
        <time>2013-12-08T12:04:03Z</time>
      </trkpt>
      <trkpt lat="44.35378" lon="4.28165">
        <ele>379.86</ele>
        <time>2013-12-08T12:04:04Z</time>
      </trkpt>
      <trkpt lat="44.35382" lon="4.28166">
        <ele>379.38</ele>
        <time>2013-12-08T12:04:05Z</time>
      </trkpt>
      <trkpt lat="44.35396" lon="4.28165">
        <ele>377.45</ele>
        <time>2013-12-08T12:04:08Z</time>
      </trkpt>
      <trkpt lat="44.35405" lon="4.28166">
        <ele>376.97</ele>
        <time>2013-12-08T12:04:10Z</time>
      </trkpt>
      <trkpt lat="44.35411" lon="4.28166">
        <ele>376.01</ele>
        <time>2013-12-08T12:04:12Z</time>
      </trkpt>
      <trkpt lat="44.35422" lon="4.28178">
        <ele>375.05</ele>
        <time>2013-12-08T12:04:16Z</time>
      </trkpt>
      <trkpt lat="44.35425" lon="4.2818">
        <ele>375.05</ele>
        <time>2013-12-08T12:04:17Z</time>
      </trkpt>
      <trkpt lat="44.35428" lon="4.28182">
        <ele>374.57</ele>
        <time>2013-12-08T12:04:18Z</time>
      </trkpt>
      <trkpt lat="44.35431" lon="4.28185">
        <ele>374.09</ele>
        <time>2013-12-08T12:04:19Z</time>
      </trkpt>
      <trkpt lat="44.35433" lon="4.28188">
        <ele>374.09</ele>
        <time>2013-12-08T12:04:20Z</time>
      </trkpt>
      <trkpt lat="44.35435" lon="4.28189">
        <ele>373.61</ele>
        <time>2013-12-08T12:04:21Z</time>
      </trkpt>
      <trkpt lat="44.35436" lon="4.2819">
        <ele>373.61</ele>
        <time>2013-12-08T12:04:33Z</time>
      </trkpt>
      <trkpt lat="44.35436" lon="4.2819">
        <ele>374.09</ele>
        <time>2013-12-08T12:05:00Z</time>
      </trkpt>
      <trkpt lat="44.35438" lon="4.28188">
        <ele>373.61</ele>
        <time>2013-12-08T12:05:13Z</time>
      </trkpt>
      <trkpt lat="44.3544" lon="4.28185">
        <ele>373.13</ele>
        <time>2013-12-08T12:05:14Z</time>
      </trkpt>
      <trkpt lat="44.3544" lon="4.28182">
        <ele>373.13</ele>
        <time>2013-12-08T12:05:15Z</time>
      </trkpt>
      <trkpt lat="44.3544" lon="4.28179">
        <ele>373.13</ele>
        <time>2013-12-08T12:05:16Z</time>
      </trkpt>
      <trkpt lat="44.35439" lon="4.28176">
        <ele>373.13</ele>
        <time>2013-12-08T12:05:17Z</time>
      </trkpt>
      <trkpt lat="44.35438" lon="4.28174">
        <ele>373.13</ele>
        <time>2013-12-08T12:05:18Z</time>
      </trkpt>
      <trkpt lat="44.35438" lon="4.28172">
        <ele>373.13</ele>
        <time>2013-12-08T12:05:19Z</time>
      </trkpt>
      <trkpt lat="44.35437" lon="4.2817">
        <ele>373.13</ele>
        <time>2013-12-08T12:05:20Z</time>
      </trkpt>
      <trkpt lat="44.35438" lon="4.28168">
        <ele>373.13</ele>
        <time>2013-12-08T12:05:21Z</time>
      </trkpt>
      <trkpt lat="44.35439" lon="4.28167">
        <ele>373.13</ele>
        <time>2013-12-08T12:05:22Z</time>
      </trkpt>
      <trkpt lat="44.35442" lon="4.28169">
        <ele>373.61</ele>
        <time>2013-12-08T12:05:27Z</time>
      </trkpt>
      <trkpt lat="44.35443" lon="4.28171">
        <ele>373.13</ele>
        <time>2013-12-08T12:05:28Z</time>
      </trkpt>
      <trkpt lat="44.35442" lon="4.28173">
        <ele>373.13</ele>
        <time>2013-12-08T12:05:29Z</time>
      </trkpt>
      <trkpt lat="44.35441" lon="4.28175">
        <ele>373.13</ele>
        <time>2013-12-08T12:05:30Z</time>
      </trkpt>
      <trkpt lat="44.35439" lon="4.28175">
        <ele>373.13</ele>
        <time>2013-12-08T12:05:31Z</time>
      </trkpt>
      <trkpt lat="44.35438" lon="4.28174">
        <ele>373.13</ele>
        <time>2013-12-08T12:05:32Z</time>
      </trkpt>
      <trkpt lat="44.35438" lon="4.28171">
        <ele>373.13</ele>
        <time>2013-12-08T12:05:33Z</time>
      </trkpt>
      <trkpt lat="44.3544" lon="4.28169">
        <ele>373.13</ele>
        <time>2013-12-08T12:05:34Z</time>
      </trkpt>
      <trkpt lat="44.35442" lon="4.28167">
        <ele>373.13</ele>
        <time>2013-12-08T12:05:35Z</time>
      </trkpt>
      <trkpt lat="44.35444" lon="4.28165">
        <ele>373.13</ele>
        <time>2013-12-08T12:05:36Z</time>
      </trkpt>
      <trkpt lat="44.35447" lon="4.28164">
        <ele>373.13</ele>
        <time>2013-12-08T12:05:37Z</time>
      </trkpt>
      <trkpt lat="44.3545" lon="4.28163">
        <ele>373.13</ele>
        <time>2013-12-08T12:05:38Z</time>
      </trkpt>
      <trkpt lat="44.35453" lon="4.28163">
        <ele>373.13</ele>
        <time>2013-12-08T12:05:39Z</time>
      </trkpt>
      <trkpt lat="44.35456" lon="4.28165">
        <ele>373.13</ele>
        <time>2013-12-08T12:05:40Z</time>
      </trkpt>
      <trkpt lat="44.35458" lon="4.28167">
        <ele>374.09</ele>
        <time>2013-12-08T12:05:41Z</time>
      </trkpt>
      <trkpt lat="44.35459" lon="4.2817">
        <ele>374.57</ele>
        <time>2013-12-08T12:05:42Z</time>
      </trkpt>
      <trkpt lat="44.35459" lon="4.28172">
        <ele>375.05</ele>
        <time>2013-12-08T12:05:43Z</time>
      </trkpt>
      <trkpt lat="44.35459" lon="4.28174">
        <ele>375.53</ele>
        <time>2013-12-08T12:05:44Z</time>
      </trkpt>
      <trkpt lat="44.35458" lon="4.28176">
        <ele>375.53</ele>
        <time>2013-12-08T12:05:45Z</time>
      </trkpt>
      <trkpt lat="44.35457" lon="4.28178">
        <ele>375.53</ele>
        <time>2013-12-08T12:05:46Z</time>
      </trkpt>
      <trkpt lat="44.35456" lon="4.28179">
        <ele>376.01</ele>
        <time>2013-12-08T12:05:47Z</time>
      </trkpt>
      <trkpt lat="44.35454" lon="4.2818">
        <ele>376.49</ele>
        <time>2013-12-08T12:05:48Z</time>
      </trkpt>
      <trkpt lat="44.35452" lon="4.2818">
        <ele>375.53</ele>
        <time>2013-12-08T12:05:49Z</time>
      </trkpt>
      <trkpt lat="44.35451" lon="4.28179">
        <ele>375.53</ele>
        <time>2013-12-08T12:05:50Z</time>
      </trkpt>
      <trkpt lat="44.3545" lon="4.28179">
        <ele>375.53</ele>
        <time>2013-12-08T12:05:51Z</time>
      </trkpt>
      <trkpt lat="44.35446" lon="4.28178">
        <ele>374.09</ele>
        <time>2013-12-08T12:05:53Z</time>
      </trkpt>
      <trkpt lat="44.35444" lon="4.2818">
        <ele>373.13</ele>
        <time>2013-12-08T12:05:54Z</time>
      </trkpt>
      <trkpt lat="44.35442" lon="4.2818">
        <ele>373.13</ele>
        <time>2013-12-08T12:05:55Z</time>
      </trkpt>
      <trkpt lat="44.3544" lon="4.2818">
        <ele>373.13</ele>
        <time>2013-12-08T12:05:56Z</time>
      </trkpt>
      <trkpt lat="44.35439" lon="4.28178">
        <ele>373.13</ele>
        <time>2013-12-08T12:05:57Z</time>
      </trkpt>
      <trkpt lat="44.35439" lon="4.28175">
        <ele>373.13</ele>
        <time>2013-12-08T12:05:58Z</time>
      </trkpt>
      <trkpt lat="44.35439" lon="4.28173">
        <ele>373.13</ele>
        <time>2013-12-08T12:05:59Z</time>
      </trkpt>
      <trkpt lat="44.3544" lon="4.28171">
        <ele>373.13</ele>
        <time>2013-12-08T12:06:00Z</time>
      </trkpt>
      <trkpt lat="44.3544" lon="4.28169">
        <ele>373.61</ele>
        <time>2013-12-08T12:06:01Z</time>
      </trkpt>
      <trkpt lat="44.3544" lon="4.28168">
        <ele>373.13</ele>
        <time>2013-12-08T12:06:02Z</time>
      </trkpt>
      <trkpt lat="44.35439" lon="4.28166">
        <ele>373.13</ele>
        <time>2013-12-08T12:06:03Z</time>
      </trkpt>
      <trkpt lat="44.35438" lon="4.28165">
        <ele>373.13</ele>
        <time>2013-12-08T12:06:04Z</time>
      </trkpt>
      <trkpt lat="44.35436" lon="4.28165">
        <ele>373.13</ele>
        <time>2013-12-08T12:06:05Z</time>
      </trkpt>
      <trkpt lat="44.35435" lon="4.28166">
        <ele>373.13</ele>
        <time>2013-12-08T12:06:06Z</time>
      </trkpt>
      <trkpt lat="44.35433" lon="4.28167">
        <ele>373.13</ele>
        <time>2013-12-08T12:06:08Z</time>
      </trkpt>
      <trkpt lat="44.35432" lon="4.28167">
        <ele>373.13</ele>
        <time>2013-12-08T12:06:09Z</time>
      </trkpt>
      <trkpt lat="44.35431" lon="4.28165">
        <ele>373.13</ele>
        <time>2013-12-08T12:06:10Z</time>
      </trkpt>
      <trkpt lat="44.3543" lon="4.28163">
        <ele>373.13</ele>
        <time>2013-12-08T12:06:11Z</time>
      </trkpt>
      <trkpt lat="44.3543" lon="4.28161">
        <ele>373.13</ele>
        <time>2013-12-08T12:06:12Z</time>
      </trkpt>
      <trkpt lat="44.3543" lon="4.28159">
        <ele>373.13</ele>
        <time>2013-12-08T12:06:13Z</time>
      </trkpt>
      <trkpt lat="44.3543" lon="4.28152">
        <ele>373.13</ele>
        <time>2013-12-08T12:06:23Z</time>
      </trkpt>
      <trkpt lat="44.3543" lon="4.28152">
        <ele>373.13</ele>
        <time>2013-12-08T12:06:46Z</time>
      </trkpt>
      <trkpt lat="44.3543" lon="4.28152">
        <ele>371.21</ele>
        <time>2013-12-08T12:07:12Z</time>
      </trkpt>
      <trkpt lat="44.3543" lon="4.28152">
        <ele>374.09</ele>
        <time>2013-12-08T12:07:13Z</time>
      </trkpt>
      <trkpt lat="44.3543" lon="4.28152">
        <ele>373.13</ele>
        <time>2013-12-08T12:07:46Z</time>
      </trkpt>
      <trkpt lat="44.3543" lon="4.28152">
        <ele>373.13</ele>
        <time>2013-12-08T12:08:11Z</time>
      </trkpt>
      <trkpt lat="44.3543" lon="4.2815">
        <ele>372.65</ele>
        <time>2013-12-08T12:08:27Z</time>
      </trkpt>
      <trkpt lat="44.35429" lon="4.28146">
        <ele>372.65</ele>
        <time>2013-12-08T12:08:28Z</time>
      </trkpt>
      <trkpt lat="44.35429" lon="4.28143">
        <ele>372.17</ele>
        <time>2013-12-08T12:08:29Z</time>
      </trkpt>
      <trkpt lat="44.35428" lon="4.28137">
        <ele>371.21</ele>
        <time>2013-12-08T12:08:30Z</time>
      </trkpt>
      <trkpt lat="44.35427" lon="4.28131">
        <ele>370.24</ele>
        <time>2013-12-08T12:08:31Z</time>
      </trkpt>
      <trkpt lat="44.35426" lon="4.28123">
        <ele>369.76</ele>
        <time>2013-12-08T12:08:32Z</time>
      </trkpt>
      <trkpt lat="44.35425" lon="4.28116">
        <ele>368.8</ele>
        <time>2013-12-08T12:08:33Z</time>
      </trkpt>
      <trkpt lat="44.35426" lon="4.28102">
        <ele>367.36</ele>
        <time>2013-12-08T12:08:35Z</time>
      </trkpt>
      <trkpt lat="44.35427" lon="4.28095">
        <ele>366.88</ele>
        <time>2013-12-08T12:08:36Z</time>
      </trkpt>
      <trkpt lat="44.35429" lon="4.28088">
        <ele>366.4</ele>
        <time>2013-12-08T12:08:37Z</time>
      </trkpt>
      <trkpt lat="44.35434" lon="4.28077">
        <ele>364.96</ele>
        <time>2013-12-08T12:08:39Z</time>
      </trkpt>
      <trkpt lat="44.35438" lon="4.28072">
        <ele>364.48</ele>
        <time>2013-12-08T12:08:40Z</time>
      </trkpt>
      <trkpt lat="44.35457" lon="4.28052">
        <ele>361.11</ele>
        <time>2013-12-08T12:08:44Z</time>
      </trkpt>
      <trkpt lat="44.35481" lon="4.28024">
        <ele>358.23</ele>
        <time>2013-12-08T12:08:49Z</time>
      </trkpt>
      <trkpt lat="44.35504" lon="4.27995">
        <ele>355.34</ele>
        <time>2013-12-08T12:08:55Z</time>
      </trkpt>
      <trkpt lat="44.3551" lon="4.27987">
        <ele>354.38</ele>
        <time>2013-12-08T12:08:57Z</time>
      </trkpt>
      <trkpt lat="44.35513" lon="4.27983">
        <ele>354.38</ele>
        <time>2013-12-08T12:08:58Z</time>
      </trkpt>
      <trkpt lat="44.35516" lon="4.27979">
        <ele>353.9</ele>
        <time>2013-12-08T12:08:59Z</time>
      </trkpt>
      <trkpt lat="44.35518" lon="4.27976">
        <ele>353.9</ele>
        <time>2013-12-08T12:09:00Z</time>
      </trkpt>
      <trkpt lat="44.35521" lon="4.27972">
        <ele>353.9</ele>
        <time>2013-12-08T12:09:01Z</time>
      </trkpt>
      <trkpt lat="44.35538" lon="4.27946">
        <ele>351.5</ele>
        <time>2013-12-08T12:09:11Z</time>
      </trkpt>
      <trkpt lat="44.35538" lon="4.27946">
        <ele>351.98</ele>
        <time>2013-12-08T12:09:14Z</time>
      </trkpt>
      <trkpt lat="44.35542" lon="4.27948">
        <ele>351.5</ele>
        <time>2013-12-08T12:09:19Z</time>
      </trkpt>
      <trkpt lat="44.35543" lon="4.27947">
        <ele>351.5</ele>
        <time>2013-12-08T12:09:20Z</time>
      </trkpt>
      <trkpt lat="44.35545" lon="4.27946">
        <ele>351.5</ele>
        <time>2013-12-08T12:09:21Z</time>
      </trkpt>
      <trkpt lat="44.35547" lon="4.27944">
        <ele>351.02</ele>
        <time>2013-12-08T12:09:22Z</time>
      </trkpt>
      <trkpt lat="44.35549" lon="4.27943">
        <ele>351.02</ele>
        <time>2013-12-08T12:09:23Z</time>
      </trkpt>
      <trkpt lat="44.35551" lon="4.27942">
        <ele>350.54</ele>
        <time>2013-12-08T12:09:24Z</time>
      </trkpt>
      <trkpt lat="44.35554" lon="4.27941">
        <ele>350.54</ele>
        <time>2013-12-08T12:09:25Z</time>
      </trkpt>
      <trkpt lat="44.35584" lon="4.27935">
        <ele>348.13</ele>
        <time>2013-12-08T12:09:33Z</time>
      </trkpt>
      <trkpt lat="44.35607" lon="4.27928">
        <ele>344.77</ele>
        <time>2013-12-08T12:09:38Z</time>
      </trkpt>
      <trkpt lat="44.3561" lon="4.27928">
        <ele>344.77</ele>
        <time>2013-12-08T12:09:39Z</time>
      </trkpt>
      <trkpt lat="44.35615" lon="4.27927">
        <ele>343.33</ele>
        <time>2013-12-08T12:09:41Z</time>
      </trkpt>
      <trkpt lat="44.35617" lon="4.27926">
        <ele>343.33</ele>
        <time>2013-12-08T12:09:42Z</time>
      </trkpt>
      <trkpt lat="44.35618" lon="4.27926">
        <ele>343.33</ele>
        <time>2013-12-08T12:09:43Z</time>
      </trkpt>
      <trkpt lat="44.3562" lon="4.27925">
        <ele>342.85</ele>
        <time>2013-12-08T12:09:44Z</time>
      </trkpt>
      <trkpt lat="44.35622" lon="4.27925">
        <ele>341.89</ele>
        <time>2013-12-08T12:09:45Z</time>
      </trkpt>
      <trkpt lat="44.35624" lon="4.27923">
        <ele>340.44</ele>
        <time>2013-12-08T12:09:46Z</time>
      </trkpt>
      <trkpt lat="44.35625" lon="4.27921">
        <ele>340.44</ele>
        <time>2013-12-08T12:09:47Z</time>
      </trkpt>
      <trkpt lat="44.35625" lon="4.27918">
        <ele>340.44</ele>
        <time>2013-12-08T12:09:58Z</time>
      </trkpt>
      <trkpt lat="44.35625" lon="4.27918">
        <ele>340.44</ele>
        <time>2013-12-08T12:10:20Z</time>
      </trkpt>
      <trkpt lat="44.35625" lon="4.27918">
        <ele>339.96</ele>
        <time>2013-12-08T12:10:44Z</time>
      </trkpt>
      <trkpt lat="44.35625" lon="4.27919">
        <ele>339.48</ele>
        <time>2013-12-08T12:11:22Z</time>
      </trkpt>
      <trkpt lat="44.35625" lon="4.27919">
        <ele>339.96</ele>
        <time>2013-12-08T12:11:26Z</time>
      </trkpt>
      <trkpt lat="44.35627" lon="4.2792">
        <ele>341.41</ele>
        <time>2013-12-08T12:12:42Z</time>
      </trkpt>
      <trkpt lat="44.35626" lon="4.2792">
        <ele>341.41</ele>
        <time>2013-12-08T12:12:43Z</time>
      </trkpt>
      <trkpt lat="44.35623" lon="4.27917">
        <ele>340.92</ele>
        <time>2013-12-08T12:13:11Z</time>
      </trkpt>
      <trkpt lat="44.35622" lon="4.27916">
        <ele>340.92</ele>
        <time>2013-12-08T12:13:17Z</time>
      </trkpt>
      <trkpt lat="44.35619" lon="4.27905">
        <ele>339.48</ele>
        <time>2013-12-08T12:13:21Z</time>
      </trkpt>
      <trkpt lat="44.3563" lon="4.27887">
        <ele>335.64</ele>
        <time>2013-12-08T12:13:28Z</time>
      </trkpt>
      <trkpt lat="44.35634" lon="4.27889">
        <ele>335.16</ele>
        <time>2013-12-08T12:13:29Z</time>
      </trkpt>
      <trkpt lat="44.35639" lon="4.2789">
        <ele>334.68</ele>
        <time>2013-12-08T12:13:30Z</time>
      </trkpt>
      <trkpt lat="44.35643" lon="4.27891">
        <ele>333.71</ele>
        <time>2013-12-08T12:13:31Z</time>
      </trkpt>
      <trkpt lat="44.35648" lon="4.27889">
        <ele>333.23</ele>
        <time>2013-12-08T12:13:32Z</time>
      </trkpt>
      <trkpt lat="44.3565" lon="4.27886">
        <ele>332.75</ele>
        <time>2013-12-08T12:13:33Z</time>
      </trkpt>
      <trkpt lat="44.35652" lon="4.27881">
        <ele>332.27</ele>
        <time>2013-12-08T12:13:34Z</time>
      </trkpt>
      <trkpt lat="44.35653" lon="4.27875">
        <ele>331.31</ele>
        <time>2013-12-08T12:13:35Z</time>
      </trkpt>
      <trkpt lat="44.35653" lon="4.27869">
        <ele>330.83</ele>
        <time>2013-12-08T12:13:36Z</time>
      </trkpt>
      <trkpt lat="44.35653" lon="4.27862">
        <ele>329.87</ele>
        <time>2013-12-08T12:13:37Z</time>
      </trkpt>
      <trkpt lat="44.35653" lon="4.27855">
        <ele>329.39</ele>
        <time>2013-12-08T12:13:38Z</time>
      </trkpt>
      <trkpt lat="44.35654" lon="4.27848">
        <ele>328.43</ele>
        <time>2013-12-08T12:13:39Z</time>
      </trkpt>
      <trkpt lat="44.35656" lon="4.27842">
        <ele>327.95</ele>
        <time>2013-12-08T12:13:40Z</time>
      </trkpt>
      <trkpt lat="44.35659" lon="4.27836">
        <ele>326.99</ele>
        <time>2013-12-08T12:13:41Z</time>
      </trkpt>
      <trkpt lat="44.35662" lon="4.27829">
        <ele>326.02</ele>
        <time>2013-12-08T12:13:42Z</time>
      </trkpt>
      <trkpt lat="44.35665" lon="4.27823">
        <ele>324.58</ele>
        <time>2013-12-08T12:13:43Z</time>
      </trkpt>
      <trkpt lat="44.35668" lon="4.27815">
        <ele>324.1</ele>
        <time>2013-12-08T12:13:44Z</time>
      </trkpt>
      <trkpt lat="44.3567" lon="4.27808">
        <ele>322.66</ele>
        <time>2013-12-08T12:13:45Z</time>
      </trkpt>
      <trkpt lat="44.35673" lon="4.27802">
        <ele>322.18</ele>
        <time>2013-12-08T12:13:46Z</time>
      </trkpt>
      <trkpt lat="44.35676" lon="4.27797">
        <ele>321.7</ele>
        <time>2013-12-08T12:13:47Z</time>
      </trkpt>
      <trkpt lat="44.3568" lon="4.27793">
        <ele>320.74</ele>
        <time>2013-12-08T12:13:48Z</time>
      </trkpt>
      <trkpt lat="44.35683" lon="4.27789">
        <ele>320.74</ele>
        <time>2013-12-08T12:13:49Z</time>
      </trkpt>
      <trkpt lat="44.35686" lon="4.27785">
        <ele>319.78</ele>
        <time>2013-12-08T12:13:50Z</time>
      </trkpt>
      <trkpt lat="44.35689" lon="4.27781">
        <ele>319.3</ele>
        <time>2013-12-08T12:13:51Z</time>
      </trkpt>
      <trkpt lat="44.35693" lon="4.27778">
        <ele>318.81</ele>
        <time>2013-12-08T12:13:52Z</time>
      </trkpt>
      <trkpt lat="44.35706" lon="4.27766">
        <ele>316.89</ele>
        <time>2013-12-08T12:13:55Z</time>
      </trkpt>
      <trkpt lat="44.35709" lon="4.2776">
        <ele>315.93</ele>
        <time>2013-12-08T12:13:56Z</time>
      </trkpt>
      <trkpt lat="44.35712" lon="4.27753">
        <ele>314.97</ele>
        <time>2013-12-08T12:13:57Z</time>
      </trkpt>
      <trkpt lat="44.35715" lon="4.27745">
        <ele>314.01</ele>
        <time>2013-12-08T12:13:58Z</time>
      </trkpt>
      <trkpt lat="44.35717" lon="4.27737">
        <ele>313.53</ele>
        <time>2013-12-08T12:13:59Z</time>
      </trkpt>
      <trkpt lat="44.35722" lon="4.27722">
        <ele>312.57</ele>
        <time>2013-12-08T12:14:01Z</time>
      </trkpt>
      <trkpt lat="44.35725" lon="4.27716">
        <ele>311.6</ele>
        <time>2013-12-08T12:14:02Z</time>
      </trkpt>
      <trkpt lat="44.35729" lon="4.2771">
        <ele>310.64</ele>
        <time>2013-12-08T12:14:03Z</time>
      </trkpt>
      <trkpt lat="44.35733" lon="4.27705">
        <ele>310.16</ele>
        <time>2013-12-08T12:14:04Z</time>
      </trkpt>
      <trkpt lat="44.35737" lon="4.277">
        <ele>309.68</ele>
        <time>2013-12-08T12:14:05Z</time>
      </trkpt>
      <trkpt lat="44.35741" lon="4.27694">
        <ele>308.72</ele>
        <time>2013-12-08T12:14:06Z</time>
      </trkpt>
      <trkpt lat="44.35759" lon="4.27672">
        <ele>305.36</ele>
        <time>2013-12-08T12:14:10Z</time>
      </trkpt>
      <trkpt lat="44.35777" lon="4.27653">
        <ele>302.95</ele>
        <time>2013-12-08T12:14:14Z</time>
      </trkpt>
      <trkpt lat="44.35782" lon="4.27646">
        <ele>302.47</ele>
        <time>2013-12-08T12:14:15Z</time>
      </trkpt>
      <trkpt lat="44.35798" lon="4.27619">
        <ele>299.11</ele>
        <time>2013-12-08T12:14:19Z</time>
      </trkpt>
      <trkpt lat="44.35805" lon="4.27604">
        <ele>297.67</ele>
        <time>2013-12-08T12:14:21Z</time>
      </trkpt>
      <trkpt lat="44.35808" lon="4.27597">
        <ele>296.7</ele>
        <time>2013-12-08T12:14:22Z</time>
      </trkpt>
      <trkpt lat="44.35817" lon="4.27574">
        <ele>294.78</ele>
        <time>2013-12-08T12:14:25Z</time>
      </trkpt>
      <trkpt lat="44.35819" lon="4.27569">
        <ele>293.82</ele>
        <time>2013-12-08T12:14:26Z</time>
      </trkpt>
      <trkpt lat="44.35822" lon="4.27564">
        <ele>293.82</ele>
        <time>2013-12-08T12:14:27Z</time>
      </trkpt>
      <trkpt lat="44.35829" lon="4.27552">
        <ele>291.9</ele>
        <time>2013-12-08T12:14:35Z</time>
      </trkpt>
      <trkpt lat="44.35828" lon="4.27552">
        <ele>291.9</ele>
        <time>2013-12-08T12:14:47Z</time>
      </trkpt>
      <trkpt lat="44.35829" lon="4.2755">
        <ele>291.9</ele>
        <time>2013-12-08T12:15:05Z</time>
      </trkpt>
      <trkpt lat="44.35841" lon="4.27519">
        <ele>289.49</ele>
        <time>2013-12-08T12:15:12Z</time>
      </trkpt>
      <trkpt lat="44.35844" lon="4.27513">
        <ele>288.53</ele>
        <time>2013-12-08T12:15:13Z</time>
      </trkpt>
      <trkpt lat="44.35846" lon="4.27506">
        <ele>288.05</ele>
        <time>2013-12-08T12:15:14Z</time>
      </trkpt>
      <trkpt lat="44.3585" lon="4.275">
        <ele>287.57</ele>
        <time>2013-12-08T12:15:15Z</time>
      </trkpt>
      <trkpt lat="44.35854" lon="4.27494">
        <ele>287.09</ele>
        <time>2013-12-08T12:15:16Z</time>
      </trkpt>
      <trkpt lat="44.35858" lon="4.27486">
        <ele>286.61</ele>
        <time>2013-12-08T12:15:17Z</time>
      </trkpt>
      <trkpt lat="44.35869" lon="4.27464">
        <ele>283.73</ele>
        <time>2013-12-08T12:15:20Z</time>
      </trkpt>
      <trkpt lat="44.35873" lon="4.27457">
        <ele>283.25</ele>
        <time>2013-12-08T12:15:21Z</time>
      </trkpt>
      <trkpt lat="44.35878" lon="4.27451">
        <ele>282.77</ele>
        <time>2013-12-08T12:15:22Z</time>
      </trkpt>
      <trkpt lat="44.35883" lon="4.27446">
        <ele>282.77</ele>
        <time>2013-12-08T12:15:23Z</time>
      </trkpt>
      <trkpt lat="44.35889" lon="4.27443">
        <ele>281.8</ele>
        <time>2013-12-08T12:15:24Z</time>
      </trkpt>
      <trkpt lat="44.35895" lon="4.2744">
        <ele>281.32</ele>
        <time>2013-12-08T12:15:25Z</time>
      </trkpt>
      <trkpt lat="44.359" lon="4.27438">
        <ele>280.84</ele>
        <time>2013-12-08T12:15:26Z</time>
      </trkpt>
      <trkpt lat="44.35904" lon="4.27435">
        <ele>279.88</ele>
        <time>2013-12-08T12:15:27Z</time>
      </trkpt>
      <trkpt lat="44.35918" lon="4.27428">
        <ele>278.92</ele>
        <time>2013-12-08T12:15:30Z</time>
      </trkpt>
      <trkpt lat="44.35923" lon="4.27424">
        <ele>278.44</ele>
        <time>2013-12-08T12:15:31Z</time>
      </trkpt>
      <trkpt lat="44.35931" lon="4.27416">
        <ele>277.96</ele>
        <time>2013-12-08T12:15:33Z</time>
      </trkpt>
      <trkpt lat="44.35935" lon="4.27412">
        <ele>277.96</ele>
        <time>2013-12-08T12:15:34Z</time>
      </trkpt>
      <trkpt lat="44.35958" lon="4.27398">
        <ele>277</ele>
        <time>2013-12-08T12:15:39Z</time>
      </trkpt>
      <trkpt lat="44.3596" lon="4.27394">
        <ele>276.52</ele>
        <time>2013-12-08T12:15:40Z</time>
      </trkpt>
      <trkpt lat="44.35961" lon="4.2739">
        <ele>277</ele>
        <time>2013-12-08T12:15:41Z</time>
      </trkpt>
      <trkpt lat="44.3596" lon="4.27385">
        <ele>276.52</ele>
        <time>2013-12-08T12:15:42Z</time>
      </trkpt>
      <trkpt lat="44.35958" lon="4.27382">
        <ele>276.52</ele>
        <time>2013-12-08T12:15:43Z</time>
      </trkpt>
      <trkpt lat="44.35957" lon="4.2738">
        <ele>276.52</ele>
        <time>2013-12-08T12:15:44Z</time>
      </trkpt>
      <trkpt lat="44.35956" lon="4.27377">
        <ele>276.52</ele>
        <time>2013-12-08T12:15:45Z</time>
      </trkpt>
      <trkpt lat="44.35953" lon="4.27368">
        <ele>277</ele>
        <time>2013-12-08T12:15:49Z</time>
      </trkpt>
      <trkpt lat="44.35953" lon="4.27362">
        <ele>276.52</ele>
        <time>2013-12-08T12:15:57Z</time>
      </trkpt>
      <trkpt lat="44.35947" lon="4.2732">
        <ele>275.56</ele>
        <time>2013-12-08T12:16:06Z</time>
      </trkpt>
      <trkpt lat="44.35927" lon="4.27271">
        <ele>273.63</ele>
        <time>2013-12-08T12:16:14Z</time>
      </trkpt>
      <trkpt lat="44.35923" lon="4.27258">
        <ele>272.67</ele>
        <time>2013-12-08T12:16:16Z</time>
      </trkpt>
      <trkpt lat="44.3592" lon="4.27251">
        <ele>272.19</ele>
        <time>2013-12-08T12:16:17Z</time>
      </trkpt>
      <trkpt lat="44.35918" lon="4.27244">
        <ele>272.19</ele>
        <time>2013-12-08T12:16:18Z</time>
      </trkpt>
      <trkpt lat="44.35905" lon="4.27213">
        <ele>270.75</ele>
        <time>2013-12-08T12:16:23Z</time>
      </trkpt>
      <trkpt lat="44.35903" lon="4.27208">
        <ele>270.27</ele>
        <time>2013-12-08T12:16:24Z</time>
      </trkpt>
      <trkpt lat="44.35902" lon="4.27203">
        <ele>270.27</ele>
        <time>2013-12-08T12:16:25Z</time>
      </trkpt>
      <trkpt lat="44.35902" lon="4.27198">
        <ele>270.27</ele>
        <time>2013-12-08T12:16:26Z</time>
      </trkpt>
      <trkpt lat="44.35903" lon="4.27193">
        <ele>269.79</ele>
        <time>2013-12-08T12:16:27Z</time>
      </trkpt>
      <trkpt lat="44.35905" lon="4.27188">
        <ele>269.79</ele>
        <time>2013-12-08T12:16:28Z</time>
      </trkpt>
      <trkpt lat="44.35906" lon="4.27182">
        <ele>269.31</ele>
        <time>2013-12-08T12:16:29Z</time>
      </trkpt>
      <trkpt lat="44.35915" lon="4.27156">
        <ele>267.86</ele>
        <time>2013-12-08T12:16:33Z</time>
      </trkpt>
      <trkpt lat="44.35916" lon="4.27152">
        <ele>267.86</ele>
        <time>2013-12-08T12:16:34Z</time>
      </trkpt>
      <trkpt lat="44.35915" lon="4.27149">
        <ele>267.38</ele>
        <time>2013-12-08T12:16:35Z</time>
      </trkpt>
      <trkpt lat="44.35912" lon="4.27148">
        <ele>267.86</ele>
        <time>2013-12-08T12:16:36Z</time>
      </trkpt>
      <trkpt lat="44.35909" lon="4.27149">
        <ele>267.38</ele>
        <time>2013-12-08T12:16:37Z</time>
      </trkpt>
      <trkpt lat="44.35906" lon="4.27151">
        <ele>266.9</ele>
        <time>2013-12-08T12:16:38Z</time>
      </trkpt>
      <trkpt lat="44.35904" lon="4.27154">
        <ele>266.9</ele>
        <time>2013-12-08T12:16:39Z</time>
      </trkpt>
      <trkpt lat="44.359" lon="4.27158">
        <ele>265.94</ele>
        <time>2013-12-08T12:16:40Z</time>
      </trkpt>
      <trkpt lat="44.35896" lon="4.27161">
        <ele>264.98</ele>
        <time>2013-12-08T12:16:41Z</time>
      </trkpt>
      <trkpt lat="44.35888" lon="4.27159">
        <ele>264.02</ele>
        <time>2013-12-08T12:16:43Z</time>
      </trkpt>
      <trkpt lat="44.35885" lon="4.2715">
        <ele>264.5</ele>
        <time>2013-12-08T12:16:45Z</time>
      </trkpt>
      <trkpt lat="44.35875" lon="4.27098">
        <ele>266.9</ele>
        <time>2013-12-08T12:16:58Z</time>
      </trkpt>
      <trkpt lat="44.3585" lon="4.27038">
        <ele>266.9</ele>
        <time>2013-12-08T12:17:10Z</time>
      </trkpt>
      <trkpt lat="44.35833" lon="4.2699">
        <ele>264.98</ele>
        <time>2013-12-08T12:17:18Z</time>
      </trkpt>
      <trkpt lat="44.3583" lon="4.26985">
        <ele>264.98</ele>
        <time>2013-12-08T12:17:19Z</time>
      </trkpt>
      <trkpt lat="44.35825" lon="4.26975">
        <ele>264.5</ele>
        <time>2013-12-08T12:17:21Z</time>
      </trkpt>
      <trkpt lat="44.35812" lon="4.26944">
        <ele>265.46</ele>
        <time>2013-12-08T12:17:31Z</time>
      </trkpt>
      <trkpt lat="44.35812" lon="4.26944">
        <ele>265.46</ele>
        <time>2013-12-08T12:17:37Z</time>
      </trkpt>
      <trkpt lat="44.35811" lon="4.26942">
        <ele>265.46</ele>
        <time>2013-12-08T12:17:38Z</time>
      </trkpt>
      <trkpt lat="44.3581" lon="4.26939">
        <ele>265.46</ele>
        <time>2013-12-08T12:17:39Z</time>
      </trkpt>
      <trkpt lat="44.35808" lon="4.26937">
        <ele>265.46</ele>
        <time>2013-12-08T12:17:40Z</time>
      </trkpt>
      <trkpt lat="44.35806" lon="4.26935">
        <ele>265.46</ele>
        <time>2013-12-08T12:17:41Z</time>
      </trkpt>
      <trkpt lat="44.35804" lon="4.26932">
        <ele>265.46</ele>
        <time>2013-12-08T12:17:42Z</time>
      </trkpt>
      <trkpt lat="44.35802" lon="4.2693">
        <ele>265.46</ele>
        <time>2013-12-08T12:17:43Z</time>
      </trkpt>
      <trkpt lat="44.35799" lon="4.26928">
        <ele>265.46</ele>
        <time>2013-12-08T12:17:44Z</time>
      </trkpt>
      <trkpt lat="44.35797" lon="4.26927">
        <ele>265.46</ele>
        <time>2013-12-08T12:17:45Z</time>
      </trkpt>
      <trkpt lat="44.35794" lon="4.26927">
        <ele>265.46</ele>
        <time>2013-12-08T12:17:46Z</time>
      </trkpt>
      <trkpt lat="44.35769" lon="4.26929">
        <ele>263.54</ele>
        <time>2013-12-08T12:17:56Z</time>
      </trkpt>
      <trkpt lat="44.35767" lon="4.2693">
        <ele>263.54</ele>
        <time>2013-12-08T12:18:06Z</time>
      </trkpt>
      <trkpt lat="44.35765" lon="4.2693">
        <ele>263.06</ele>
        <time>2013-12-08T12:18:07Z</time>
      </trkpt>
      <trkpt lat="44.35763" lon="4.26931">
        <ele>263.06</ele>
        <time>2013-12-08T12:18:08Z</time>
      </trkpt>
      <trkpt lat="44.35752" lon="4.26924">
        <ele>262.58</ele>
        <time>2013-12-08T12:18:17Z</time>
      </trkpt>
      <trkpt lat="44.35751" lon="4.26921">
        <ele>263.06</ele>
        <time>2013-12-08T12:18:22Z</time>
      </trkpt>
      <trkpt lat="44.3575" lon="4.26919">
        <ele>263.06</ele>
        <time>2013-12-08T12:18:23Z</time>
      </trkpt>
      <trkpt lat="44.3575" lon="4.26917">
        <ele>263.06</ele>
        <time>2013-12-08T12:18:24Z</time>
      </trkpt>
      <trkpt lat="44.35749" lon="4.26915">
        <ele>263.54</ele>
        <time>2013-12-08T12:18:25Z</time>
      </trkpt>
      <trkpt lat="44.35749" lon="4.26913">
        <ele>263.54</ele>
        <time>2013-12-08T12:18:26Z</time>
      </trkpt>
      <trkpt lat="44.35749" lon="4.26911">
        <ele>263.54</ele>
        <time>2013-12-08T12:18:27Z</time>
      </trkpt>
      <trkpt lat="44.35748" lon="4.26898">
        <ele>264.5</ele>
        <time>2013-12-08T12:18:34Z</time>
      </trkpt>
      <trkpt lat="44.35747" lon="4.26896">
        <ele>264.5</ele>
        <time>2013-12-08T12:18:35Z</time>
      </trkpt>
      <trkpt lat="44.35746" lon="4.26894">
        <ele>264.98</ele>
        <time>2013-12-08T12:18:41Z</time>
      </trkpt>
      <trkpt lat="44.35746" lon="4.26892">
        <ele>264.98</ele>
        <time>2013-12-08T12:18:42Z</time>
      </trkpt>
      <trkpt lat="44.35745" lon="4.2689">
        <ele>265.46</ele>
        <time>2013-12-08T12:18:43Z</time>
      </trkpt>
      <trkpt lat="44.35745" lon="4.26887">
        <ele>265.46</ele>
        <time>2013-12-08T12:18:44Z</time>
      </trkpt>
      <trkpt lat="44.35744" lon="4.26885">
        <ele>265.94</ele>
        <time>2013-12-08T12:18:45Z</time>
      </trkpt>
      <trkpt lat="44.35743" lon="4.26883">
        <ele>265.94</ele>
        <time>2013-12-08T12:18:46Z</time>
      </trkpt>
      <trkpt lat="44.35743" lon="4.26881">
        <ele>266.42</ele>
        <time>2013-12-08T12:18:47Z</time>
      </trkpt>
      <trkpt lat="44.35742" lon="4.26879">
        <ele>266.42</ele>
        <time>2013-12-08T12:18:48Z</time>
      </trkpt>
      <trkpt lat="44.35742" lon="4.26877">
        <ele>266.42</ele>
        <time>2013-12-08T12:18:49Z</time>
      </trkpt>
      <trkpt lat="44.35741" lon="4.26875">
        <ele>266.42</ele>
        <time>2013-12-08T12:18:50Z</time>
      </trkpt>
      <trkpt lat="44.35739" lon="4.26874">
        <ele>266.9</ele>
        <time>2013-12-08T12:18:51Z</time>
      </trkpt>
      <trkpt lat="44.35738" lon="4.26873">
        <ele>266.9</ele>
        <time>2013-12-08T12:18:52Z</time>
      </trkpt>
      <trkpt lat="44.35737" lon="4.26871">
        <ele>267.38</ele>
        <time>2013-12-08T12:18:53Z</time>
      </trkpt>
      <trkpt lat="44.35735" lon="4.2687">
        <ele>267.38</ele>
        <time>2013-12-08T12:18:54Z</time>
      </trkpt>
      <trkpt lat="44.35734" lon="4.26869">
        <ele>267.38</ele>
        <time>2013-12-08T12:18:55Z</time>
      </trkpt>
      <trkpt lat="44.35733" lon="4.26868">
        <ele>267.38</ele>
        <time>2013-12-08T12:18:56Z</time>
      </trkpt>
      <trkpt lat="44.35732" lon="4.26867">
        <ele>267.86</ele>
        <time>2013-12-08T12:18:57Z</time>
      </trkpt>
      <trkpt lat="44.3573" lon="4.26866">
        <ele>268.35</ele>
        <time>2013-12-08T12:19:11Z</time>
      </trkpt>
      <trkpt lat="44.3573" lon="4.26866">
        <ele>267.86</ele>
        <time>2013-12-08T12:19:13Z</time>
      </trkpt>
      <trkpt lat="44.35731" lon="4.26866">
        <ele>268.35</ele>
        <time>2013-12-08T12:19:20Z</time>
      </trkpt>
      <trkpt lat="44.35732" lon="4.26868">
        <ele>267.86</ele>
        <time>2013-12-08T12:19:21Z</time>
      </trkpt>
      <trkpt lat="44.35734" lon="4.26869">
        <ele>267.86</ele>
        <time>2013-12-08T12:19:22Z</time>
      </trkpt>
      <trkpt lat="44.35744" lon="4.26879">
        <ele>266.42</ele>
        <time>2013-12-08T12:19:27Z</time>
      </trkpt>
      <trkpt lat="44.35747" lon="4.2688">
        <ele>266.42</ele>
        <time>2013-12-08T12:19:28Z</time>
      </trkpt>
      <trkpt lat="44.35749" lon="4.26881">
        <ele>266.42</ele>
        <time>2013-12-08T12:19:29Z</time>
      </trkpt>
      <trkpt lat="44.35752" lon="4.26882">
        <ele>265.94</ele>
        <time>2013-12-08T12:19:30Z</time>
      </trkpt>
      <trkpt lat="44.35755" lon="4.26883">
        <ele>265.46</ele>
        <time>2013-12-08T12:19:31Z</time>
      </trkpt>
      <trkpt lat="44.35756" lon="4.26884">
        <ele>264.5</ele>
        <time>2013-12-08T12:19:32Z</time>
      </trkpt>
      <trkpt lat="44.35758" lon="4.26884">
        <ele>264.02</ele>
        <time>2013-12-08T12:19:33Z</time>
      </trkpt>
      <trkpt lat="44.35759" lon="4.26884">
        <ele>263.54</ele>
        <time>2013-12-08T12:19:34Z</time>
      </trkpt>
      <trkpt lat="44.35761" lon="4.26885">
        <ele>262.58</ele>
        <time>2013-12-08T12:19:35Z</time>
      </trkpt>
      <trkpt lat="44.35767" lon="4.26892">
        <ele>261.14</ele>
        <time>2013-12-08T12:19:42Z</time>
      </trkpt>
      <trkpt lat="44.35768" lon="4.26891">
        <ele>260.65</ele>
        <time>2013-12-08T12:19:52Z</time>
      </trkpt>
      <trkpt lat="44.35768" lon="4.26889">
        <ele>260.65</ele>
        <time>2013-12-08T12:20:08Z</time>
      </trkpt>
      <trkpt lat="44.35769" lon="4.26887">
        <ele>260.65</ele>
        <time>2013-12-08T12:20:09Z</time>
      </trkpt>
      <trkpt lat="44.35769" lon="4.26884">
        <ele>260.65</ele>
        <time>2013-12-08T12:20:10Z</time>
      </trkpt>
      <trkpt lat="44.35769" lon="4.2688">
        <ele>260.17</ele>
        <time>2013-12-08T12:20:11Z</time>
      </trkpt>
      <trkpt lat="44.3577" lon="4.26876">
        <ele>259.69</ele>
        <time>2013-12-08T12:20:12Z</time>
      </trkpt>
      <trkpt lat="44.35771" lon="4.26873">
        <ele>259.69</ele>
        <time>2013-12-08T12:20:13Z</time>
      </trkpt>
      <trkpt lat="44.35773" lon="4.2687">
        <ele>259.69</ele>
        <time>2013-12-08T12:20:14Z</time>
      </trkpt>
      <trkpt lat="44.35775" lon="4.26866">
        <ele>259.21</ele>
        <time>2013-12-08T12:20:15Z</time>
      </trkpt>
      <trkpt lat="44.35781" lon="4.26851">
        <ele>257.77</ele>
        <time>2013-12-08T12:20:19Z</time>
      </trkpt>
      <trkpt lat="44.35786" lon="4.26835">
        <ele>255.37</ele>
        <time>2013-12-08T12:20:22Z</time>
      </trkpt>
      <trkpt lat="44.35788" lon="4.2683">
        <ele>254.89</ele>
        <time>2013-12-08T12:20:23Z</time>
      </trkpt>
      <trkpt lat="44.35789" lon="4.26825">
        <ele>254.41</ele>
        <time>2013-12-08T12:20:24Z</time>
      </trkpt>
      <trkpt lat="44.35796" lon="4.26804">
        <ele>251.04</ele>
        <time>2013-12-08T12:20:28Z</time>
      </trkpt>
      <trkpt lat="44.35804" lon="4.26788">
        <ele>249.12</ele>
        <time>2013-12-08T12:20:32Z</time>
      </trkpt>
      <trkpt lat="44.35807" lon="4.26786">
        <ele>248.16</ele>
        <time>2013-12-08T12:20:33Z</time>
      </trkpt>
      <trkpt lat="44.35807" lon="4.26783">
        <ele>247.68</ele>
        <time>2013-12-08T12:20:41Z</time>
      </trkpt>
      <trkpt lat="44.35807" lon="4.26783">
        <ele>247.2</ele>
        <time>2013-12-08T12:21:03Z</time>
      </trkpt>
      <trkpt lat="44.35807" lon="4.26783">
        <ele>247.68</ele>
        <time>2013-12-08T12:21:17Z</time>
      </trkpt>
      <trkpt lat="44.35808" lon="4.26782">
        <ele>247.2</ele>
        <time>2013-12-08T12:21:18Z</time>
      </trkpt>
      <trkpt lat="44.3581" lon="4.26779">
        <ele>246.72</ele>
        <time>2013-12-08T12:21:19Z</time>
      </trkpt>
      <trkpt lat="44.35813" lon="4.26776">
        <ele>246.23</ele>
        <time>2013-12-08T12:21:20Z</time>
      </trkpt>
      <trkpt lat="44.35815" lon="4.26773">
        <ele>245.75</ele>
        <time>2013-12-08T12:21:21Z</time>
      </trkpt>
      <trkpt lat="44.35817" lon="4.26771">
        <ele>244.79</ele>
        <time>2013-12-08T12:21:22Z</time>
      </trkpt>
      <trkpt lat="44.35819" lon="4.2677">
        <ele>244.31</ele>
        <time>2013-12-08T12:21:23Z</time>
      </trkpt>
      <trkpt lat="44.35832" lon="4.26761">
        <ele>241.43</ele>
        <time>2013-12-08T12:21:27Z</time>
      </trkpt>
      <trkpt lat="44.35846" lon="4.26748">
        <ele>238.54</ele>
        <time>2013-12-08T12:21:31Z</time>
      </trkpt>
      <trkpt lat="44.35848" lon="4.26743">
        <ele>237.58</ele>
        <time>2013-12-08T12:21:32Z</time>
      </trkpt>
      <trkpt lat="44.3585" lon="4.26737">
        <ele>236.62</ele>
        <time>2013-12-08T12:21:33Z</time>
      </trkpt>
      <trkpt lat="44.35859" lon="4.2672">
        <ele>233.74</ele>
        <time>2013-12-08T12:21:37Z</time>
      </trkpt>
      <trkpt lat="44.35865" lon="4.26703">
        <ele>231.33</ele>
        <time>2013-12-08T12:21:41Z</time>
      </trkpt>
      <trkpt lat="44.35865" lon="4.26699">
        <ele>230.37</ele>
        <time>2013-12-08T12:21:42Z</time>
      </trkpt>
      <trkpt lat="44.35865" lon="4.26694">
        <ele>229.89</ele>
        <time>2013-12-08T12:21:43Z</time>
      </trkpt>
      <trkpt lat="44.35864" lon="4.2669">
        <ele>229.41</ele>
        <time>2013-12-08T12:21:44Z</time>
      </trkpt>
      <trkpt lat="44.35864" lon="4.26685">
        <ele>228.93</ele>
        <time>2013-12-08T12:21:45Z</time>
      </trkpt>
      <trkpt lat="44.35865" lon="4.26679">
        <ele>227.97</ele>
        <time>2013-12-08T12:21:46Z</time>
      </trkpt>
      <trkpt lat="44.35866" lon="4.26674">
        <ele>227.49</ele>
        <time>2013-12-08T12:21:47Z</time>
      </trkpt>
      <trkpt lat="44.35869" lon="4.26653">
        <ele>224.61</ele>
        <time>2013-12-08T12:21:51Z</time>
      </trkpt>
      <trkpt lat="44.3587" lon="4.26646">
        <ele>223.64</ele>
        <time>2013-12-08T12:21:52Z</time>
      </trkpt>
      <trkpt lat="44.35871" lon="4.26639">
        <ele>223.16</ele>
        <time>2013-12-08T12:21:53Z</time>
      </trkpt>
      <trkpt lat="44.35872" lon="4.26632">
        <ele>221.72</ele>
        <time>2013-12-08T12:21:54Z</time>
      </trkpt>
      <trkpt lat="44.35872" lon="4.26624">
        <ele>220.76</ele>
        <time>2013-12-08T12:21:55Z</time>
      </trkpt>
      <trkpt lat="44.35874" lon="4.26616">
        <ele>219.8</ele>
        <time>2013-12-08T12:21:56Z</time>
      </trkpt>
      <trkpt lat="44.35876" lon="4.2661">
        <ele>218.84</ele>
        <time>2013-12-08T12:21:57Z</time>
      </trkpt>
      <trkpt lat="44.35877" lon="4.26607">
        <ele>217.88</ele>
        <time>2013-12-08T12:21:59Z</time>
      </trkpt>
      <trkpt lat="44.35877" lon="4.26608">
        <ele>218.36</ele>
        <time>2013-12-08T12:22:13Z</time>
      </trkpt>
      <trkpt lat="44.35878" lon="4.26609">
        <ele>217.88</ele>
        <time>2013-12-08T12:22:23Z</time>
      </trkpt>
      <trkpt lat="44.35878" lon="4.2661">
        <ele>217.88</ele>
        <time>2013-12-08T12:22:24Z</time>
      </trkpt>
      <trkpt lat="44.35878" lon="4.26612">
        <ele>217.88</ele>
        <time>2013-12-08T12:22:25Z</time>
      </trkpt>
      <trkpt lat="44.35879" lon="4.26614">
        <ele>217.4</ele>
        <time>2013-12-08T12:22:26Z</time>
      </trkpt>
      <trkpt lat="44.35879" lon="4.26618">
        <ele>216.91</ele>
        <time>2013-12-08T12:22:27Z</time>
      </trkpt>
      <trkpt lat="44.35881" lon="4.26623">
        <ele>215.95</ele>
        <time>2013-12-08T12:22:28Z</time>
      </trkpt>
      <trkpt lat="44.35882" lon="4.26629">
        <ele>214.99</ele>
        <time>2013-12-08T12:22:29Z</time>
      </trkpt>
      <trkpt lat="44.35884" lon="4.26636">
        <ele>214.03</ele>
        <time>2013-12-08T12:22:30Z</time>
      </trkpt>
      <trkpt lat="44.35884" lon="4.26642">
        <ele>213.55</ele>
        <time>2013-12-08T12:22:31Z</time>
      </trkpt>
      <trkpt lat="44.35886" lon="4.26646">
        <ele>212.59</ele>
        <time>2013-12-08T12:22:32Z</time>
      </trkpt>
      <trkpt lat="44.3589" lon="4.26648">
        <ele>212.11</ele>
        <time>2013-12-08T12:22:33Z</time>
      </trkpt>
      <trkpt lat="44.35893" lon="4.26647">
        <ele>211.63</ele>
        <time>2013-12-08T12:22:34Z</time>
      </trkpt>
      <trkpt lat="44.35896" lon="4.26643">
        <ele>210.67</ele>
        <time>2013-12-08T12:22:35Z</time>
      </trkpt>
      <trkpt lat="44.35899" lon="4.26638">
        <ele>210.19</ele>
        <time>2013-12-08T12:22:36Z</time>
      </trkpt>
      <trkpt lat="44.35905" lon="4.26627">
        <ele>207.78</ele>
        <time>2013-12-08T12:22:38Z</time>
      </trkpt>
      <trkpt lat="44.35909" lon="4.26623">
        <ele>206.82</ele>
        <time>2013-12-08T12:22:39Z</time>
      </trkpt>
      <trkpt lat="44.35912" lon="4.2662">
        <ele>206.34</ele>
        <time>2013-12-08T12:22:40Z</time>
      </trkpt>
      <trkpt lat="44.35914" lon="4.26617">
        <ele>206.34</ele>
        <time>2013-12-08T12:22:41Z</time>
      </trkpt>
      <trkpt lat="44.35914" lon="4.26615">
        <ele>205.38</ele>
        <time>2013-12-08T12:22:42Z</time>
      </trkpt>
      <trkpt lat="44.35913" lon="4.26612">
        <ele>205.38</ele>
        <time>2013-12-08T12:22:43Z</time>
      </trkpt>
      <trkpt lat="44.35912" lon="4.2661">
        <ele>204.9</ele>
        <time>2013-12-08T12:22:44Z</time>
      </trkpt>
      <trkpt lat="44.35909" lon="4.26608">
        <ele>205.38</ele>
        <time>2013-12-08T12:22:45Z</time>
      </trkpt>
      <trkpt lat="44.3589" lon="4.26571">
        <ele>203.46</ele>
        <time>2013-12-08T12:22:54Z</time>
      </trkpt>
      <trkpt lat="44.35883" lon="4.26563">
        <ele>203.46</ele>
        <time>2013-12-08T12:22:57Z</time>
      </trkpt>
      <trkpt lat="44.3588" lon="4.26561">
        <ele>203.46</ele>
        <time>2013-12-08T12:22:58Z</time>
      </trkpt>
      <trkpt lat="44.35854" lon="4.2655">
        <ele>202.01</ele>
        <time>2013-12-08T12:23:08Z</time>
      </trkpt>
      <trkpt lat="44.35852" lon="4.26552">
        <ele>202.01</ele>
        <time>2013-12-08T12:23:09Z</time>
      </trkpt>
      <trkpt lat="44.35845" lon="4.26552">
        <ele>201.05</ele>
        <time>2013-12-08T12:23:19Z</time>
      </trkpt>
      <trkpt lat="44.3583" lon="4.26554">
        <ele>199.61</ele>
        <time>2013-12-08T12:23:23Z</time>
      </trkpt>
      <trkpt lat="44.35826" lon="4.26556">
        <ele>199.13</ele>
        <time>2013-12-08T12:23:24Z</time>
      </trkpt>
      <trkpt lat="44.3581" lon="4.26563">
        <ele>197.69</ele>
        <time>2013-12-08T12:23:27Z</time>
      </trkpt>
      <trkpt lat="44.35805" lon="4.26564">
        <ele>197.21</ele>
        <time>2013-12-08T12:23:28Z</time>
      </trkpt>
      <trkpt lat="44.35799" lon="4.26564">
        <ele>196.25</ele>
        <time>2013-12-08T12:23:29Z</time>
      </trkpt>
      <trkpt lat="44.35795" lon="4.2656">
        <ele>196.73</ele>
        <time>2013-12-08T12:23:30Z</time>
      </trkpt>
      <trkpt lat="44.35794" lon="4.26556">
        <ele>196.73</ele>
        <time>2013-12-08T12:23:31Z</time>
      </trkpt>
      <trkpt lat="44.35793" lon="4.26551">
        <ele>196.73</ele>
        <time>2013-12-08T12:23:32Z</time>
      </trkpt>
      <trkpt lat="44.35792" lon="4.26546">
        <ele>196.73</ele>
        <time>2013-12-08T12:23:33Z</time>
      </trkpt>
      <trkpt lat="44.35793" lon="4.26541">
        <ele>196.73</ele>
        <time>2013-12-08T12:23:34Z</time>
      </trkpt>
      <trkpt lat="44.35794" lon="4.26536">
        <ele>196.73</ele>
        <time>2013-12-08T12:23:35Z</time>
      </trkpt>
      <trkpt lat="44.35795" lon="4.26532">
        <ele>196.73</ele>
        <time>2013-12-08T12:23:36Z</time>
      </trkpt>
      <trkpt lat="44.35797" lon="4.26527">
        <ele>196.73</ele>
        <time>2013-12-08T12:23:37Z</time>
      </trkpt>
      <trkpt lat="44.35799" lon="4.26522">
        <ele>197.21</ele>
        <time>2013-12-08T12:23:38Z</time>
      </trkpt>
      <trkpt lat="44.35812" lon="4.26473">
        <ele>197.21</ele>
        <time>2013-12-08T12:23:48Z</time>
      </trkpt>
      <trkpt lat="44.35814" lon="4.26468">
        <ele>196.73</ele>
        <time>2013-12-08T12:23:49Z</time>
      </trkpt>
      <trkpt lat="44.35816" lon="4.26463">
        <ele>197.21</ele>
        <time>2013-12-08T12:23:50Z</time>
      </trkpt>
      <trkpt lat="44.35856" lon="4.26416">
        <ele>194.8</ele>
        <time>2013-12-08T12:24:01Z</time>
      </trkpt>
      <trkpt lat="44.3586" lon="4.26411">
        <ele>194.32</ele>
        <time>2013-12-08T12:24:02Z</time>
      </trkpt>
      <trkpt lat="44.35872" lon="4.26395">
        <ele>193.84</ele>
        <time>2013-12-08T12:24:05Z</time>
      </trkpt>
      <trkpt lat="44.35874" lon="4.26389">
        <ele>192.4</ele>
        <time>2013-12-08T12:24:06Z</time>
      </trkpt>
      <trkpt lat="44.35875" lon="4.26382">
        <ele>192.4</ele>
        <time>2013-12-08T12:24:07Z</time>
      </trkpt>
      <trkpt lat="44.35874" lon="4.26375">
        <ele>191.44</ele>
        <time>2013-12-08T12:24:08Z</time>
      </trkpt>
      <trkpt lat="44.35872" lon="4.26369">
        <ele>191.92</ele>
        <time>2013-12-08T12:24:09Z</time>
      </trkpt>
      <trkpt lat="44.35869" lon="4.26364">
        <ele>191.92</ele>
        <time>2013-12-08T12:24:10Z</time>
      </trkpt>
      <trkpt lat="44.35866" lon="4.2636">
        <ele>191.92</ele>
        <time>2013-12-08T12:24:11Z</time>
      </trkpt>
      <trkpt lat="44.35863" lon="4.26357">
        <ele>191.92</ele>
        <time>2013-12-08T12:24:12Z</time>
      </trkpt>
      <trkpt lat="44.35836" lon="4.26339">
        <ele>193.84</ele>
        <time>2013-12-08T12:24:24Z</time>
      </trkpt>
      <trkpt lat="44.35815" lon="4.26332">
        <ele>195.77</ele>
        <time>2013-12-08T12:24:34Z</time>
      </trkpt>
      <trkpt lat="44.35793" lon="4.26322">
        <ele>195.77</ele>
        <time>2013-12-08T12:24:44Z</time>
      </trkpt>
      <trkpt lat="44.35791" lon="4.26318">
        <ele>195.28</ele>
        <time>2013-12-08T12:24:45Z</time>
      </trkpt>
      <trkpt lat="44.35789" lon="4.26313">
        <ele>194.8</ele>
        <time>2013-12-08T12:24:46Z</time>
      </trkpt>
      <trkpt lat="44.35787" lon="4.26305">
        <ele>193.84</ele>
        <time>2013-12-08T12:24:47Z</time>
      </trkpt>
      <trkpt lat="44.35785" lon="4.26297">
        <ele>192.4</ele>
        <time>2013-12-08T12:24:48Z</time>
      </trkpt>
      <trkpt lat="44.35779" lon="4.26278">
        <ele>190</ele>
        <time>2013-12-08T12:24:50Z</time>
      </trkpt>
      <trkpt lat="44.35775" lon="4.26269">
        <ele>189.04</ele>
        <time>2013-12-08T12:24:51Z</time>
      </trkpt>
      <trkpt lat="44.35766" lon="4.26254">
        <ele>188.56</ele>
        <time>2013-12-08T12:24:53Z</time>
      </trkpt>
      <trkpt lat="44.35747" lon="4.26219">
        <ele>187.11</ele>
        <time>2013-12-08T12:24:58Z</time>
      </trkpt>
      <trkpt lat="44.35745" lon="4.26212">
        <ele>187.11</ele>
        <time>2013-12-08T12:24:59Z</time>
      </trkpt>
      <trkpt lat="44.35744" lon="4.26206">
        <ele>187.11</ele>
        <time>2013-12-08T12:25:00Z</time>
      </trkpt>
      <trkpt lat="44.35743" lon="4.26201">
        <ele>187.11</ele>
        <time>2013-12-08T12:25:01Z</time>
      </trkpt>
      <trkpt lat="44.35742" lon="4.26196">
        <ele>187.59</ele>
        <time>2013-12-08T12:25:02Z</time>
      </trkpt>
      <trkpt lat="44.35741" lon="4.26191">
        <ele>188.08</ele>
        <time>2013-12-08T12:25:03Z</time>
      </trkpt>
      <trkpt lat="44.35726" lon="4.26154">
        <ele>190</ele>
        <time>2013-12-08T12:25:14Z</time>
      </trkpt>
      <trkpt lat="44.35708" lon="4.26107">
        <ele>189.04</ele>
        <time>2013-12-08T12:25:27Z</time>
      </trkpt>
      <trkpt lat="44.35701" lon="4.26096">
        <ele>190</ele>
        <time>2013-12-08T12:25:37Z</time>
      </trkpt>
      <trkpt lat="44.35702" lon="4.26096">
        <ele>190.48</ele>
        <time>2013-12-08T12:25:47Z</time>
      </trkpt>
      <trkpt lat="44.35702" lon="4.26096">
        <ele>190</ele>
        <time>2013-12-08T12:26:02Z</time>
      </trkpt>
      <trkpt lat="44.35701" lon="4.26096">
        <ele>190</ele>
        <time>2013-12-08T12:26:05Z</time>
      </trkpt>
      <trkpt lat="44.35698" lon="4.26087">
        <ele>189.52</ele>
        <time>2013-12-08T12:26:09Z</time>
      </trkpt>
      <trkpt lat="44.35693" lon="4.26079">
        <ele>190</ele>
        <time>2013-12-08T12:26:12Z</time>
      </trkpt>
      <trkpt lat="44.35687" lon="4.26076">
        <ele>190.48</ele>
        <time>2013-12-08T12:26:15Z</time>
      </trkpt>
      <trkpt lat="44.35678" lon="4.26075">
        <ele>189.52</ele>
        <time>2013-12-08T12:26:25Z</time>
      </trkpt>
      <trkpt lat="44.35678" lon="4.26075">
        <ele>192.88</ele>
        <time>2013-12-08T12:26:26Z</time>
      </trkpt>
      <trkpt lat="44.35676" lon="4.26077">
        <ele>192.4</ele>
        <time>2013-12-08T12:26:36Z</time>
      </trkpt>
      <trkpt lat="44.35667" lon="4.26088">
        <ele>195.28</ele>
        <time>2013-12-08T12:26:50Z</time>
      </trkpt>
      <trkpt lat="44.35661" lon="4.26099">
        <ele>196.73</ele>
        <time>2013-12-08T12:27:03Z</time>
      </trkpt>
      <trkpt lat="44.35653" lon="4.26112">
        <ele>200.09</ele>
        <time>2013-12-08T12:27:16Z</time>
      </trkpt>
      <trkpt lat="44.35648" lon="4.26119">
        <ele>202.01</ele>
        <time>2013-12-08T12:27:30Z</time>
      </trkpt>
      <trkpt lat="44.35642" lon="4.26126">
        <ele>204.42</ele>
        <time>2013-12-08T12:27:46Z</time>
      </trkpt>
      <trkpt lat="44.35639" lon="4.26131">
        <ele>205.86</ele>
        <time>2013-12-08T12:27:51Z</time>
      </trkpt>
      <trkpt lat="44.35632" lon="4.26137">
        <ele>206.82</ele>
        <time>2013-12-08T12:28:05Z</time>
      </trkpt>
      <trkpt lat="44.35632" lon="4.26137">
        <ele>207.3</ele>
        <time>2013-12-08T12:28:30Z</time>
      </trkpt>
      <trkpt lat="44.35632" lon="4.26136">
        <ele>206.82</ele>
        <time>2013-12-08T12:28:52Z</time>
      </trkpt>
      <trkpt lat="44.35632" lon="4.26137">
        <ele>206.82</ele>
        <time>2013-12-08T12:28:53Z</time>
      </trkpt>
      <trkpt lat="44.35631" lon="4.26136">
        <ele>206.82</ele>
        <time>2013-12-08T12:28:55Z</time>
      </trkpt>
      <trkpt lat="44.3561" lon="4.26128">
        <ele>208.74</ele>
        <time>2013-12-08T12:29:08Z</time>
      </trkpt>
      <trkpt lat="44.35587" lon="4.26123">
        <ele>210.67</ele>
        <time>2013-12-08T12:29:22Z</time>
      </trkpt>
      <trkpt lat="44.35588" lon="4.26123">
        <ele>210.67</ele>
        <time>2013-12-08T12:29:35Z</time>
      </trkpt>
      <trkpt lat="44.35588" lon="4.26123">
        <ele>210.67</ele>
        <time>2013-12-08T12:29:59Z</time>
      </trkpt>
      <trkpt lat="44.35588" lon="4.26124">
        <ele>210.67</ele>
        <time>2013-12-08T12:30:25Z</time>
      </trkpt>
      <trkpt lat="44.35584" lon="4.26123">
        <ele>210.67</ele>
        <time>2013-12-08T12:30:29Z</time>
      </trkpt>
      <trkpt lat="44.35559" lon="4.26122">
        <ele>210.19</ele>
        <time>2013-12-08T12:30:38Z</time>
      </trkpt>
      <trkpt lat="44.35551" lon="4.26122">
        <ele>209.22</ele>
        <time>2013-12-08T12:30:40Z</time>
      </trkpt>
      <trkpt lat="44.35547" lon="4.26121">
        <ele>208.74</ele>
        <time>2013-12-08T12:30:41Z</time>
      </trkpt>
      <trkpt lat="44.35542" lon="4.26121">
        <ele>208.26</ele>
        <time>2013-12-08T12:30:42Z</time>
      </trkpt>
      <trkpt lat="44.35524" lon="4.26115">
        <ele>206.82</ele>
        <time>2013-12-08T12:30:50Z</time>
      </trkpt>
      <trkpt lat="44.35521" lon="4.26112">
        <ele>206.34</ele>
        <time>2013-12-08T12:31:00Z</time>
      </trkpt>
      <trkpt lat="44.3552" lon="4.26112">
        <ele>206.82</ele>
        <time>2013-12-08T12:31:01Z</time>
      </trkpt>
      <trkpt lat="44.35518" lon="4.26112">
        <ele>206.82</ele>
        <time>2013-12-08T12:31:03Z</time>
      </trkpt>
      <trkpt lat="44.35508" lon="4.26105">
        <ele>207.78</ele>
        <time>2013-12-08T12:31:17Z</time>
      </trkpt>
      <trkpt lat="44.35506" lon="4.26103">
        <ele>207.3</ele>
        <time>2013-12-08T12:31:30Z</time>
      </trkpt>
      <trkpt lat="44.35505" lon="4.26102">
        <ele>208.26</ele>
        <time>2013-12-08T12:31:58Z</time>
      </trkpt>
      <trkpt lat="44.35496" lon="4.26094">
        <ele>208.74</ele>
        <time>2013-12-08T12:32:10Z</time>
      </trkpt>
      <trkpt lat="44.3549" lon="4.26092">
        <ele>208.74</ele>
        <time>2013-12-08T12:32:23Z</time>
      </trkpt>
      <trkpt lat="44.35489" lon="4.26093">
        <ele>209.7</ele>
        <time>2013-12-08T12:32:40Z</time>
      </trkpt>
      <trkpt lat="44.35489" lon="4.26093">
        <ele>208.74</ele>
        <time>2013-12-08T12:32:57Z</time>
      </trkpt>
      <trkpt lat="44.35489" lon="4.26093">
        <ele>208.74</ele>
        <time>2013-12-08T12:33:26Z</time>
      </trkpt>
      <trkpt lat="44.3549" lon="4.26096">
        <ele>210.19</ele>
        <time>2013-12-08T12:33:47Z</time>
      </trkpt>
      <trkpt lat="44.35489" lon="4.26098">
        <ele>211.63</ele>
        <time>2013-12-08T12:34:00Z</time>
      </trkpt>
      <trkpt lat="44.35488" lon="4.26101">
        <ele>212.59</ele>
        <time>2013-12-08T12:34:14Z</time>
      </trkpt>
      <trkpt lat="44.35488" lon="4.26101">
        <ele>213.07</ele>
        <time>2013-12-08T12:34:44Z</time>
      </trkpt>
      <trkpt lat="44.35488" lon="4.26104">
        <ele>213.07</ele>
        <time>2013-12-08T12:34:53Z</time>
      </trkpt>
      <trkpt lat="44.3549" lon="4.26107">
        <ele>213.55</ele>
        <time>2013-12-08T12:34:56Z</time>
      </trkpt>
      <trkpt lat="44.35491" lon="4.2611">
        <ele>213.07</ele>
        <time>2013-12-08T12:34:59Z</time>
      </trkpt>
      <trkpt lat="44.35491" lon="4.26113">
        <ele>213.55</ele>
        <time>2013-12-08T12:35:01Z</time>
      </trkpt>
      <trkpt lat="44.3549" lon="4.26119">
        <ele>214.03</ele>
        <time>2013-12-08T12:35:11Z</time>
      </trkpt>
      <trkpt lat="44.3549" lon="4.26117">
        <ele>214.51</ele>
        <time>2013-12-08T12:35:38Z</time>
      </trkpt>
      <trkpt lat="44.3549" lon="4.26117">
        <ele>214.51</ele>
        <time>2013-12-08T12:35:43Z</time>
      </trkpt>
      <trkpt lat="44.35489" lon="4.26116">
        <ele>214.51</ele>
        <time>2013-12-08T12:35:54Z</time>
      </trkpt>
      <trkpt lat="44.35487" lon="4.26114">
        <ele>214.51</ele>
        <time>2013-12-08T12:35:56Z</time>
      </trkpt>
      <trkpt lat="44.35481" lon="4.26108">
        <ele>214.51</ele>
        <time>2013-12-08T12:36:01Z</time>
      </trkpt>
      <trkpt lat="44.3548" lon="4.26105">
        <ele>214.51</ele>
        <time>2013-12-08T12:36:03Z</time>
      </trkpt>
      <trkpt lat="44.35478" lon="4.26104">
        <ele>214.51</ele>
        <time>2013-12-08T12:36:10Z</time>
      </trkpt>
      <trkpt lat="44.35477" lon="4.26103">
        <ele>214.03</ele>
        <time>2013-12-08T12:36:12Z</time>
      </trkpt>
      <trkpt lat="44.35462" lon="4.2609">
        <ele>213.55</ele>
        <time>2013-12-08T12:36:22Z</time>
      </trkpt>
      <trkpt lat="44.35459" lon="4.26086">
        <ele>214.03</ele>
        <time>2013-12-08T12:36:25Z</time>
      </trkpt>
      <trkpt lat="44.35449" lon="4.26081">
        <ele>213.55</ele>
        <time>2013-12-08T12:36:38Z</time>
      </trkpt>
      <trkpt lat="44.35449" lon="4.26081">
        <ele>214.03</ele>
        <time>2013-12-08T12:37:02Z</time>
      </trkpt>
      <trkpt lat="44.35449" lon="4.26081">
        <ele>213.07</ele>
        <time>2013-12-08T12:37:23Z</time>
      </trkpt>
      <trkpt lat="44.35449" lon="4.2608">
        <ele>213.55</ele>
        <time>2013-12-08T12:37:39Z</time>
      </trkpt>
      <trkpt lat="44.35449" lon="4.2608">
        <ele>213.55</ele>
        <time>2013-12-08T12:37:50Z</time>
      </trkpt>
      <trkpt lat="44.35442" lon="4.26066">
        <ele>214.99</ele>
        <time>2013-12-08T12:52:44Z</time>
      </trkpt>
      <trkpt lat="44.35439" lon="4.26066">
        <ele>214.99</ele>
        <time>2013-12-08T12:52:45Z</time>
      </trkpt>
      <trkpt lat="44.35446" lon="4.26078">
        <ele>212.11</ele>
        <time>2013-12-08T12:53:05Z</time>
      </trkpt>
      <trkpt lat="44.35444" lon="4.26077">
        <ele>208.74</ele>
        <time>2013-12-08T12:53:22Z</time>
      </trkpt>
      <trkpt lat="44.35442" lon="4.26073">
        <ele>208.26</ele>
        <time>2013-12-08T12:53:30Z</time>
      </trkpt>
      <trkpt lat="44.35426" lon="4.26063">
        <ele>208.74</ele>
        <time>2013-12-08T12:53:41Z</time>
      </trkpt>
      <trkpt lat="44.35415" lon="4.26058">
        <ele>209.22</ele>
        <time>2013-12-08T12:53:52Z</time>
      </trkpt>
      <trkpt lat="44.3541" lon="4.26059">
        <ele>209.7</ele>
        <time>2013-12-08T12:54:03Z</time>
      </trkpt>
      <trkpt lat="44.35404" lon="4.26055">
        <ele>209.7</ele>
        <time>2013-12-08T12:54:19Z</time>
      </trkpt>
      <trkpt lat="44.35398" lon="4.26051">
        <ele>209.7</ele>
        <time>2013-12-08T12:54:25Z</time>
      </trkpt>
      <trkpt lat="44.35387" lon="4.26046">
        <ele>210.19</ele>
        <time>2013-12-08T12:54:31Z</time>
      </trkpt>
      <trkpt lat="44.35361" lon="4.26023">
        <ele>209.22</ele>
        <time>2013-12-08T12:54:45Z</time>
      </trkpt>
      <trkpt lat="44.35326" lon="4.25993">
        <ele>207.78</ele>
        <time>2013-12-08T12:55:00Z</time>
      </trkpt>
      <trkpt lat="44.35322" lon="4.25985">
        <ele>207.78</ele>
        <time>2013-12-08T12:55:11Z</time>
      </trkpt>
      <trkpt lat="44.35323" lon="4.25981">
        <ele>207.78</ele>
        <time>2013-12-08T12:55:14Z</time>
      </trkpt>
      <trkpt lat="44.35312" lon="4.25943">
        <ele>206.82</ele>
        <time>2013-12-08T12:55:27Z</time>
      </trkpt>
      <trkpt lat="44.35312" lon="4.25938">
        <ele>206.34</ele>
        <time>2013-12-08T12:55:28Z</time>
      </trkpt>
      <trkpt lat="44.35293" lon="4.259">
        <ele>202.98</ele>
        <time>2013-12-08T12:55:36Z</time>
      </trkpt>
      <trkpt lat="44.35294" lon="4.25896">
        <ele>202.98</ele>
        <time>2013-12-08T12:55:37Z</time>
      </trkpt>
      <trkpt lat="44.3532" lon="4.25832">
        <ele>200.09</ele>
        <time>2013-12-08T12:55:50Z</time>
      </trkpt>
      <trkpt lat="44.35336" lon="4.25783">
        <ele>198.65</ele>
        <time>2013-12-08T12:56:03Z</time>
      </trkpt>
      <trkpt lat="44.35342" lon="4.25762">
        <ele>197.21</ele>
        <time>2013-12-08T12:56:07Z</time>
      </trkpt>
      <trkpt lat="44.35331" lon="4.25722">
        <ele>195.28</ele>
        <time>2013-12-08T12:56:17Z</time>
      </trkpt>
      <trkpt lat="44.35334" lon="4.25688">
        <ele>193.36</ele>
        <time>2013-12-08T12:56:27Z</time>
      </trkpt>
      <trkpt lat="44.35347" lon="4.25647">
        <ele>190</ele>
        <time>2013-12-08T12:56:34Z</time>
      </trkpt>
      <trkpt lat="44.35357" lon="4.25612">
        <ele>187.59</ele>
        <time>2013-12-08T12:56:38Z</time>
      </trkpt>
      <trkpt lat="44.35366" lon="4.25571">
        <ele>187.59</ele>
        <time>2013-12-08T12:56:43Z</time>
      </trkpt>
      <trkpt lat="44.35366" lon="4.25563">
        <ele>187.11</ele>
        <time>2013-12-08T12:56:44Z</time>
      </trkpt>
      <trkpt lat="44.35365" lon="4.25555">
        <ele>186.15</ele>
        <time>2013-12-08T12:56:45Z</time>
      </trkpt>
      <trkpt lat="44.35364" lon="4.25546">
        <ele>185.19</ele>
        <time>2013-12-08T12:56:46Z</time>
      </trkpt>
      <trkpt lat="44.35364" lon="4.25537">
        <ele>184.71</ele>
        <time>2013-12-08T12:56:47Z</time>
      </trkpt>
      <trkpt lat="44.35365" lon="4.25527">
        <ele>184.71</ele>
        <time>2013-12-08T12:56:48Z</time>
      </trkpt>
      <trkpt lat="44.35367" lon="4.25517">
        <ele>183.75</ele>
        <time>2013-12-08T12:56:49Z</time>
      </trkpt>
      <trkpt lat="44.35369" lon="4.25507">
        <ele>182.31</ele>
        <time>2013-12-08T12:56:50Z</time>
      </trkpt>
      <trkpt lat="44.35386" lon="4.25453">
        <ele>178.94</ele>
        <time>2013-12-08T12:56:55Z</time>
      </trkpt>
      <trkpt lat="44.35391" lon="4.25429">
        <ele>177.02</ele>
        <time>2013-12-08T12:56:57Z</time>
      </trkpt>
      <trkpt lat="44.35392" lon="4.25417">
        <ele>175.58</ele>
        <time>2013-12-08T12:56:58Z</time>
      </trkpt>
      <trkpt lat="44.35392" lon="4.25407">
        <ele>175.58</ele>
        <time>2013-12-08T12:56:59Z</time>
      </trkpt>
      <trkpt lat="44.35397" lon="4.25353">
        <ele>175.1</ele>
        <time>2013-12-08T12:57:07Z</time>
      </trkpt>
      <trkpt lat="44.35399" lon="4.25346">
        <ele>175.1</ele>
        <time>2013-12-08T12:57:08Z</time>
      </trkpt>
      <trkpt lat="44.35402" lon="4.25339">
        <ele>174.62</ele>
        <time>2013-12-08T12:57:09Z</time>
      </trkpt>
      <trkpt lat="44.35405" lon="4.25332">
        <ele>174.62</ele>
        <time>2013-12-08T12:57:10Z</time>
      </trkpt>
      <trkpt lat="44.35408" lon="4.25326">
        <ele>174.62</ele>
        <time>2013-12-08T12:57:11Z</time>
      </trkpt>
      <trkpt lat="44.35411" lon="4.25319">
        <ele>174.62</ele>
        <time>2013-12-08T12:57:12Z</time>
      </trkpt>
      <trkpt lat="44.35441" lon="4.25235">
        <ele>171.73</ele>
        <time>2013-12-08T12:57:24Z</time>
      </trkpt>
      <trkpt lat="44.35442" lon="4.25228">
        <ele>171.25</ele>
        <time>2013-12-08T12:57:25Z</time>
      </trkpt>
      <trkpt lat="44.35442" lon="4.25222">
        <ele>171.25</ele>
        <time>2013-12-08T12:57:26Z</time>
      </trkpt>
      <trkpt lat="44.35443" lon="4.25215">
        <ele>171.25</ele>
        <time>2013-12-08T12:57:27Z</time>
      </trkpt>
      <trkpt lat="44.35444" lon="4.25208">
        <ele>171.25</ele>
        <time>2013-12-08T12:57:28Z</time>
      </trkpt>
      <trkpt lat="44.35446" lon="4.25189">
        <ele>170.29</ele>
        <time>2013-12-08T12:57:31Z</time>
      </trkpt>
      <trkpt lat="44.35454" lon="4.25119">
        <ele>167.41</ele>
        <time>2013-12-08T12:57:40Z</time>
      </trkpt>
      <trkpt lat="44.35458" lon="4.2509">
        <ele>166.93</ele>
        <time>2013-12-08T12:57:44Z</time>
      </trkpt>
      <trkpt lat="44.35467" lon="4.25029">
        <ele>164.52</ele>
        <time>2013-12-08T12:57:53Z</time>
      </trkpt>
      <trkpt lat="44.35468" lon="4.25023">
        <ele>165</ele>
        <time>2013-12-08T12:57:54Z</time>
      </trkpt>
      <trkpt lat="44.3548" lon="4.24982">
        <ele>164.52</ele>
        <time>2013-12-08T12:58:02Z</time>
      </trkpt>
      <trkpt lat="44.35505" lon="4.24961">
        <ele>163.08</ele>
        <time>2013-12-08T12:58:12Z</time>
      </trkpt>
      <trkpt lat="44.35507" lon="4.24956">
        <ele>163.08</ele>
        <time>2013-12-08T12:58:13Z</time>
      </trkpt>
      <trkpt lat="44.35518" lon="4.24934">
        <ele>161.16</ele>
        <time>2013-12-08T12:58:18Z</time>
      </trkpt>
      <trkpt lat="44.35519" lon="4.24928">
        <ele>160.68</ele>
        <time>2013-12-08T12:58:19Z</time>
      </trkpt>
      <trkpt lat="44.3552" lon="4.24906">
        <ele>160.68</ele>
        <time>2013-12-08T12:58:23Z</time>
      </trkpt>
      <trkpt lat="44.3552" lon="4.249">
        <ele>160.68</ele>
        <time>2013-12-08T12:58:24Z</time>
      </trkpt>
      <trkpt lat="44.35519" lon="4.24894">
        <ele>160.68</ele>
        <time>2013-12-08T12:58:25Z</time>
      </trkpt>
      <trkpt lat="44.35517" lon="4.24889">
        <ele>160.68</ele>
        <time>2013-12-08T12:58:26Z</time>
      </trkpt>
      <trkpt lat="44.35515" lon="4.24885">
        <ele>161.16</ele>
        <time>2013-12-08T12:58:27Z</time>
      </trkpt>
      <trkpt lat="44.35513" lon="4.24881">
        <ele>162.12</ele>
        <time>2013-12-08T12:58:28Z</time>
      </trkpt>
      <trkpt lat="44.35508" lon="4.24875">
        <ele>163.56</ele>
        <time>2013-12-08T12:58:31Z</time>
      </trkpt>
      <trkpt lat="44.35492" lon="4.24854">
        <ele>164.52</ele>
        <time>2013-12-08T12:58:41Z</time>
      </trkpt>
      <trkpt lat="44.35484" lon="4.24815">
        <ele>164.52</ele>
        <time>2013-12-08T12:58:50Z</time>
      </trkpt>
      <trkpt lat="44.35492" lon="4.24756">
        <ele>163.08</ele>
        <time>2013-12-08T12:59:03Z</time>
      </trkpt>
      <trkpt lat="44.35511" lon="4.2467">
        <ele>161.16</ele>
        <time>2013-12-08T12:59:17Z</time>
      </trkpt>
      <trkpt lat="44.35534" lon="4.24593">
        <ele>159.24</ele>
        <time>2013-12-08T12:59:29Z</time>
      </trkpt>
      <trkpt lat="44.3554" lon="4.2458">
        <ele>158.27</ele>
        <time>2013-12-08T12:59:31Z</time>
      </trkpt>
      <trkpt lat="44.35543" lon="4.24573">
        <ele>157.79</ele>
        <time>2013-12-08T12:59:32Z</time>
      </trkpt>
      <trkpt lat="44.35554" lon="4.24551">
        <ele>156.83</ele>
        <time>2013-12-08T12:59:35Z</time>
      </trkpt>
      <trkpt lat="44.35557" lon="4.24544">
        <ele>156.83</ele>
        <time>2013-12-08T12:59:36Z</time>
      </trkpt>
      <trkpt lat="44.35585" lon="4.24501">
        <ele>155.39</ele>
        <time>2013-12-08T12:59:45Z</time>
      </trkpt>
      <trkpt lat="44.35607" lon="4.24498">
        <ele>155.39</ele>
        <time>2013-12-08T12:59:50Z</time>
      </trkpt>
      <trkpt lat="44.35626" lon="4.24499">
        <ele>154.91</ele>
        <time>2013-12-08T12:59:54Z</time>
      </trkpt>
      <trkpt lat="44.35647" lon="4.24489">
        <ele>154.91</ele>
        <time>2013-12-08T12:59:59Z</time>
      </trkpt>
      <trkpt lat="44.3565" lon="4.24484">
        <ele>154.43</ele>
        <time>2013-12-08T13:00:00Z</time>
      </trkpt>
      <trkpt lat="44.35652" lon="4.24479">
        <ele>154.91</ele>
        <time>2013-12-08T13:00:01Z</time>
      </trkpt>
      <trkpt lat="44.35655" lon="4.24474">
        <ele>154.43</ele>
        <time>2013-12-08T13:00:02Z</time>
      </trkpt>
      <trkpt lat="44.35659" lon="4.24469">
        <ele>154.43</ele>
        <time>2013-12-08T13:00:03Z</time>
      </trkpt>
      <trkpt lat="44.35662" lon="4.24465">
        <ele>154.43</ele>
        <time>2013-12-08T13:00:04Z</time>
      </trkpt>
      <trkpt lat="44.35665" lon="4.2446">
        <ele>153.95</ele>
        <time>2013-12-08T13:00:05Z</time>
      </trkpt>
      <trkpt lat="44.35668" lon="4.24456">
        <ele>153.95</ele>
        <time>2013-12-08T13:00:06Z</time>
      </trkpt>
      <trkpt lat="44.35684" lon="4.24449">
        <ele>154.43</ele>
        <time>2013-12-08T13:00:14Z</time>
      </trkpt>
      <trkpt lat="44.35685" lon="4.24449">
        <ele>153.95</ele>
        <time>2013-12-08T13:00:22Z</time>
      </trkpt>
      <trkpt lat="44.35684" lon="4.2445">
        <ele>154.43</ele>
        <time>2013-12-08T13:00:26Z</time>
      </trkpt>
      <trkpt lat="44.35696" lon="4.24449">
        <ele>152.99</ele>
        <time>2013-12-08T13:00:34Z</time>
      </trkpt>
      <trkpt lat="44.35698" lon="4.24441">
        <ele>152.51</ele>
        <time>2013-12-08T13:00:36Z</time>
      </trkpt>
      <trkpt lat="44.357" lon="4.24436">
        <ele>152.51</ele>
        <time>2013-12-08T13:00:44Z</time>
      </trkpt>
      <trkpt lat="44.35703" lon="4.24436">
        <ele>152.51</ele>
        <time>2013-12-08T13:00:48Z</time>
      </trkpt>
      <trkpt lat="44.35709" lon="4.24434">
        <ele>152.99</ele>
        <time>2013-12-08T13:00:54Z</time>
      </trkpt>
      <trkpt lat="44.35717" lon="4.24416">
        <ele>150.58</ele>
        <time>2013-12-08T13:01:01Z</time>
      </trkpt>
      <trkpt lat="44.35718" lon="4.2441">
        <ele>149.14</ele>
        <time>2013-12-08T13:01:04Z</time>
      </trkpt>
      <trkpt lat="44.35715" lon="4.24407">
        <ele>149.14</ele>
        <time>2013-12-08T13:01:06Z</time>
      </trkpt>
      <trkpt lat="44.35711" lon="4.24398">
        <ele>149.62</ele>
        <time>2013-12-08T13:01:15Z</time>
      </trkpt>
      <trkpt lat="44.35708" lon="4.24395">
        <ele>149.62</ele>
        <time>2013-12-08T13:01:17Z</time>
      </trkpt>
      <trkpt lat="44.35713" lon="4.24378">
        <ele>148.18</ele>
        <time>2013-12-08T13:01:22Z</time>
      </trkpt>
      <trkpt lat="44.3574" lon="4.24351">
        <ele>147.22</ele>
        <time>2013-12-08T13:01:31Z</time>
      </trkpt>
      <trkpt lat="44.35742" lon="4.24345">
        <ele>147.22</ele>
        <time>2013-12-08T13:01:32Z</time>
      </trkpt>
      <trkpt lat="44.35743" lon="4.24341">
        <ele>147.22</ele>
        <time>2013-12-08T13:01:33Z</time>
      </trkpt>
      <trkpt lat="44.35751" lon="4.24303">
        <ele>146.74</ele>
        <time>2013-12-08T13:01:42Z</time>
      </trkpt>
      <trkpt lat="44.35759" lon="4.24286">
        <ele>146.26</ele>
        <time>2013-12-08T13:01:46Z</time>
      </trkpt>
      <trkpt lat="44.35762" lon="4.24281">
        <ele>145.78</ele>
        <time>2013-12-08T13:01:47Z</time>
      </trkpt>
      <trkpt lat="44.35764" lon="4.24275">
        <ele>145.3</ele>
        <time>2013-12-08T13:01:48Z</time>
      </trkpt>
      <trkpt lat="44.35768" lon="4.24263">
        <ele>144.82</ele>
        <time>2013-12-08T13:01:50Z</time>
      </trkpt>
      <trkpt lat="44.35794" lon="4.2419">
        <ele>141.45</ele>
        <time>2013-12-08T13:02:00Z</time>
      </trkpt>
      <trkpt lat="44.35803" lon="4.24166">
        <ele>140.97</ele>
        <time>2013-12-08T13:02:03Z</time>
      </trkpt>
      <trkpt lat="44.35807" lon="4.24158">
        <ele>140.01</ele>
        <time>2013-12-08T13:02:04Z</time>
      </trkpt>
      <trkpt lat="44.3581" lon="4.24149">
        <ele>140.01</ele>
        <time>2013-12-08T13:02:05Z</time>
      </trkpt>
      <trkpt lat="44.35834" lon="4.24091">
        <ele>138.57</ele>
        <time>2013-12-08T13:02:12Z</time>
      </trkpt>
      <trkpt lat="44.35839" lon="4.24076">
        <ele>138.57</ele>
        <time>2013-12-08T13:02:14Z</time>
      </trkpt>
      <trkpt lat="44.35842" lon="4.2407">
        <ele>138.57</ele>
        <time>2013-12-08T13:02:15Z</time>
      </trkpt>
      <trkpt lat="44.35846" lon="4.24064">
        <ele>139.05</ele>
        <time>2013-12-08T13:02:16Z</time>
      </trkpt>
      <trkpt lat="44.3586" lon="4.24044">
        <ele>140.01</ele>
        <time>2013-12-08T13:02:20Z</time>
      </trkpt>
      <trkpt lat="44.35863" lon="4.24039">
        <ele>140.01</ele>
        <time>2013-12-08T13:02:21Z</time>
      </trkpt>
      <trkpt lat="44.35878" lon="4.23998">
        <ele>142.41</ele>
        <time>2013-12-08T13:02:31Z</time>
      </trkpt>
      <trkpt lat="44.35896" lon="4.23946">
        <ele>143.37</ele>
        <time>2013-12-08T13:02:44Z</time>
      </trkpt>
      <trkpt lat="44.35904" lon="4.23899">
        <ele>144.34</ele>
        <time>2013-12-08T13:02:55Z</time>
      </trkpt>
      <trkpt lat="44.35907" lon="4.23821">
        <ele>146.26</ele>
        <time>2013-12-08T13:03:12Z</time>
      </trkpt>
      <trkpt lat="44.35907" lon="4.23753">
        <ele>147.7</ele>
        <time>2013-12-08T13:03:26Z</time>
      </trkpt>
      <trkpt lat="44.35921" lon="4.23678">
        <ele>147.7</ele>
        <time>2013-12-08T13:03:40Z</time>
      </trkpt>
      <trkpt lat="44.35936" lon="4.23619">
        <ele>147.7</ele>
        <time>2013-12-08T13:03:53Z</time>
      </trkpt>
      <trkpt lat="44.35938" lon="4.23594">
        <ele>147.22</ele>
        <time>2013-12-08T13:03:58Z</time>
      </trkpt>
      <trkpt lat="44.35939" lon="4.23571">
        <ele>146.74</ele>
        <time>2013-12-08T13:04:02Z</time>
      </trkpt>
      <trkpt lat="44.35939" lon="4.23554">
        <ele>146.74</ele>
        <time>2013-12-08T13:04:05Z</time>
      </trkpt>
      <trkpt lat="44.35938" lon="4.23548">
        <ele>146.26</ele>
        <time>2013-12-08T13:04:06Z</time>
      </trkpt>
      <trkpt lat="44.35939" lon="4.23543">
        <ele>146.26</ele>
        <time>2013-12-08T13:04:07Z</time>
      </trkpt>
      <trkpt lat="44.3594" lon="4.23531">
        <ele>146.26</ele>
        <time>2013-12-08T13:04:09Z</time>
      </trkpt>
      <trkpt lat="44.35944" lon="4.23514">
        <ele>145.78</ele>
        <time>2013-12-08T13:04:12Z</time>
      </trkpt>
      <trkpt lat="44.35947" lon="4.23509">
        <ele>145.78</ele>
        <time>2013-12-08T13:04:13Z</time>
      </trkpt>
      <trkpt lat="44.35948" lon="4.23503">
        <ele>145.78</ele>
        <time>2013-12-08T13:04:14Z</time>
      </trkpt>
      <trkpt lat="44.35949" lon="4.23497">
        <ele>145.3</ele>
        <time>2013-12-08T13:04:15Z</time>
      </trkpt>
      <trkpt lat="44.3595" lon="4.23492">
        <ele>145.78</ele>
        <time>2013-12-08T13:04:16Z</time>
      </trkpt>
      <trkpt lat="44.3595" lon="4.23486">
        <ele>145.3</ele>
        <time>2013-12-08T13:04:17Z</time>
      </trkpt>
      <trkpt lat="44.35951" lon="4.23452">
        <ele>145.78</ele>
        <time>2013-12-08T13:04:23Z</time>
      </trkpt>
      <trkpt lat="44.35952" lon="4.23447">
        <ele>145.78</ele>
        <time>2013-12-08T13:04:24Z</time>
      </trkpt>
      <trkpt lat="44.35954" lon="4.23442">
        <ele>145.3</ele>
        <time>2013-12-08T13:04:25Z</time>
      </trkpt>
      <trkpt lat="44.35985" lon="4.23393">
        <ele>147.7</ele>
        <time>2013-12-08T13:04:37Z</time>
      </trkpt>
      <trkpt lat="44.36032" lon="4.23378">
        <ele>146.26</ele>
        <time>2013-12-08T13:04:50Z</time>
      </trkpt>
      <trkpt lat="44.36036" lon="4.23376">
        <ele>146.26</ele>
        <time>2013-12-08T13:04:51Z</time>
      </trkpt>
      <trkpt lat="44.3604" lon="4.23372">
        <ele>145.78</ele>
        <time>2013-12-08T13:04:52Z</time>
      </trkpt>
      <trkpt lat="44.36043" lon="4.23369">
        <ele>145.78</ele>
        <time>2013-12-08T13:04:53Z</time>
      </trkpt>
      <trkpt lat="44.36047" lon="4.23367">
        <ele>145.78</ele>
        <time>2013-12-08T13:04:54Z</time>
      </trkpt>
      <trkpt lat="44.3605" lon="4.23365">
        <ele>145.78</ele>
        <time>2013-12-08T13:04:55Z</time>
      </trkpt>
      <trkpt lat="44.36053" lon="4.23364">
        <ele>145.78</ele>
        <time>2013-12-08T13:04:56Z</time>
      </trkpt>
      <trkpt lat="44.36068" lon="4.23353">
        <ele>145.78</ele>
        <time>2013-12-08T13:05:01Z</time>
      </trkpt>
      <trkpt lat="44.36069" lon="4.23349">
        <ele>145.78</ele>
        <time>2013-12-08T13:05:02Z</time>
      </trkpt>
      <trkpt lat="44.3607" lon="4.23345">
        <ele>145.78</ele>
        <time>2013-12-08T13:05:03Z</time>
      </trkpt>
      <trkpt lat="44.36073" lon="4.23342">
        <ele>145.78</ele>
        <time>2013-12-08T13:05:04Z</time>
      </trkpt>
      <trkpt lat="44.36076" lon="4.2334">
        <ele>145.78</ele>
        <time>2013-12-08T13:05:05Z</time>
      </trkpt>
      <trkpt lat="44.3608" lon="4.23339">
        <ele>145.3</ele>
        <time>2013-12-08T13:05:06Z</time>
      </trkpt>
      <trkpt lat="44.36084" lon="4.23337">
        <ele>145.3</ele>
        <time>2013-12-08T13:05:07Z</time>
      </trkpt>
      <trkpt lat="44.36088" lon="4.23336">
        <ele>144.82</ele>
        <time>2013-12-08T13:05:08Z</time>
      </trkpt>
      <trkpt lat="44.36105" lon="4.2333">
        <ele>143.37</ele>
        <time>2013-12-08T13:05:11Z</time>
      </trkpt>
      <trkpt lat="44.36111" lon="4.23327">
        <ele>142.41</ele>
        <time>2013-12-08T13:05:12Z</time>
      </trkpt>
      <trkpt lat="44.36117" lon="4.23322">
        <ele>141.45</ele>
        <time>2013-12-08T13:05:13Z</time>
      </trkpt>
      <trkpt lat="44.36122" lon="4.23316">
        <ele>140.49</ele>
        <time>2013-12-08T13:05:14Z</time>
      </trkpt>
      <trkpt lat="44.36127" lon="4.23312">
        <ele>140.49</ele>
        <time>2013-12-08T13:05:15Z</time>
      </trkpt>
      <trkpt lat="44.3613" lon="4.23308">
        <ele>140.01</ele>
        <time>2013-12-08T13:05:16Z</time>
      </trkpt>
      <trkpt lat="44.36133" lon="4.23304">
        <ele>139.53</ele>
        <time>2013-12-08T13:05:17Z</time>
      </trkpt>
      <trkpt lat="44.36136" lon="4.23301">
        <ele>139.05</ele>
        <time>2013-12-08T13:05:18Z</time>
      </trkpt>
      <trkpt lat="44.3614" lon="4.23298">
        <ele>138.57</ele>
        <time>2013-12-08T13:05:19Z</time>
      </trkpt>
      <trkpt lat="44.36144" lon="4.23296">
        <ele>138.57</ele>
        <time>2013-12-08T13:05:20Z</time>
      </trkpt>
      <trkpt lat="44.36146" lon="4.23294">
        <ele>138.09</ele>
        <time>2013-12-08T13:05:21Z</time>
      </trkpt>
      <trkpt lat="44.36146" lon="4.23293">
        <ele>138.57</ele>
        <time>2013-12-08T13:05:29Z</time>
      </trkpt>
    </trkseg>
  </trk>
</gpx>